[[{"header":{"parameterUnit":"m.s-1","parameterCategory":1,"la1":30.6,"la2":29.2853,"lo1":-89.7004,"lo2":-87.6739,"dy":0.0162,"dx":0.0183,"nx":112,"ny":82,"refTime":"2026-04-23T12:00:00:Z","depth":0,"parameterNumber":2,"parameterNumberName":"U-component_of_WINDS"},"data":[0.0,0.0,0.0,0.0,0.0,0.0,0.0,0.0,0.0,0.0,0.0,0.0,0.0,0.0,0.0,0.0,0.0,0.0,0.0,0.0,0.0,0.0,0.0,0.0,0.0,0.0,0.0,0.0,0.0,0.0,0.0,0.0,0.0,0.0,0.0,0.0,0.0,0.0,0.0,0.0,0.0,0.0,0.0,0.0,0.0,0.0,0.0,0.0,0.0,0.0,0.0,0.0,0.0,0.0,0.0,0.0,0.0,0.0,0.0,0.0,0.0,0.0,0.0,0.0,0.0,0.0,0.0,0.0,0.0,0.0,0.0,0.0,0.0,0.0,0.0,0.0,0.0,0.0,0.0,0.0,0.0,0.0,0.0,0.0,0.0,0.0,0.0,0.0,0.0,0.0,-1.4993,-1.6949,-1.9388,-2.0344,-1.9121,-1.942,-1.8655,-1.6204,0.0,0.0,0.0,0.0,0.0,0.0,0.0,0.0,0.0,0.0,0.0,0.0,0.0,0.0,0.0,0.0,0.0,0.0,0.0,0.0,0.0,0.0,0.0,0.0,0.0,0.0,0.0,0.0,0.0,0.0,0.0,0.0,0.0,0.0,0.0,0.0,0.0,0.0,0.0,0.0,0.0,0.0,0.0,0.0,0.0,0.0,0.0,0.0,0.0,0.0,0.0,0.0,0.0,0.0,0.0,0.0,0.0,0.0,0.0,0.0,0.0,0.0,0.0,0.0,0.0,0.0,0.0,0.0,0.0,0.0,0.0,0.0,0.0,0.0,0.0,0.0,0.0,0.0,0.0,0.0,0.0,0.0,0.0,0.0,0.0,0.0,0.0,0.0,0.0,0.0,0.0,0.0,0.0,0.0,0.0,0.0,0.0,0.0,0.0,0.0,0.0,0.0,0.0,0.0,-1.5007,-1.885,-2.0617,-2.1246,-2.0464,-1.9974,-1.9219,-1.8054,0.0,0.0,0.0,0.0,0.0,0.0,0.0,0.0,0.0,0.0,0.0,0.0,0.0,0.0,0.0,0.0,0.0,0.0,0.0,0.0,0.0,0.0,0.0,0.0,0.0,0.0,0.0,0.0,0.0,0.0,0.0,0.0,0.0,0.0,0.0,0.0,0.0,0.0,0.0,0.0,0.0,0.0,0.0,0.0,0.0,0.0,0.0,0.0,0.0,0.0,0.0,0.0,0.0,0.0,0.0,0.0,0.0,0.0,0.0,0.0,0.0,0.0,0.0,0.0,0.0,0.0,0.0,0.0,0.0,0.0,0.0,0.0,0.0,0.0,0.0,0.0,0.0,0.0,0.0,0.0,0.0,0.0,0.0,0.0,0.0,0.0,0.0,0.0,0.0,0.0,0.0,0.0,0.0,0.0,0.0,0.0,0.0,0.0,0.0,0.0,0.0,0.0,0.0,-1.4601,-1.6945,-1.9593,-2.1019,-2.1401,-2.0401,-2.0661,-2.0098,-1.8186,-1.68,0.0,0.0,0.0,0.0,0.0,0.0,0.0,0.0,0.0,0.0,0.0,0.0,0.0,0.0,0.0,0.0,0.0,0.0,0.0,0.0,0.0,0.0,0.0,0.0,0.0,0.0,0.0,0.0,0.0,0.0,0.0,0.0,0.0,0.0,0.0,0.0,0.0,0.0,0.0,0.0,0.0,0.0,0.0,0.0,0.0,0.0,0.0,0.0,0.0,0.0,0.0,0.0,0.0,0.0,0.0,0.0,0.0,0.0,0.0,0.0,0.0,0.0,0.0,0.0,0.0,0.0,0.0,0.0,0.0,0.0,0.0,0.0,0.0,0.0,0.0,0.0,0.0,0.0,0.0,0.0,0.0,0.0,0.0,0.0,0.0,0.0,0.0,0.0,0.0,0.0,0.0,0.0,0.0,0.0,0.0,0.0,0.0,0.0,0.0,0.0,0.0,0.0,-1.6774,-1.8717,-1.9852,-2.1205,-2.1535,-2.0367,-2.151,-2.1141,-1.8432,-1.6606,0.0,0.0,0.0,0.0,0.0,0.0,0.0,0.0,0.0,0.0,0.0,0.0,0.0,0.0,0.0,0.0,0.0,0.0,0.0,0.0,0.0,0.0,0.0,0.0,0.0,0.0,0.0,0.0,0.0,0.0,0.0,0.0,0.0,0.0,0.0,0.0,0.0,0.0,0.0,0.0,0.0,0.0,0.0,0.0,0.0,0.0,0.0,0.0,0.0,0.0,0.0,0.0,0.0,0.0,0.0,0.0,0.0,0.0,0.0,0.0,0.0,0.0,0.0,0.0,0.0,0.0,0.0,0.0,0.0,0.0,0.0,0.0,0.0,0.0,0.0,0.0,0.0,0.0,0.0,0.0,0.0,0.0,0.0,0.0,0.0,0.0,0.0,0.0,0.0,0.0,0.0,0.0,0.0,0.0,0.0,0.0,0.0,0.0,0.0,0.0,0.0,0.0,-1.6939,-1.9128,-1.9841,-2.1391,-2.2009,-2.109,-2.2536,-2.235,-1.9733,-1.4051,0.0,0.0,0.0,0.0,0.0,0.0,0.0,0.0,0.0,0.0,0.0,0.0,0.0,0.0,0.0,0.0,0.0,0.0,0.0,0.0,0.0,0.0,0.0,0.0,0.0,0.0,0.0,0.0,0.0,0.0,0.0,0.0,0.0,0.0,0.0,0.0,0.0,0.0,0.0,0.0,0.0,0.0,0.0,0.0,0.0,0.0,0.0,0.0,0.0,0.0,0.0,0.0,0.0,0.0,0.0,0.0,0.0,0.0,0.0,0.0,0.0,0.0,0.0,0.0,0.0,0.0,0.0,0.0,0.0,0.0,0.0,0.0,0.0,0.0,0.0,0.0,0.0,0.0,0.0,0.0,0.0,0.0,0.0,0.0,0.0,0.0,0.0,0.0,0.0,0.0,0.0,0.0,0.0,0.0,0.0,0.0,0.0,0.0,0.0,0.0,0.0,0.0,-1.6829,-1.879,0.0,-2.0731,-2.1101,-2.0065,-2.0585,-1.9943,-1.7478,0.0,0.0,0.0,0.0,0.0,0.0,0.0,0.0,0.0,0.0,0.0,0.0,0.0,0.0,0.0,0.0,0.0,0.0,0.0,0.0,0.0,0.0,0.0,0.0,0.0,0.0,0.0,0.0,0.0,0.0,0.0,0.0,0.0,0.0,0.0,0.0,0.0,0.0,0.0,0.0,0.0,0.0,0.0,0.0,0.0,0.0,0.0,0.0,0.0,0.0,0.0,0.0,0.0,0.0,0.0,0.0,0.0,0.0,0.0,0.0,0.0,0.0,0.0,0.0,0.0,0.0,0.0,0.0,0.0,0.0,0.0,0.0,0.0,0.0,0.0,0.0,0.0,0.0,0.0,0.0,0.0,0.0,0.0,0.0,0.0,0.0,0.0,0.0,0.0,0.0,0.0,0.0,0.0,0.0,0.0,0.0,0.0,0.0,0.0,0.0,0.0,0.0,-1.4407,-1.6682,-1.838,0.0,-2.0059,-2.0214,-1.9186,-1.8723,-1.7511,-1.5185,0.0,0.0,0.0,0.0,0.0,0.0,0.0,0.0,0.0,0.0,0.0,0.0,0.0,0.0,0.0,0.0,0.0,0.0,0.0,0.0,0.0,0.0,0.0,0.0,0.0,0.0,0.0,0.0,0.0,0.0,0.0,0.0,0.0,0.0,0.0,0.0,0.0,0.0,0.0,0.0,0.0,0.0,0.0,0.0,0.0,0.0,0.0,0.0,0.0,0.0,0.0,0.0,0.0,0.0,0.0,0.0,0.0,0.0,0.0,0.0,0.0,0.0,0.0,0.0,0.0,0.0,0.0,0.0,0.0,0.0,0.0,0.0,0.0,0.0,0.0,0.0,0.0,0.0,0.0,0.0,0.0,0.0,0.0,0.0,0.0,0.0,0.0,0.0,0.0,0.0,0.0,0.0,0.0,0.0,0.0,0.0,0.0,0.0,0.0,0.0,0.0,0.0,-1.4607,-1.6489,-1.7943,-1.8908,-1.9497,-1.9497,-1.8756,-1.7345,-1.5563,0.0,0.0,0.0,0.0,0.0,0.0,0.0,0.0,0.0,0.0,0.0,0.0,0.0,0.0,0.0,0.0,0.0,0.0,0.0,0.0,0.0,0.0,0.0,0.0,0.0,0.0,0.0,0.0,0.0,0.0,0.0,0.0,0.0,0.0,0.0,0.0,0.0,0.0,0.0,0.0,0.0,0.0,0.0,0.0,0.0,0.0,0.0,0.0,0.0,0.0,0.0,0.0,0.0,0.0,0.0,0.0,0.0,0.0,0.0,0.0,0.0,0.0,0.0,0.0,0.0,0.0,0.0,0.0,0.0,0.0,0.0,0.0,0.0,0.0,0.0,0.0,0.0,0.0,0.0,0.0,0.0,0.0,0.0,0.0,0.0,0.0,0.0,0.0,0.0,0.0,0.0,0.0,0.0,0.0,0.0,0.0,0.0,0.0,0.0,0.0,0.0,0.0,0.0,-1.5135,-1.6712,-1.7943,-1.8908,-1.9497,-1.9409,-1.8426,-1.7689,-1.6557,-1.4859,0.0,0.0,0.0,0.0,0.0,0.0,0.0,0.0,0.0,0.0,0.0,0.0,0.0,0.0,0.0,0.0,0.0,0.0,0.0,0.0,0.0,0.0,0.0,0.0,0.0,0.0,0.0,0.0,0.0,0.0,0.0,0.0,0.0,0.0,0.0,0.0,0.0,0.0,0.0,0.0,0.0,0.0,0.0,0.0,0.0,0.0,0.0,0.0,0.0,0.0,0.0,0.0,0.0,0.0,0.0,0.0,0.0,0.0,0.0,0.0,0.0,0.0,0.0,0.0,0.0,0.0,0.0,0.0,0.0,0.0,0.0,0.0,0.0,0.0,0.0,0.0,0.0,0.0,0.0,0.0,0.0,0.0,0.0,0.0,0.0,0.0,0.0,0.0,0.0,0.0,0.0,0.0,0.0,0.0,0.0,0.0,0.0,0.0,0.0,0.0,0.0,0.0,-1.5643,-1.7077,-1.8224,-1.9221,-1.961,-1.9459,-1.8581,-1.7944,-1.6964,-1.5479,0.0,0.0,0.0,0.0,0.0,0.0,0.0,0.0,0.0,0.0,0.0,0.0,0.0,0.0,0.0,0.0,0.0,0.0,0.0,0.0,0.0,0.0,0.0,0.0,0.0,0.0,0.0,0.0,0.0,0.0,0.0,0.0,0.0,0.0,0.0,0.0,0.0,0.0,0.0,0.0,0.0,0.0,0.0,0.0,0.0,0.0,0.0,0.0,0.0,0.0,0.0,0.0,0.0,0.0,0.0,0.0,0.0,0.0,0.0,0.0,0.0,0.0,0.0,0.0,0.0,0.0,0.0,0.0,0.0,0.0,0.0,0.0,0.0,0.0,0.0,0.0,0.0,0.0,0.0,0.0,0.0,0.0,0.0,0.0,0.0,0.0,0.0,0.0,0.0,0.0,0.0,0.0,0.0,0.0,0.0,0.0,0.0,0.0,0.0,0.0,0.0,0.0,-1.6074,-1.7513,-1.8655,-1.9685,-1.9798,-1.9597,-1.9045,-1.8164,-1.7029,-1.5517,0.0,0.0,0.0,0.0,0.0,0.0,0.0,0.0,0.0,0.0,0.0,0.0,0.0,0.0,0.0,0.0,0.0,0.0,0.0,0.0,0.0,0.0,0.0,0.0,0.0,0.0,0.0,0.0,0.0,0.0,0.0,0.0,0.0,0.0,0.0,0.0,0.0,0.0,0.0,0.0,0.0,0.0,0.0,0.0,0.0,0.0,0.0,0.0,0.0,0.0,0.0,0.0,0.0,0.0,0.0,0.0,0.0,0.0,0.0,0.0,-1.6325,0.0,0.0,0.0,0.0,0.0,0.0,0.0,0.0,0.0,0.0,0.0,0.0,0.0,0.0,0.0,0.0,0.0,0.0,0.0,0.0,0.0,0.0,0.0,0.0,0.0,0.0,0.0,0.0,0.0,0.0,0.0,0.0,0.0,0.0,0.0,0.0,0.0,0.0,0.0,0.0,0.0,-1.6124,-1.7738,-1.8901,-1.9723,-1.9798,-1.9597,-1.9045,-1.842,-1.737,-1.574,-1.3895,0.0,0.0,0.0,0.0,0.0,0.0,0.0,0.0,0.0,0.0,0.0,0.0,0.0,0.0,0.0,0.0,0.0,0.0,0.0,0.0,0.0,0.0,0.0,0.0,0.0,0.0,0.0,0.0,0.0,0.0,0.0,0.0,0.0,0.0,0.0,0.0,0.0,0.0,0.0,0.0,0.0,0.0,0.0,0.0,0.0,0.0,0.0,0.0,0.0,0.0,0.0,0.0,0.0,0.0,0.0,0.0,0.0,0.0,0.0,0.0,-1.8091,0.0,0.0,0.0,0.0,0.0,0.0,0.0,0.0,0.0,0.0,0.0,0.0,0.0,0.0,0.0,0.0,0.0,0.0,0.0,0.0,0.0,0.0,0.0,0.0,0.0,0.0,0.0,0.0,0.0,0.0,0.0,0.0,0.0,0.0,0.0,0.0,0.0,0.0,0.0,0.0,-1.6149,-1.7786,-1.8988,-1.9723,-1.9798,-1.9698,-1.9396,-1.8668,-1.7727,-1.6584,-1.4689,0.0,0.0,0.0,0.0,0.0,0.0,0.0,0.0,0.0,0.0,0.0,0.0,0.0,0.0,0.0,0.0,0.0,0.0,0.0,0.0,0.0,0.0,0.0,0.0,0.0,0.0,0.0,0.0,0.0,0.0,0.0,0.0,0.0,0.0,0.0,0.0,0.0,0.0,0.0,0.0,0.0,0.0,0.0,0.0,0.0,0.0,0.0,0.0,0.0,0.0,0.0,0.0,0.0,-2.0439,-2.1066,-2.2071,-2.2159,-2.251,-2.2962,-2.1669,-2.0828,-2.0338,-1.9785,0.0,0.0,0.0,0.0,0.0,0.0,0.0,0.0,0.0,0.0,0.0,0.0,0.0,0.0,0.0,0.0,0.0,0.0,0.0,0.0,0.0,0.0,0.0,0.0,-1.7162,-1.655,0.0,0.0,0.0,0.0,0.0,0.0,0.0,0.0,0.0,0.0,0.0,0.0,-1.6333,-1.789,-1.9015,-1.971,-1.9798,-1.9798,-1.9798,-1.8907,-1.8078,-1.7448,-1.5595,-1.413,0.0,0.0,0.0,0.0,0.0,0.0,0.0,0.0,0.0,0.0,0.0,0.0,0.0,0.0,0.0,0.0,0.0,0.0,0.0,0.0,0.0,0.0,0.0,0.0,0.0,0.0,0.0,0.0,0.0,0.0,0.0,0.0,-0.8298,-0.8913,0.0,0.0,0.0,0.0,0.0,0.0,0.0,0.0,0.0,0.0,0.0,0.0,0.0,-1.8103,-1.9246,-2.0313,-2.1217,-2.1995,-2.2975,-2.3778,-2.4362,-2.4858,-2.5372,-2.5959,-2.6223,0.0,-2.2619,-2.208,0.0,0.0,0.0,0.0,0.0,0.0,0.0,0.0,0.0,0.0,0.0,0.0,0.0,0.0,0.0,0.0,0.0,0.0,0.0,0.0,0.0,0.0,-1.9497,-2.0025,-1.9761,-1.9171,0.0,-1.7152,-1.5844,-1.4683,-1.4085,0.0,0.0,0.0,0.0,0.0,0.0,0.0,-1.7058,-1.8254,-1.9196,-1.9748,-1.9798,-1.9798,-1.9798,-1.9233,-1.848,-1.7473,-1.6635,-1.5284,-1.3286,-1.2985,0.0,0.0,0.0,0.0,0.0,0.0,0.0,0.0,0.0,0.0,0.0,0.0,0.0,0.0,0.0,0.0,0.0,0.0,0.0,0.0,0.0,0.0,0.0,0.0,0.0,0.0,0.0,0.0,0.0,-0.865,-0.9855,-1.0434,-1.0773,-1.1048,0.0,0.0,0.0,0.0,0.0,0.0,0.0,0.0,0.0,-1.7965,-1.9057,-2.0263,-2.1628,-2.2485,-2.3489,-2.4676,-2.5179,-2.5837,-2.6678,-2.6904,-2.7143,-2.7394,-2.7645,-2.7055,-2.5803,-2.4644,-2.3514,-2.241,0.0,0.0,0.0,0.0,-2.0501,-2.0951,-2.0951,-2.1114,0.0,-2.069,0.0,0.0,0.0,0.0,0.0,0.0,0.0,0.0,0.0,0.0,-2.0815,-2.1094,-2.0941,-2.069,-2.0464,-1.9585,-1.8342,0.0,-1.5839,-1.511,-1.3986,0.0,0.0,0.0,0.0,-1.5356,-1.7578,-1.842,-1.9071,-1.9722,-1.9798,-1.9798,-1.9798,-1.9309,-1.8669,-1.789,-1.7011,-1.5923,-1.4664,-1.3704,-1.2597,0.0,0.0,0.0,0.0,0.0,0.0,0.0,0.0,0.0,0.0,0.0,0.0,0.0,0.0,0.0,0.0,0.0,0.0,0.0,0.0,0.0,0.0,0.0,0.0,0.0,0.0,0.0,0.0,-1.0571,-1.156,-1.2168,-1.2722,-1.3094,0.0,0.0,0.0,0.0,0.0,0.0,-1.7089,-1.7965,-1.9058,-2.0401,-2.1169,-2.2246,-2.3722,-2.4343,-2.5343,-2.6713,-2.6851,-2.7381,-2.831,-2.831,-2.8398,-2.8536,-2.8536,-2.8448,-2.8197,-2.6653,-2.5548,-2.472,-2.359,-2.3489,-2.3885,-2.3364,-2.3502,-2.396,-2.396,-2.396,-2.3885,-2.3502,-2.2811,-2.1845,-2.0299,0.0,0.0,0.0,0.0,-1.9698,-2.083,-2.1421,-2.1732,-2.1882,-2.1907,-2.187,-2.1732,-2.1408,-2.0503,0.0,-1.7438,-1.6647,-1.5701,0.0,0.0,0.0,0.0,-1.6044,-1.8133,-1.8734,-1.9183,-1.9748,-1.9798,-1.9798,-1.9798,-1.9309,-1.877,-1.8242,-1.7287,-1.6421,-1.5718,-1.4369,-1.3315,-1.2613,0.0,0.0,0.0,0.0,0.0,0.0,0.0,0.0,0.0,0.0,0.0,0.0,0.0,0.0,0.0,0.0,0.0,0.0,0.0,0.0,0.0,0.0,0.0,0.0,0.0,0.0,0.0,0.0,0.0,-1.3896,-1.445,0.0,0.0,0.0,0.0,-1.7109,-1.7727,-1.8268,-1.8845,-2.0413,-2.1556,-2.2171,-2.3251,-2.4356,-2.546,-2.6084,-2.6675,-2.7291,-2.777,-2.8323,-2.885,-2.885,-2.9189,-2.9704,-2.9704,-2.9402,-2.8762,-2.767,-2.7168,-2.7005,-2.5875,-2.582,-2.626,-2.5649,-2.5799,-2.6323,-2.6323,-2.6323,-2.6323,-2.6298,-2.5204,-2.3653,-2.2498,-2.1355,0.0,0.0,-2.0993,-2.0867,-2.1945,-2.2246,-2.2397,-2.2895,-2.302,-2.2882,-2.2355,-2.2246,-2.1732,0.0,-1.8832,-1.794,-1.7373,0.0,-1.6559,-1.7184,-1.7691,-1.8232,-1.8882,-1.9409,-1.9773,-1.9798,-1.9798,-1.9798,-1.9798,-1.9309,-1.877,-1.8242,-1.7664,-1.687,-1.5743,-1.5135,-1.4287,-1.3173,-1.2389,0.0,0.0,0.0,0.0,0.0,0.0,0.0,0.0,0.0,0.0,0.0,0.0,0.0,0.0,0.0,0.0,0.0,0.0,0.0,0.0,0.0,0.0,0.0,0.0,0.0,0.0,0.0,0.0,-1.553,-1.6446,0.0,-1.7766,-1.7641,-1.8091,-1.9422,-2.0038,-2.0715,-2.1591,-2.2585,-2.3514,-2.4406,-2.482,-2.5385,-2.6172,-2.6738,-2.7268,-2.7821,-2.8373,-2.8938,-2.9478,-2.9478,-2.9591,-2.9792,-2.9792,-2.9679,-2.9453,-2.9063,-2.8473,-2.777,-2.7369,-2.7344,-2.7494,-2.7293,-2.7344,-2.7519,-2.7519,-2.7519,-2.7442,-2.6725,-2.5586,-2.4381,-2.3627,-2.2862,-2.2372,-2.2949,-2.2698,-2.2435,-2.3201,-2.3125,-2.2857,-2.3058,-2.3108,-2.3045,-2.2857,-2.2531,-2.2133,-2.1531,-2.0238,-1.9171,-1.897,-1.8191,-1.779,-1.8355,-1.8495,-1.8771,-1.9421,-1.9685,-1.9798,-1.9798,-1.9798,-1.9798,-1.9798,-1.9309,-1.877,-1.8242,-1.7712,-1.7036,-1.6258,-1.5374,-1.4708,-1.4299,-1.3327,-1.2082,0.0,0.0,0.0,0.0,0.0,0.0,0.0,0.0,0.0,0.0,0.0,0.0,0.0,0.0,0.0,0.0,0.0,0.0,0.0,0.0,0.0,0.0,0.0,0.0,0.0,0.0,-1.6333,-1.724,-1.8355,-1.9171,-1.9547,-1.9748,-2.0313,-2.1446,-2.202,-2.2736,-2.3634,-2.423,-2.487,-2.5573,-2.5787,-2.6197,-2.6763,-2.7281,-2.7833,-2.8398,-2.895,-2.9415,-2.9792,-2.9792,-2.9792,-2.9792,-2.9792,-2.9792,-2.9792,-2.9792,-2.9352,-2.8674,-2.8674,-2.8674,-2.8674,-2.8674,-2.8674,-2.8649,-2.8448,-2.826,-2.7959,-2.7065,-2.6147,-2.531,-2.4933,-2.4418,-2.401,-2.4431,-2.413,-2.376,-2.418,-2.3853,-2.3396,-2.3396,-2.3246,-2.3108,-2.3108,-2.2819,-2.2556,-2.2556,-2.1393,-2.0313,-2.0125,-1.951,-1.9095,-1.9233,-1.9171,-1.9258,-1.9748,-1.9798,-1.9798,-1.9798,-1.9798,-1.9736,-1.956,-1.9033,-1.8494,-1.7953,-1.74,-1.6923,-1.6513,-1.563,-1.5085,-1.4896,-1.3603,-1.217,-1.0629,0.0,0.0,0.0,0.0,0.0,0.0,0.0,0.0,0.0,0.0,0.0,0.0,0.0,0.0,0.0,0.0,0.0,0.0,0.0,0.0,0.0,0.0,0.0,-1.4796,-1.6835,-1.8442,-1.9008,-2.0075,-2.0779,-2.0792,-2.1295,-2.2033,-2.307,-2.3715,-2.428,-2.4788,-2.5335,-2.5624,-2.5624,-2.6197,-2.6763,-2.7268,-2.7821,-2.8386,-2.89,-2.9515,-2.9792,-2.9792,-2.9792,-2.9792,-2.9792,-2.9792,-2.9792,-2.9792,-2.9792,-2.9792,-2.9792,-2.9792,-2.9792,-2.9792,-2.9792,-2.9792,-2.9716,-2.9113,-2.8599,-2.8047,-2.7494,-2.6964,-2.6512,-2.6499,-2.6097,-2.5624,-2.5624,-2.5247,-2.4813,-2.4813,-2.4443,-2.4017,-2.4004,-2.3534,-2.3133,-2.3108,-2.3108,-2.3108,-2.3108,-2.2272,-2.1395,-2.0842,-2.0717,-2.0503,-1.9911,-1.9811,0.0,-1.9798,-1.9798,-1.9798,-1.9798,-1.9786,-1.9572,-1.9045,-1.8481,-1.7953,-1.7436,-1.6835,-1.65,-1.65,-1.5982,-1.5449,-1.489,-1.3283,-1.1638,-1.0006,0.0,0.0,0.0,0.0,0.0,0.0,0.0,0.0,0.0,0.0,0.0,0.0,0.0,0.0,0.0,0.0,0.0,0.0,0.0,0.0,0.0,-1.4538,-1.5698,-1.6019,-1.7616,-1.9284,-2.0652,-2.1782,-2.2623,-2.3037,-2.359,-2.4029,-2.4299,-2.4858,-2.5222,-2.5372,-2.5912,-2.626,-2.626,-2.6411,-2.6763,-2.7268,-2.7821,-2.8386,-2.89,-2.9515,-2.9792,-2.9792,-2.9792,-2.9792,-2.9792,-2.9792,-2.9792,-2.9792,-2.9792,-2.9792,-2.9792,-2.9792,-2.9792,-2.9792,-2.9792,-2.9792,-2.9767,-2.9616,-2.9189,-2.8574,-2.8059,-2.7507,-2.7014,-2.6612,-2.6386,-2.626,-2.626,-2.5824,-2.5385,-2.5385,-2.4996,-2.4494,-2.4092,-2.3879,-2.364,-2.3195,-2.3108,-2.3108,-2.3108,-2.2857,-2.2481,-2.1958,-2.1219,-2.0641,-2.0478,-2.0075,0.0,-1.9798,-1.9798,-1.9798,-1.9798,-1.9447,-1.9157,-1.9008,-1.8154,-1.7574,-1.741,-1.6835,-1.65,-1.65,-1.5982,-1.5261,-1.4337,-1.3871,-1.3192,0.0,0.0,0.0,0.0,0.0,0.0,0.0,0.0,0.0,0.0,0.0,0.0,0.0,0.0,0.0,0.0,0.0,0.0,0.0,0.0,0.0,0.0,-1.6484,-1.7792,-1.8505,-1.9447,-2.0589,-2.2008,-2.292,-2.3684,-2.4293,-2.4833,-2.5146,-2.5146,-2.5649,-2.5996,-2.5996,-2.6311,-2.6499,-2.6499,-2.6499,-2.6876,-2.762,-2.7946,-2.8511,-2.9289,-2.9628,-2.9792,-2.9792,-2.9792,-2.9792,-2.9792,-2.9792,-2.9792,-2.9792,-2.9792,-2.9792,0.0,0.0,0.0,0.0,0.0,-2.9792,-2.9792,-2.9792,-2.9415,-2.8838,-2.8561,-2.7921,-2.7218,-2.6939,-2.6675,-2.6499,-2.6499,-2.6248,-2.5996,-2.5996,-2.5548,-2.5008,-2.4469,-2.4167,-2.3841,-2.3233,-2.3108,-2.3108,-2.3108,-2.3108,0.0,-2.2681,-2.1933,-2.1232,-2.0767,-2.0399,-2.0085,-1.9836,-1.9798,-1.9798,-1.9798,-1.951,-1.9233,-1.902,-1.8418,0.0,0.0,0.0,-1.6773,-1.65,-1.5982,0.0,0.0,0.0,0.0,0.0,0.0,0.0,0.0,-1.1787,-1.2274,0.0,0.0,0.0,0.0,0.0,0.0,0.0,0.0,0.0,0.0,0.0,0.0,0.0,0.0,0.0,0.0,-1.8143,-1.9735,-2.1355,-2.1631,-2.2071,-2.3083,-2.374,-2.4305,-2.4825,-2.5385,-2.5686,-2.5686,-2.6197,-2.6499,-2.6499,0.0,0.0,0.0,0.0,-2.7027,-2.8097,-2.8109,-2.8674,-2.9792,-2.9792,-2.9792,-2.9792,-2.9792,-2.9792,-2.9792,-2.9792,-2.9792,-2.9792,-2.9792,-2.9792,-2.9792,-2.9792,-2.9792,-2.9792,-2.9792,-2.9792,-2.9792,-2.9792,0.0,0.0,-2.8913,-2.8222,-2.7369,-2.7341,-2.6939,-2.6499,-2.6499,-2.6499,-2.6499,-2.6499,-2.6109,-2.5548,-2.4926,-2.4456,-2.3916,-2.3246,-2.3108,-2.3108,-2.3108,-2.3108,-2.3108,-2.3108,-2.2644,-2.1983,-2.1018,-2.0788,-2.0498,-1.9976,-1.9849,-1.9798,-1.9798,0.0,0.0,-1.9046,-1.8933,-1.8495,-1.7561,-1.7498,-1.725,-1.6701,-1.6233,-1.5944,-1.5881,-1.5487,-1.5363,-1.5511,-1.5601,-1.5938,-1.6461,-1.4358,-1.3463,0.0,0.0,0.0,0.0,0.0,0.0,0.0,0.0,0.0,0.0,0.0,0.0,0.0,0.0,0.0,-1.8155,-1.956,-2.0805,-2.1983,-2.2506,-2.3045,-2.3753,-2.4318,-2.487,-2.5398,-2.5996,-2.6336,-2.6336,-2.6436,-2.6499,-2.6499,-2.6499,-2.6499,-2.6499,-2.6499,-2.7027,-2.8097,-2.8109,-2.8674,-2.9792,0.0,0.0,-2.9792,-2.9792,-2.9792,-2.9792,-2.9792,-2.9792,-2.9792,-2.9792,-2.9792,-2.9792,-2.9792,-2.9792,-2.9792,-2.9792,-2.9792,-2.9792,-2.9792,-2.9716,-2.9553,-2.9051,-2.8486,-2.7858,-2.7419,-2.6939,0.0,-2.6499,-2.6499,-2.6499,-2.6499,-2.6411,-2.6084,-2.5059,-2.4713,-2.4349,-2.3321,-2.3108,-2.3108,-2.3108,-2.3108,-2.3108,-2.3108,-2.2644,-2.2234,-2.202,-2.1247,-2.0655,-2.054,-2.0105,-1.9798,-1.9798,-1.9404,-1.9114,-1.9016,-1.861,-1.8274,-1.8066,-1.8053,-1.799,-1.789,-1.7777,-1.7513,-1.7084,-1.7388,-1.7135,-1.6287,-1.6878,-1.6935,-1.6467,-1.518,-1.5036,0.0,0.0,0.0,0.0,0.0,0.0,0.0,0.0,0.0,0.0,0.0,-1.3928,-1.6153,0.0,-1.8003,-1.9949,-2.0953,-2.1782,-2.2581,-2.2932,-2.3421,-2.4305,-2.4625,-2.5146,-2.5984,-2.6323,-2.6499,-2.6499,-2.6499,-2.6499,-2.6499,-2.6499,-2.6499,-2.6499,-2.6763,-2.7304,-2.8097,-2.8386,-2.895,-2.9792,-2.9792,-2.9792,-2.9792,-2.9792,-2.9792,-2.9792,-2.9792,-2.9792,-2.9792,-2.9792,-2.9792,-2.9792,-2.9792,-2.9792,-2.9792,-2.9792,-2.9792,-2.9792,-2.9792,-2.9792,-2.9741,-2.9453,-2.8787,-2.8059,-2.777,-2.7153,-2.6499,-2.6499,-2.6499,-2.6499,-2.6499,-2.6499,-2.6223,-2.5084,-2.4788,-2.4474,-2.3346,-2.3108,-2.3108,-2.3108,-2.3108,-2.3108,-2.3108,-2.2882,-2.2606,-2.2347,-2.1845,-2.1317,-2.0759,-2.0438,-2.0117,-1.9837,-1.9544,-1.9404,-1.9404,-1.8896,-1.8597,-1.8594,-1.8355,-1.8204,-1.8204,-1.8204,-1.8078,-1.7802,-1.8066,-1.7922,-1.7361,-1.7717,-1.7789,-1.7574,-1.6669,-1.6334,0.0,0.0,0.0,0.0,0.0,0.0,0.0,0.0,-1.2885,-1.4985,-1.5394,-1.6028,-1.8129,-1.8857,-1.9697,-2.138,-2.202,-2.2498,-2.3032,-2.3108,-2.3484,-2.4512,-2.4725,-2.5259,-2.6386,-2.6499,-2.6499,-2.6499,-2.6499,-2.6499,-2.6499,-2.6499,-2.6549,-2.665,-2.709,-2.7595,-2.826,-2.8662,-2.9176,-2.9792,-2.9792,-2.9792,-2.9792,-2.9792,-2.9792,-2.9792,-2.9792,-2.9792,-2.9792,-2.9792,-2.9792,-2.9792,-2.9792,-2.9792,-2.9792,-2.9792,-2.9792,-2.9792,-2.9792,-2.9792,-2.9792,-2.9792,-2.9026,-2.8109,-2.8109,-2.7331,-2.6499,-2.6499,-2.6499,-2.6499,-2.6499,-2.6499,-2.6223,-2.5084,-2.4788,-2.4474,-2.3346,-2.3108,-2.3108,-2.3108,-2.3108,-2.3108,-2.3108,-2.3108,-2.2957,-2.2506,-2.2365,-2.2005,-2.1109,-2.0835,-2.0515,-2.0028,-1.9888,-1.9798,-1.9798,-1.9384,-1.9158,-1.9158,-1.8756,-1.8518,-1.8518,-1.8518,-1.8518,-1.8518,-1.8518,-1.8518,-1.8518,-1.8518,-1.8639,-1.8905,-1.8294,-1.7481,-1.379,-1.4137,-1.4873,-1.4696,-1.4802,-1.5034,0.0,0.0,-1.5267,-1.6952,-1.7197,-1.7637,-1.9309,-1.9673,-2.0263,-2.1945,-2.2272,-2.2498,-2.3032,-2.3108,-2.3346,-2.4017,-2.4519,-2.5259,-2.6386,-2.6499,-2.6499,-2.6499,-2.6499,-2.6499,-2.6499,-2.6499,-2.6713,-2.7216,-2.7291,-2.7783,-2.8787,-2.8863,-2.9176,-2.9792,-2.9792,-2.9792,-2.9792,-2.9792,-2.9792,-2.9792,-2.9792,-2.9792,-2.9792,-2.9792,-2.9792,-2.9792,-2.9792,-2.9792,-2.9792,-2.9792,-2.9792,-2.9792,-2.9792,-2.9792,-2.9792,-2.9792,-2.9026,-2.8109,-2.8109,-2.7331,-2.6499,-2.6499,-2.6499,-2.6499,-2.6499,-2.6499,-2.6223,-2.5084,-2.4788,-2.4474,-2.3346,-2.3108,-2.3108,-2.3108,-2.3108,-2.3108,-2.3108,-2.3108,-2.3083,-2.302,-2.2613,-2.226,-2.2122,-2.1279,-2.0656,-2.0605,-2.0117,-1.9798,-1.9798,-1.9748,-1.971,-1.971,-1.966,-1.9623,-1.9623,-1.9623,-1.9623,-1.9623,-1.9623,-1.9623,-1.9623,-1.9623,-1.9649,-1.9681,-1.9593,-1.8459,-1.6099,-1.6275,-1.6771,0.0,-1.7603,-1.761,-1.7799,-1.739,-1.7342,-1.8516,-1.853,-1.8844,-2.0489,-2.0778,-2.1217,0.0,-2.2757,-2.2844,-2.307,-2.3108,-2.3321,-2.3929,-2.4205,-2.477,-2.5883,-2.5996,-2.6135,-2.6461,-2.6499,-2.6499,-2.6499,-2.6499,-2.6751,-2.7268,-2.7595,-2.8134,-2.8888,-2.9264,-2.9553,-2.9792,-2.9792,-2.9792,-2.9792,-2.9792,-2.9792,-2.9792,-2.9792,-2.9792,-2.9792,-2.9792,-2.9792,-2.9792,-2.9792,-2.9792,-2.9792,-2.9792,-2.9792,-2.9792,-2.9792,-2.9792,-2.9741,-2.9402,-2.875,-2.8047,-2.772,-2.7115,-2.6499,-2.6499,-2.6499,-2.6499,-2.6499,-2.6248,-2.5774,-2.5008,-2.4569,-2.4117,-2.3283,-2.3108,-2.3108,-2.3108,-2.3108,-2.3108,-2.3108,-2.3108,-2.3108,-2.3108,-2.2912,-2.2524,-2.1919,-2.1434,-2.0921,-2.0244,-1.9938,-1.9798,-1.9798,-1.9798,-1.9798,-1.9798,-1.9798,-1.9798,-1.9798,-1.9798,-1.9798,-1.9798,-1.9798,-1.9798,-1.9798,-1.9798,-1.9787,-1.9788,-1.9788,-1.9309,-1.7878,-1.8117,0.0,-1.9527,-1.9736,-1.9725,-1.9892,-1.9435,-1.9173,-1.9845,-1.9642,-1.9737,-2.1083,-2.1421,-2.1794,-2.2732,-2.3007,-2.3108,-2.3108,-2.3108,-2.3258,-2.3715,-2.3753,-2.413,-2.5071,-2.5423,-2.5774,-2.6223,-2.6411,-2.6499,-2.6499,-2.6499,-2.6813,-2.7494,-2.7896,-2.8448,-2.9126,-2.9578,-2.9792,-2.9792,-2.9792,-2.9792,-2.9792,-2.9792,-2.9792,-2.9792,-2.9792,-2.9792,-2.9792,-2.9792,-2.9792,-2.9792,-2.9792,-2.9792,-2.9792,-2.9792,-2.9792,-2.9792,-2.9792,-2.9691,-2.9478,-2.9026,-2.8448,-2.7808,-2.7406,-2.6939,-2.6499,-2.6499,-2.6499,-2.6461,-2.6298,-2.5946,-2.5423,-2.4757,-2.4293,-2.3841,-2.3233,-2.3108,-2.3108,-2.3108,-2.3108,-2.3108,-2.3108,-2.3108,-2.3108,-2.3108,-2.297,-2.2594,-2.182,-2.1462,-2.0896,-1.991,-1.9798,-1.9798,-1.9798,-1.9798,-1.9798,-1.9798,-1.9798,-1.9798,-1.9798,-1.9798,-1.9798,-1.9798,-1.9798,-1.9798,-1.9798,-1.9798,-1.9798,-1.9798,-1.9798,-1.9798,-1.8311,-1.9136,-1.9761,-2.0321,-2.0799,-2.1201,-2.147,-2.1061,-2.0702,-2.0906,-2.0534,-2.0322,-2.0815,-2.1224,-2.1681,-2.2246,-2.2757,-2.3108,-2.3108,-2.3108,-2.3108,-2.3133,-2.3133,-2.3358,-2.3991,-2.4983,-2.5598,-2.5624,-2.6172,-2.6499,-2.6499,-2.6499,-2.6989,-2.8047,-2.8097,-2.8637,-2.9754,-2.9779,-2.9792,-2.9792,-2.9792,-2.9792,-2.9792,-2.9792,-2.9792,-2.9792,-2.9792,-2.9792,-2.9792,-2.9792,-2.9792,-2.9792,-2.9792,-2.9792,-2.9792,-2.9792,-2.9792,-2.9792,-2.9792,-2.9428,-2.8913,-2.89,-2.8197,-2.7306,-2.7293,-2.6939,-2.6499,-2.6499,-2.6499,-2.6361,-2.5774,-2.5611,-2.5322,-2.428,-2.4004,-2.3841,-2.3233,-2.3108,-2.3108,-2.3108,-2.3108,-2.3108,-2.3108,-2.3108,-2.3108,-2.3108,-2.2656,-2.2293,-2.2284,-2.1356,-2.048,-1.9874,-1.9798,-1.9798,-1.9798,-1.9798,-1.9798,-1.9798,-1.9798,-1.9798,-1.9798,-1.9798,-1.9798,-1.9798,-1.9798,-1.9798,-1.9798,-1.9798,-1.9798,-1.9798,-1.9798,-1.9798,-1.9121,0.0,-2.0632,-2.1705,-2.2077,-2.2295,-2.2651,-2.2369,-2.1958,-2.1714,-2.0807,-2.0299,-2.1029,-2.0726,-2.079,-2.2096,-2.2443,-2.2681,-2.3058,-2.3108,-2.3108,-2.3108,-2.3108,0.0,-2.3941,0.0,0.0,-2.5573,-2.6172,-2.6499,-2.6499,-2.6499,-2.6839,-2.7544,-2.7908,-2.8461,-2.9214,-2.9603,-2.9792,-2.9792,-2.9792,-2.9792,-2.9792,-2.9792,-2.9792,-2.9792,-2.9792,-2.9792,-2.9792,-2.9792,-2.9792,-2.9754,-2.9365,-2.9176,-2.9176,-2.8812,-2.8674,-2.8725,-2.9089,-2.885,-2.8323,-2.7959,-2.7582,-2.7218,-2.6889,-2.6637,-2.6499,-2.6499,-2.6223,-2.5871,-2.5649,-2.5071,-2.4443,-2.4079,-2.3703,-2.3346,-2.3145,-2.3108,-2.3108,-2.3108,-2.3108,-2.3108,-2.3108,-2.3108,-2.2857,-2.2159,-2.1882,-2.1631,-2.1295,-2.0575,-2.0048,-1.9823,-1.9798,-1.9798,-1.9798,-1.9798,-1.9798,-1.9798,-1.9798,-1.9798,-1.9798,-1.9798,-1.9798,-1.9798,-1.9798,-1.9798,-1.9798,-1.9798,-1.9798,-1.9798,-1.9798,-1.9798,-2.0172,-2.1066,-2.1889,-2.2538,-2.3047,-2.3372,-2.3377,-2.2907,-2.2341,-2.1879,-2.0712,-1.9929,-2.0365,-2.0093,-2.0225,-2.1518,-2.2058,-2.2498,-2.3032,-2.3108,-2.3108,-2.3108,-2.3283,-2.3559,0.0,0.0,0.0,-2.5573,-2.6172,-2.6499,-2.6499,-2.6499,-2.6751,-2.7268,-2.762,-2.8172,-2.8888,-2.9302,-2.9591,-2.9792,-2.9792,-2.9792,-2.9792,-2.9792,-2.9792,-2.9792,-2.9792,-2.9792,-2.9792,-2.9792,-2.9666,-2.9453,-2.9038,-2.8762,-2.8549,-2.8235,-2.7984,-2.7896,-2.8448,-2.8273,-2.7758,-2.7394,-2.719,-2.6952,-2.66,-2.6499,-2.6499,-2.6499,-2.6223,-2.5812,-2.5423,-2.4808,-2.4192,-2.3791,-2.3371,-2.3108,-2.3108,-2.3108,-2.3108,-2.3108,-2.3108,-2.3108,-2.3108,-2.3108,-2.2732,-2.1656,-2.1493,-2.1245,-2.0478,-2.0037,-1.9798,-1.9798,-1.9798,-1.9798,-1.9798,-1.9798,-1.9798,-1.9798,-1.9798,-1.9798,-1.9798,-1.9798,-1.9798,-1.9798,-1.9798,-1.9798,-1.9798,-1.9798,-1.9798,-1.9798,-1.9798,-1.9798,-2.144,-2.2727,-2.355,-2.2957,-2.3714,-2.4403,-2.3635,-2.2766,-2.1974,-2.1454,-2.0274,-1.9235,0.0,0.0,-1.9886,-2.0541,-2.1543,-2.246,-2.2982,-2.3083,-2.3108,0.0,0.0,0.0,0.0,0.0,0.0,-2.5636,0.0,-2.6499,-2.6499,-2.6499,-2.6738,-2.7218,-2.7304,-2.7783,-2.88,-2.8838,-2.9176,-2.9741,-2.9716,-2.9729,-2.9741,-2.9741,-2.9767,-2.9792,-2.9792,-2.9792,-2.9792,-2.9792,-2.9465,-2.8925,-2.8875,-2.8561,-2.8097,-2.8047,-2.7695,-2.7318,-2.7846,-2.767,-2.7278,-2.7278,-2.6914,-2.6499,-2.6499,-2.6499,-2.6499,-2.6499,-2.6474,-2.6197,-2.5096,-2.4763,-2.4474,-2.3358,-2.3108,-2.3108,-2.3108,-2.3108,-2.3108,-2.3108,-2.3108,-2.3108,-2.3108,-2.3108,-2.2732,-2.1656,-2.1493,-2.1079,-1.9949,-1.9798,-1.9798,-1.9798,-1.9798,-1.9798,-1.9798,-1.9798,-1.9798,-1.9798,-1.9798,-1.9798,-1.9798,-1.9798,-1.9798,-1.9798,-1.9798,-1.9798,-1.9798,-1.9798,-1.9798,-1.9798,-1.9798,-1.9798,-2.2892,-2.4088,-2.4941,-2.4276,-2.4365,-2.4306,-2.3155,-2.2724,-2.2141,-2.0727,-1.9442,-1.8536,0.0,0.0,0.0,-1.9798,-2.0966,0.0,-2.2447,-2.2844,0.0,-2.3728,0.0,-2.4305,-2.5109,-2.5435,0.0,0.0,-2.6411,-2.6499,-2.6499,-2.6499,-2.6562,-2.67,-2.7102,-2.7419,-2.7708,-2.8109,-2.8599,-2.9101,-2.8737,-2.875,-2.9151,-2.9151,-2.939,-2.9792,-2.9792,-2.9792,-2.9792,-2.9792,-2.9704,-2.949,-2.8649,-2.8235,-2.8009,-2.718,-2.6826,-2.6725,-2.6864,-2.6826,-2.67,-2.67,-2.6612,-2.6499,-2.6499,-2.6499,-2.6499,-2.6499,-2.6185,-2.5661,-2.4996,-2.4519,-2.4029,-2.3283,-2.3108,-2.3108,-2.3108,-2.3108,-2.3108,-2.3108,-2.3108,-2.3108,-2.3108,-2.3108,-2.2732,-2.1656,-2.1493,-2.1079,-1.9949,-1.9798,-1.9798,-1.9798,-1.9798,-1.9798,-1.9798,-1.9798,-1.9798,-1.9798,-1.9798,-1.9798,-1.9798,-1.9798,-1.9798,-1.9798,-1.9798,-1.9798,-1.9798,-1.9798,-1.9798,-1.9798,-1.9798,-1.9798,-2.3879,-2.4807,-2.545,-2.4769,-2.4605,-2.4261,-2.3002,-2.2254,-2.1436,-2.005,-1.8579,0.0,-1.731,-1.7195,0.0,0.0,0.0,0.0,-2.2445,-2.2923,-2.3463,0.0,-2.4643,0.0,-2.5985,-2.6291,-2.6573,0.0,-2.6658,-2.6499,-2.6499,-2.6499,-2.6499,-2.6499,-2.6788,-2.7065,-2.7281,-2.7821,-2.826,-2.8561,-2.8247,-2.8273,-2.8574,-2.8787,-2.9063,-2.9428,0.0,-2.9792,-2.9792,-2.9792,-2.9641,-2.9352,-2.8712,-2.8172,-2.767,-2.709,-2.67,-2.6499,-2.6499,-2.6499,-2.6499,-2.6499,-2.6499,-2.6499,-2.6499,-2.6499,-2.6499,-2.6499,-2.626,-2.5799,-2.5021,-2.4594,-2.4155,-2.3296,-2.3108,-2.3108,-2.3108,-2.3108,-2.3108,-2.3108,-2.3108,-2.3108,-2.3108,-2.3108,-2.2807,-2.1983,-2.1845,-2.1531,-2.0652,-2.0112,-1.9798,-1.9798,-1.9798,-1.9798,-1.9798,-1.9798,-1.9798,-1.9798,-1.9798,-1.9798,-1.9798,-1.9798,-1.9798,-1.9798,-1.9798,-1.9798,-1.9798,-1.9798,-1.9798,-1.9798,-1.9798,-1.9798,-2.447,-2.5143,-2.5555,-2.4784,-2.453,-2.4111,-2.2763,-2.1395,-2.0124,-1.9023,0.0,-1.6278,-1.5887,-1.6251,-1.6995,-1.8144,0.0,-2.0811,-2.2615,-2.3175,-2.3839,-2.5133,-2.5695,-2.6248,-2.6939,-2.742,-2.7709,-2.7709,-2.7142,-2.6748,-2.6589,-2.6589,-2.6555,-2.6555,-2.6568,-2.682,-2.7339,-2.7718,-2.7957,-2.7996,-2.7921,-2.7959,-2.8122,-2.8562,-2.8863,-2.9038,-2.9578,-2.9792,-2.9792,-2.9792,-2.9503,-2.9001,-2.8913,-2.8298,-2.7381,-2.7341,-2.6964,-2.6499,-2.6499,-2.6499,-2.6499,-2.6499,-2.6499,-2.6499,-2.6499,-2.6499,-2.6499,-2.6499,-2.6436,-2.6147,-2.5096,-2.4738,-2.4412,-2.3358,-2.3108,-2.3108,-2.3108,-2.3108,-2.3108,-2.3108,-2.3108,-2.3108,-2.3108,-2.3108,-2.292,-2.2397,-2.2309,-2.2121,-2.1556,-2.0627,-2.0024,-2.0024,-1.9962,-1.9911,-1.9911,-1.9849,-1.9798,-1.9798,-1.9798,-1.9798,-1.9798,-1.9798,-1.9798,-1.9798,-1.9798,-1.9798,-1.9798,-1.9798,-1.9798,-1.9798,-1.9798,-1.9798,-2.4724,-2.5486,-2.6138,-2.4903,-2.4171,-2.3295,-2.145,-2.0019,0.0,0.0,-1.5733,-1.5232,-1.4828,-1.5296,-1.6108,-1.7303,-1.8937,-2.0556,-2.2043,-2.3365,-2.486,0.0,-2.6914,-2.7393,-2.8488,-2.8693,0.0,0.0,0.0,-2.8163,-2.7201,-2.6985,-2.6905,-2.6905,-2.6897,-2.7165,-2.7701,-2.7183,-2.7107,-2.7419,-2.7002,-2.7218,-2.8109,-2.821,-2.8762,-2.9641,-2.9741,0.0,-2.9792,-2.9792,-2.9729,-2.9591,-2.9076,-2.8536,-2.7908,-2.7444,-2.6964,-2.6499,-2.6499,-2.6499,-2.6499,-2.6499,-2.6499,-2.6499,-2.6499,-2.6499,-2.6499,-2.6499,-2.6147,-2.5598,-2.4983,-2.4481,-2.3966,-2.3271,-2.3108,-2.3108,-2.3108,-2.3108,-2.3108,-2.3108,-2.3108,-2.3108,-2.3108,-2.3108,-2.292,-2.2397,-2.2309,-2.2121,-2.1556,-2.1317,-2.1192,-2.1192,-2.0817,-2.0541,-2.0541,-2.0075,-1.9798,-1.9798,-1.9798,-1.9798,-1.9798,-1.9798,-1.9798,-1.9798,-1.9798,-1.9798,-1.9798,-1.9798,-1.9798,-1.9798,-1.9798,-1.9798,-2.459,-2.5068,-2.5397,-2.4769,-2.3864,-2.2697,-2.1062,0.0,0.0,0.0,-1.4848,-1.4213,-1.4246,-1.4566,0.0,-1.6986,-1.8211,-1.9696,-2.1801,-2.3142,0.0,-2.6933,-2.7509,-2.8213,0.0,0.0,0.0,0.0,0.0,-2.9093,-2.798,-2.7597,-2.741,-2.7364,-2.739,-2.752,-2.7754,-2.7237,-2.6909,-2.6889,-2.6914,-2.7203,-2.7695,-2.8273,-2.8825,-2.9365,-2.9666,-2.9792,-2.9792,-2.9792,-2.9792,-2.9767,-2.949,-2.8863,-2.8072,-2.7808,-2.718,-2.6499,-2.6499,-2.6499,-2.6499,-2.6499,-2.6499,-2.6499,-2.6499,-2.6499,-2.6499,-2.6499,-2.6084,-2.5473,-2.4926,-2.4406,-2.3853,-2.3246,-2.3108,-2.3108,-2.3108,-2.3108,-2.3108,-2.3108,-2.3108,-2.3108,-2.3108,-2.3108,-2.3007,-2.2757,-2.2706,-2.2606,-2.2385,-2.2347,-2.2121,-2.1543,-2.1282,-2.1006,-2.0717,-2.044,-2.0125,-1.9823,-1.9798,-1.9798,-1.9798,-1.9798,-1.9798,-1.9798,-1.9798,-1.9798,-1.9798,-1.9798,-1.9798,-1.9798,-1.9798,-1.9798,-2.4231,-2.4485,-2.453,-2.4261,-2.3325,-2.2104,-2.0617,-1.873,0.0,0.0,-1.418,-1.3362,-1.3653,0.0,-1.4738,0.0,-1.7463,-1.8938,-2.153,-2.2921,-2.462,0.0,-2.8107,0.0,-3.0287,0.0,0.0,0.0,0.0,0.0,-2.8634,-2.8254,-2.8026,-2.7934,-2.8026,-2.8026,-2.7934,-2.7584,-2.7209,-2.6726,-2.7135,-2.7478,-2.7731,-2.8568,-2.91,-2.9403,-2.9859,-3.0049,-3.0049,-3.0023,-2.9985,-2.9921,-2.9731,-2.9026,-2.8097,-2.7971,-2.7306,-2.6499,-2.6499,-2.6499,-2.6499,-2.6499,-2.6499,-2.6499,-2.6499,-2.6499,-2.6499,-2.6499,-2.5996,-2.5335,-2.4888,-2.4318,-2.3703,-2.3208,-2.3108,-2.3108,-2.3108,-2.3108,-2.3108,-2.3108,-2.3108,-2.3108,-2.3108,-2.3108,-2.3108,-2.3108,-2.3108,-2.3108,-2.3108,-2.3108,-2.2782,-2.1933,-2.1732,-2.1493,-2.1081,-2.083,-2.0503,-2.0012,-1.9874,-1.9798,-1.9798,-1.9798,-1.9798,-1.9798,-1.9798,-1.9798,-1.9798,-1.9798,-1.9798,-1.9798,-1.9798,-1.9798,-2.3684,-2.4126,-2.4321,-2.3167,-2.2343,-2.1276,-1.9331,0.0,-1.5589,-1.4232,-1.3366,-1.2826,-1.2743,-1.349,-1.437,0.0,0.0,-1.8828,0.0,-2.3142,-2.5497,-2.8148,0.0,0.0,0.0,0.0,0.0,0.0,0.0,0.0,-2.8853,-2.8881,-2.8894,-2.8693,-2.8881,-2.8894,-2.8693,-2.8384,-2.7941,-2.739,-2.7455,-2.8014,-2.9015,-2.9132,-2.978,-3.0796,-3.0885,-3.0874,0.0,-3.0698,-3.0495,-3.0279,-2.9529,-2.8773,-2.8047,-2.7544,-2.7014,-2.6499,-2.6499,-2.6499,-2.6499,-2.6499,-2.6499,-2.6499,-2.6499,-2.6499,-2.6499,-2.6499,-2.5699,-2.485,-2.48,-2.3998,-2.317,-2.3108,-2.3108,-2.3108,-2.3108,-2.3108,-2.3108,-2.3108,-2.3108,-2.3108,-2.3108,-2.3108,-2.3108,-2.3108,-2.3108,-2.3108,-2.3108,-2.3108,-2.3058,-2.2957,-2.2506,-2.2221,-2.2171,-2.127,-2.0666,-2.0616,-2.0087,-1.9798,-1.9798,-1.9798,-1.9798,-1.9798,-1.9798,-1.9798,-1.9798,-1.9798,-1.9798,-1.9798,-1.9798,-1.9798,-2.2853,-2.352,-2.3789,-2.2927,-2.1874,-2.0677,-1.9076,0.0,-1.4931,-1.3989,-1.2942,-1.228,-1.2592,-1.3213,-1.4051,-1.5154,-1.6673,-1.839,-2.0479,-2.2631,0.0,0.0,0.0,0.0,0.0,0.0,0.0,0.0,0.0,0.0,-3.007,-2.9901,-2.9777,-2.9718,-2.9777,-2.9777,-2.9687,-2.9359,-2.8949,-2.8422,-2.8722,-2.9126,-2.9578,-3.0314,-3.0907,-3.1379,-3.178,-3.1965,0.0,-3.1663,-3.1095,-3.0325,-2.9785,-2.8789,-2.7582,-2.7369,-2.6964,-2.6499,-2.6499,-2.6499,-2.6499,-2.6499,-2.6499,-2.6499,-2.6499,-2.6499,-2.6424,-2.6072,-2.5398,-2.4713,-2.4406,-2.3697,-2.3108,-2.3108,-2.3108,-2.3108,-2.3108,-2.3108,-2.3108,-2.3108,-2.3108,-2.3108,-2.3108,-2.3108,-2.3108,-2.3108,-2.3108,-2.3108,-2.3108,-2.3108,-2.3108,-2.3108,-2.2907,-2.2644,-2.2334,-2.1907,-2.1408,-2.0729,-2.0478,-2.0189,-1.9823,-1.9798,-1.9798,-1.9798,-1.9798,-1.9798,-1.9798,-1.9798,-1.9798,-1.9798,-1.9798,-1.9798,-2.1804,-2.2562,-2.2892,-2.2248,-2.1246,-2.0064,0.0,-1.6533,-1.4603,-1.3944,-1.2732,-1.1929,-1.2365,-1.3028,-1.3846,0.0,-1.6408,-1.8064,-1.9726,-2.1909,0.0,0.0,0.0,0.0,0.0,0.0,0.0,0.0,0.0,0.0,-3.1029,-3.0792,-3.0583,-3.045,-3.0523,-3.0523,-3.045,-3.0176,-2.9794,-2.9331,-2.97,-2.9974,-3.0183,-3.1046,-3.1499,-3.168,-3.2145,-3.2361,0.0,-3.2005,-3.1314,-3.037,-2.9784,-2.8666,-2.7432,-2.7268,-2.6965,-2.6658,-2.6726,-2.676,-2.6794,-2.676,-2.6692,-2.6658,-2.6636,-2.6442,-2.616,-2.5711,-2.5109,-2.4456,-2.3891,-2.3409,-2.3108,-2.3108,-2.3108,-2.3108,-2.3108,-2.3108,-2.3108,-2.3108,-2.3108,-2.3108,-2.3108,-2.3108,-2.3108,-2.3108,-2.3108,-2.3108,-2.3108,-2.3108,-2.3108,-2.3108,-2.3108,-2.2945,-2.2556,-2.2397,-2.1983,-2.1232,-2.088,-2.0515,-2.0075,-1.9899,-1.9798,-1.9798,-1.9798,-1.9798,-1.9798,-1.9798,-1.9886,-2.0062,-2.0062,-2.0137,-2.0543,-2.1216,-2.156,-2.0882,-2.0213,-1.9346,-1.8012,-1.6189,-1.4603,-1.3944,-1.2732,-1.1805,-1.1805,-1.29,-1.3797,-1.3812,-1.6009,-1.7938,-1.8627,-2.1006,0.0,0.0,0.0,0.0,0.0,0.0,0.0,0.0,0.0,0.0,-3.1511,-3.1511,-3.1278,-3.0807,-3.0999,-3.0999,-3.0807,-3.0657,-3.0417,-3.0099,-3.0099,-3.0411,-3.0976,-3.0991,-3.1286,-3.1809,-3.1809,-3.1809,0.0,-3.1448,-3.1001,-3.0392,-2.9315,-2.8441,-2.7741,-2.7182,-2.7011,-2.7007,-2.7222,-2.7369,-2.7469,-2.7335,-2.7154,-2.6973,-2.7011,-2.6333,-2.5598,-2.5598,-2.4833,-2.3879,-2.3258,-2.3108,-2.3108,-2.3108,-2.3108,-2.3108,-2.3108,-2.3108,-2.3108,-2.3108,-2.3108,-2.3108,-2.3108,-2.3108,-2.3108,-2.3108,-2.3108,-2.3108,-2.3108,-2.3108,-2.3108,-2.3108,-2.3108,-2.3108,-2.3095,-2.2594,-2.2309,-2.2297,-2.1295,-2.0691,-2.0679,-2.0138,-1.9798,-1.9798,-1.9798,-1.9798,-1.9798,-1.9798,-2.01,-2.0679,-2.0679,-2.0981,-1.9148,-1.9824,-2.0168,-1.951,-1.882,-1.7999,-1.6698,-1.5216,-1.3929,-1.3253,-1.2403,-1.1805,-1.1805,-1.2897,-1.3797,-1.3797,-1.5994,0.0,0.0,0.0,0.0,0.0,0.0,0.0,0.0,0.0,0.0,0.0,0.0,0.0,-3.1511,-3.1511,-3.1438,-3.1278,-3.1322,-3.1322,-3.1278,-3.1234,-3.1176,-3.1073,-3.1073,-3.1161,-3.1353,-3.1824,-3.2134,-3.2295,-3.2752,-3.2974,-3.2943,-3.2596,-3.1878,-3.091,-3.0109,-2.8939,-2.7732,-2.7575,-2.751,-2.7517,-2.7861,-2.8208,-2.8473,-2.8228,-2.7835,-2.7484,-2.7523,-2.6788,-2.5843,-2.5286,-2.4589,-2.4012,-2.3819,-2.3767,-2.3767,-2.3767,-2.3767,-2.3767,-2.3767,-2.3767,-2.3767,-2.3767,-2.3717,-2.3611,-2.348,-2.336,-2.3271,-2.3108,-2.3108,-2.3108,-2.3108,-2.3108,-2.3108,-2.3108,-2.3108,-2.3108,-2.3108,-2.2945,-2.2681,-2.2305,-2.1983,-2.1619,-2.127,-2.1054,-2.0778,-2.0427,-2.0792,-2.0765,-2.0415,-2.0765,-2.1054,-2.1257,-2.1257,-2.1518,-1.7056,-1.7731,-1.812,-1.7716,-1.7101,-1.6398,-1.5604,-1.4391,-1.3301,-1.2891,-1.2265,-1.1805,-1.1805,-1.2897,-1.3797,-1.3797,-1.5994,-1.8072,0.0,0.0,0.0,0.0,0.0,0.0,0.0,0.0,0.0,0.0,0.0,0.0,-3.1511,-3.1511,-3.1511,-3.1511,-3.1511,-3.1511,-3.1511,-3.1511,-3.1511,-3.1511,-3.1511,-3.1511,-3.1511,-3.1929,-3.2108,-3.2138,-3.2572,-3.2766,0.0,-3.248,-3.1835,-3.0984,-3.0392,-2.9329,-2.8143,-2.8235,-2.8222,-2.8163,-2.8629,-2.9062,-2.9362,-2.9016,-2.8615,-2.8168,-2.7935,-2.7088,-2.6073,-2.5299,-2.4847,-2.4595,-2.4595,-2.4595,-2.4595,-2.4595,-2.4595,-2.4595,-2.4595,-2.4595,-2.4595,-2.4595,-2.4408,-2.4189,-2.3897,-2.3704,-2.3467,-2.3138,-2.3108,-2.3108,-2.3108,-2.3108,-2.3108,-2.3108,-2.3108,-2.3108,-2.3108,-2.3108,-2.2957,-2.2606,-2.2393,-2.2159,-2.1807,-2.1594,-2.1358,-2.1018,-2.1345,-2.1345,-2.1006,-2.1531,-2.1794,-2.1807,-2.202,-2.2297,0.0,-1.5184,-1.5739,-1.5784,-1.529,-1.4796,-1.4751,-1.3732,0.0,-1.2741,-1.2235,-1.1805,-1.1865,-1.2942,-1.3827,-1.3929,-1.6099,-1.8042,0.0,-2.131,0.0,0.0,0.0,0.0,0.0,0.0,0.0,0.0,0.0,0.0,-3.1511,-3.1511,-3.1511,-3.1511,-3.1511,-3.1511,-3.1511,-3.1511,-3.1511,-3.1511,-3.1511,-3.1511,-3.1511,-3.1511,-3.1511,0.0,-3.1511,-3.1511,-3.1511,-3.138,-3.1117,-3.0807,-3.0328,-2.9654,-2.8917,-2.9117,-2.9071,-2.898,-2.9484,-2.9901,-3.016,-2.9777,-2.9449,-2.9038,-2.8247,-2.7278,-2.6377,-2.5714,-2.5495,-2.5453,-2.5453,-2.5453,-2.5453,-2.5453,-2.5453,-2.5453,-2.5453,-2.5453,-2.5453,-2.5453,-2.5189,-2.4839,-2.4423,-2.4105,-2.3725,-2.3245,-2.3168,-2.3168,-2.3168,-2.3168,-2.3168,-2.3168,-2.3168,-2.3138,-2.3138,-2.3108,-2.3108,-2.3108,-2.2631,-2.2372,-2.2372,-2.1882,-2.1594,-2.1543,-2.1543,-2.1568,-2.1606,-2.2121,-2.2372,-2.2355,-2.2869,-2.3108,-1.334,0.0,-1.5155,-1.5679,-1.529,-1.4676,0.0,-1.3388,-1.2639,-1.2145,0.0,-1.1954,-1.2475,-1.3241,-1.4139,-1.5155,-1.7086,-1.9061,-2.0752,0.0,0.0,0.0,0.0,0.0,0.0,0.0,0.0,0.0,0.0,-3.1511,-3.1511,-3.1511,-3.1511,-3.1511,-3.1511,-3.1511,-3.1511,-3.1511,-3.1511,-3.1511,-3.1511,-3.1511,-3.1511,-3.1511,-3.1511,-3.1511,-3.1511,-3.1511,-3.1511,-3.1467,-3.1409,-3.1307,-3.094,-3.0434,-2.9964,-3.0007,-2.9993,-2.9995,-3.0374,-3.0792,-3.1073,-3.0374,-3.0085,-2.9893,-2.9163,-2.8243,-2.7318,-2.6975,-2.6478,-2.6095,-2.6095,-2.6095,-2.6095,-2.6095,-2.6095,-2.6095,-2.6095,-2.6095,-2.6095,-2.6095,-2.5865,-2.5536,-2.5077,-2.4751,-2.4421,-2.3956,-2.3855,-2.3855,-2.3855,-2.3855,-2.3855,-2.3855,-2.3776,-2.3641,-2.3509,-2.3258,-2.3108,-2.3108,-2.2982,-2.2907,-2.2907,-2.2782,-2.2518,-2.2133,-2.2121,-2.2293,-2.2719,-2.2844,-2.2907,-2.292,-2.3045,-2.3108,-1.3416,-1.3749,-1.4047,-1.4706,-1.4376,-1.3792,-1.3421,0.0,0.0,0.0,0.0,-1.237,-1.2729,-1.3852,-1.505,-1.6054,-1.7864,0.0,0.0,0.0,0.0,0.0,0.0,0.0,0.0,0.0,0.0,0.0,0.0,-3.1511,-3.1511,-3.1511,-3.1511,-3.1511,-3.1511,-3.1511,-3.1511,-3.1511,-3.1511,-3.1511,-3.1511,-3.1511,-3.1511,-3.1511,-3.1511,-3.1511,-3.1511,-3.1511,-3.1511,-3.1511,-3.1511,-3.1467,-3.1219,-3.0896,-3.0524,-3.0628,-3.0613,-3.0584,-3.0896,-3.119,-3.1307,-3.0718,-3.0598,-3.0599,-3.0132,-2.9479,-2.8742,-2.8079,-2.7649,-2.7284,-2.6977,-2.6904,-2.6904,-2.6904,-2.6904,-2.6904,-2.6904,-2.6904,-2.6904,-2.6904,-2.6683,-2.6338,-2.5878,-2.5577,-2.5258,-2.4766,-2.4709,-2.4709,-2.4709,-2.4709,-2.4709,-2.4709,-2.4481,-2.4234,-2.3956,-2.3619,-2.3322,-2.3108,-2.3108,-2.3108,-2.3108,-2.3108,-2.2957,-2.2669,-2.2656,-2.2807,-2.3108,-2.3108,-2.3108,-2.3108,-2.3108,-2.3108,-1.4022,-1.3774,-1.3314,-1.397,-1.3688,-1.3235,-1.313,0.0,0.0,0.0,0.0,0.0,0.0,-1.4721,0.0,0.0,0.0,0.0,0.0,0.0,0.0,0.0,0.0,0.0,0.0,0.0,0.0,0.0,0.0,-3.1511,-3.1511,-3.1511,-3.1511,-3.1511,-3.1511,-3.1511,-3.1511,-3.1511,-3.1511,-3.1511,-3.1511,-3.1511,-3.1511,-3.1511,-3.1511,-3.1511,0.0,0.0,-3.1511,-3.1511,-3.1511,-3.1511,-3.138,-3.1161,-3.094,-3.1102,-3.1058,-3.097,-3.1219,-3.1322,-3.1278,-3.0999,-3.1014,-3.1132,-3.097,-3.0718,-3.0264,-2.9194,-2.8757,-2.8472,-2.7899,-2.7675,-2.76,-2.76,-2.76,-2.76,-2.76,-2.76,-2.76,-2.76,-2.7397,-2.7089,-2.6642,-2.6363,-2.6041,-2.5591,-2.5536,-2.5536,-2.5536,-2.5536,-2.5536,-2.5536,-2.5245,-2.4881,-2.4481,-2.4134,-2.3754,-2.3275,-2.3168,-2.3108,-2.3108,-2.3108,-2.3108,-2.3108,-2.3108,-2.3108,-2.3108,-2.3108,-2.3108,-2.3108,-2.3108,-2.3108,-1.4264,-1.469,-1.4944,-1.5459,-1.5466,-1.5199,-1.4616,0.0,0.0,0.0,0.0,0.0,0.0,-1.6009,-1.7145,0.0,0.0,-2.4627,0.0,0.0,-2.9669,0.0,0.0,0.0,0.0,0.0,0.0,0.0,0.0,-3.1511,-3.1511,-3.1511,-3.1511,-3.1511,-3.1511,-3.1511,-3.1511,-3.1511,-3.1511,-3.1511,-3.1511,-3.1511,-3.1511,-3.1511,-3.1511,-3.1511,0.0,-3.1511,-3.1511,-3.1511,-3.1511,-3.1511,-3.1467,-3.1438,-3.1409,-3.1424,-3.1409,-3.1409,-3.1438,-3.1467,-3.1467,-3.1409,-3.1409,-3.1424,-3.1409,-3.1363,-3.1153,-3.0432,-2.943,-2.8577,-2.8472,-2.8034,-2.76,-2.76,-2.76,-2.76,-2.76,-2.76,-2.76,-2.76,-2.7488,-2.7258,-2.689,-2.6707,-2.651,-2.6203,-2.6149,-2.6149,-2.6149,-2.6149,-2.6149,-2.6149,-2.592,-2.5564,-2.5091,-2.4821,-2.445,-2.3985,-2.3395,-2.3108,-2.3108,-2.3108,-2.3108,-2.3108,-2.3108,-2.3108,-2.3108,-2.3108,-2.3108,-2.3108,-2.3108,-2.3108,-1.4492,-1.5114,-1.5648,-1.6569,-1.6544,-1.6204,-1.5905,0.0,0.0,0.0,0.0,0.0,0.0,0.0,-1.9091,-2.1425,0.0,-2.6123,-2.742,-2.8753,-2.9804,0.0,0.0,0.0,0.0,0.0,0.0,0.0,0.0,0.0,-3.1511,-3.1511,-3.1511,-3.1511,-3.1511,-3.1511,-3.1511,-3.1511,-3.1511,-3.1511,-3.1511,-3.1511,-3.1511,-3.1511,-3.1511,-3.1511,0.0,-3.1511,-3.1511,-3.1511,-3.1511,-3.1511,-3.1511,-3.1511,-3.1511,-3.1511,-3.1511,-3.1511,-3.1511,-3.1511,-3.1511,-3.1511,-3.1511,-3.1511,-3.1511,-3.1511,-3.1436,-3.1122,-3.0372,-2.9475,-2.8786,-2.8368,-2.8064,-2.769,-2.76,-2.76,-2.76,-2.76,-2.76,-2.76,-2.7549,-2.7448,-2.7291,-2.7229,-2.7137,-2.7034,-2.7008,-2.7008,-2.7008,-2.7008,-2.7008,-2.7008,-2.6762,-2.6418,-2.5933,-2.566,-2.5062,-2.407,-2.3586,-2.333,-2.3271,-2.3168,-2.3108,-2.3108,-2.3108,-2.3108,-2.3108,-2.3108,-2.3108,-2.3108,-2.3108,-2.3271,-1.4521,-1.5261,-1.5987,-1.7144,0.0,-1.7059,-1.7059,-1.6834,0.0,0.0,0.0,0.0,0.0,-1.9633,0.0,-2.3684,-2.548,-2.6956,-2.7929,-2.8963,-2.9864,-3.0657,-3.1182,0.0,0.0,0.0,0.0,0.0,0.0,0.0,-3.1511,-3.1511,-3.1511,-3.1511,-3.1511,-3.1511,-3.1511,-3.1511,-3.1511,-3.1511,-3.1511,-3.1511,-3.1511,-3.1511,-3.1511,-3.1511,-3.1511,-3.1511,-3.1511,-3.1511,-3.1511,-3.1511,-3.1511,-3.1511,-3.1511,-3.1511,-3.1511,-3.1511,-3.1511,-3.1511,-3.1511,-3.1511,-3.1511,-3.1511,-3.1511,-3.1511,-3.1511,-3.1511,-3.1122,-3.0477,-2.934,-2.8936,-2.8697,-2.8199,-2.7944,-2.7835,-2.7825,-2.771,-2.76,-2.76,-2.76,-2.76,-2.76,-2.76,-2.76,-2.76,-2.76,-2.76,-2.76,-2.76,-2.76,-2.76,-2.7372,-2.7063,-2.659,-2.6283,-2.5632,-2.4447,-2.3982,-2.3675,-2.3509,-2.3228,-2.3108,-2.3108,-2.3108,-2.3108,-2.3108,-2.3108,-2.3108,-2.3108,-2.3246,-2.3547,-1.4096,-1.5145,-1.6207,-1.6795,-1.7523,0.0,-1.8161,-1.8639,0.0,-1.8958,0.0,0.0,0.0,-2.2114,-2.3789,-2.5226,-2.6093,-2.726,-2.9202,0.0,-3.0043,-3.1271,-3.1466,0.0,0.0,0.0,0.0,0.0,0.0,0.0,-3.1511,-3.1511,-3.1511,-3.1511,-3.1511,-3.1511,-3.1511,-3.1511,-3.1511,-3.1511,-3.1511,-3.1511,-3.1511,-3.1511,-3.1511,-3.1511,-3.1511,-3.1511,-3.1511,-3.1511,-3.1511,-3.1511,-3.1511,-3.1511,-3.1511,-3.1511,-3.1511,-3.1511,-3.1511,-3.1511,-3.1511,-3.1511,-3.1511,-3.1511,-3.1511,-3.1511,-3.1511,-3.1511,-3.1466,-3.1256,-3.0552,-2.9939,-2.9532,-2.9472,-2.8966,-2.8535,-2.8531,-2.8032,-2.76,-2.76,-2.76,-2.76,-2.76,-2.76,-2.76,-2.76,-2.76,-2.76,-2.76,-2.76,-2.76,-2.76,-2.7463,-2.7207,-2.6736,-2.6457,-2.6136,-2.5784,-2.4808,-2.4118,-2.3771,-2.3322,-2.3108,-2.3108,-2.3108,-2.3108,-2.3108,-2.3108,-2.3108,-2.3108,-2.369,-2.3954,-1.4718,-1.5296,-1.6082,-1.808,-1.875,0.0,0.0,-2.0526,-2.1128,-2.145,-2.1501,0.0,0.0,0.0,-2.5016,-2.5525,-2.6497,-2.7645,-2.8801,-2.8966,-2.931,-3.0208,-3.0313,-3.0313,0.0,0.0,0.0,0.0,0.0,-3.0313,-3.0313,-3.0313,-3.0313,-3.0313,-3.0313,-3.0313,-3.0313,-3.0313,-3.0313,-3.0328,-3.1122,-3.1511,-3.1511,-3.1511,-3.1511,-3.1511,-3.1511,-3.1511,-3.1511,-3.1511,-3.1511,-3.1511,-3.1511,-3.1511,-3.1511,-3.1511,-3.1511,-3.1511,-3.1511,-3.1511,-3.1511,-3.1511,-3.1511,-3.1511,-3.1511,-3.1511,-3.1511,-3.1511,-3.1511,-3.1346,-3.0687,-3.0328,-3.0058,-2.9696,-2.9427,-2.9105,-2.8693,-2.8398,-2.8102,-2.769,-2.76,-2.76,-2.76,-2.76,-2.76,-2.76,-2.76,-2.76,-2.76,-2.76,-2.76,-2.76,-2.7549,-2.7448,-2.728,-2.7178,-2.6982,-2.6724,-2.555,-2.4681,-2.425,-2.3691,-2.3378,-2.33,-2.3168,-2.3108,-2.3108,-2.3108,-2.3283,-2.3678,-2.3891,-2.4356,-1.5216,-1.5634,-1.6263,-1.8481,0.0,0.0,-2.1478,-2.2378,-2.3102,-2.3633,-2.379,0.0,0.0,0.0,0.0,0.0,-2.6965,-2.8067,0.0,0.0,-2.9015,-2.9609,-2.9687,-2.9633,-2.9606,-2.9606,-2.9606,-2.9606,-2.9606,-2.9606,-2.9606,-2.9606,-2.9606,-2.9606,-2.9606,-2.9606,-2.9606,-2.9606,-2.9606,-2.9621,-3.0492,-3.0883,-3.0898,-3.1092,-3.1182,-3.1197,-3.1406,-3.1511,-3.1511,-3.1511,-3.1511,-3.1511,-3.1511,-3.1511,-3.1511,-3.1511,-3.1511,-3.1511,-3.1511,-3.1511,-3.1511,-3.1511,-3.1511,-3.1511,-3.1511,-3.1511,-3.1511,-3.1511,-3.1511,-3.1391,-3.0913,-3.0836,-3.0717,-3.0298,-3.0028,-2.9741,-2.9294,-2.8888,-2.845,-2.8001,-2.7725,-2.7675,-2.7878,-2.7919,-2.7989,-2.8199,-2.8049,-2.7929,-2.7929,-2.7735,-2.76,-2.76,-2.7794,-2.7839,-2.7615,-2.7794,-2.7737,-2.7299,-2.631,-2.5467,-2.4879,-2.4176,-2.3734,-2.3526,-2.3258,-2.3108,-2.3108,-2.3108,-2.3396,-2.4004,-2.418,-2.4732,-1.5392,-1.6147,-1.6891,0.0,0.0,0.0,-2.3071,-2.4147,-2.498,-2.5512,0.0,-2.6585,-2.5518,0.0,0.0,-2.6441,-2.7503,-2.8627,0.0,0.0,0.0,-2.9815,-2.9818,-2.9741,-2.9592,-2.9592,-2.9592,-2.9592,-2.9592,-2.9592,-2.9592,-2.9592,-2.9592,-2.9592,-2.9592,-2.9592,-2.9592,-2.9592,-2.9592,-2.9592,-2.9592,-2.9592,-2.9636,-3.0223,-3.0492,-3.0537,-3.1197,-3.1496,-3.1511,-3.1511,-3.1511,-3.1511,-3.1511,-3.1511,-3.1511,-3.1511,-3.1511,-3.1511,-3.1511,-3.1511,-3.1511,-3.1511,-3.1511,-3.1511,-3.1511,-3.1511,-3.1511,-3.1511,-3.1511,-3.1511,-3.1511,-3.1511,-3.1511,-3.1511,-3.0972,-3.0513,-3.0482,-2.95,-2.8607,-2.8591,-2.8072,-2.7829,-2.8476,-2.8603,-2.8831,-2.949,-2.9026,-2.8607,-2.8607,-2.8019,-2.76,-2.76,-2.8188,-2.8323,-2.7675,-2.8203,-2.8271,-2.7461,-2.71,-2.6534,-2.5646,-2.4766,-2.4134,-2.3813,-2.3335,-2.3108,-2.312,-2.312,-2.3421,-2.4029,-2.4569,-2.5109,-1.5392,-1.6525,0.0,-1.9022,0.0,0.0,0.0,-2.5191,0.0,0.0,-2.7525,-2.7432,-2.6882,0.0,0.0,-2.7825,-2.8525,-2.916,-2.935,0.0,0.0,0.0,-2.8767,-2.8546,-2.8225,-2.8184,-2.8184,-2.8184,-2.8184,-2.8184,-2.8184,-2.8184,-2.8184,-2.8184,-2.8184,-2.8184,-2.8184,-2.8184,-2.8184,-2.8184,-2.8184,-2.8693,-2.9621,-2.9801,-3.0088,-3.0507,-3.0717,-3.1062,-3.1511,-3.1511,-3.1511,-3.1511,-3.1511,-3.1511,-3.1511,-3.1511,-3.1511,-3.1511,-3.1511,-3.1511,-3.1511,-3.1511,-3.1511,-3.1511,-3.1511,-3.1511,-3.1511,-3.1511,-3.1511,-3.1511,-3.1511,-3.1511,-3.1511,-3.1511,-3.1346,-3.1066,-3.0585,-3.0201,-2.9671,-2.8763,-2.8829,-2.8936,-2.8646,-2.8981,-2.9374,-2.9567,-2.9423,-2.9131,-2.8667,-2.8019,-2.7779,-2.8248,-2.8472,-2.8712,-2.8992,-2.8742,-2.8685,-2.8928,-2.8416,-2.7492,-2.6136,-2.5342,-2.4939,-2.4942,-2.4326,-2.4164,-2.4494,-2.435,-2.4562,-2.5121,-2.5285,-2.5674,-1.6109,-1.7337,0.0,-2.0471,-2.1823,-2.3359,-2.5743,0.0,0.0,0.0,0.0,-2.8764,-2.8176,-2.8665,0.0,-2.8725,-2.9265,-2.9728,-2.9728,-2.9528,0.0,0.0,-2.8614,-2.8341,-2.7949,-2.7875,-2.7815,-2.7765,-2.77,-2.765,-2.76,-2.76,-2.76,-2.76,-2.76,-2.76,-2.76,-2.76,-2.76,-2.76,-2.76,-2.8019,-2.8813,-2.9097,-2.94,-2.9759,-3.0028,-3.0507,-3.1092,-3.1092,-3.1256,-3.1511,-3.1511,-3.1511,-3.1511,-3.1511,-3.1511,-3.1511,-3.1511,-3.1511,-3.1511,-3.1511,-3.1511,-3.1511,-3.1511,-3.1511,-3.1451,-3.1182,-3.1092,-3.1032,-3.0821,-3.0913,-3.1167,-3.1436,-3.1511,-3.1378,-3.0966,-3.0688,-3.0273,-2.9517,-2.9501,-2.9565,-2.9384,-2.9689,-3.0056,-3.0324,-3.0125,-2.9714,-2.9071,-2.8648,-2.8558,-2.8951,-2.9205,-2.9415,-2.9592,-2.9445,-2.9415,-2.9592,-2.9205,-2.8548,-2.7559,-2.6846,-2.6396,-2.6242,-2.5476,-2.5167,-2.5294,-2.4968,-2.5096,-2.5598,-2.5598,-2.59,-1.7039,0.0,0.0,-2.1667,-2.2919,0.0,-2.818,-2.8901,-2.9175,-3.0473,0.0,-3.0311,-2.9453,-2.9835,-3.0065,-2.9395,-2.9851,-3.0295,-3.0295,-3.0065,0.0,0.0,-2.9159,-2.8873,-2.8525,-2.8356,-2.821,-2.8054,-2.793,-2.7765,-2.7625,-2.76,-2.76,-2.76,-2.76,-2.76,-2.76,-2.76,-2.76,-2.76,-2.76,-2.76,-2.7615,-2.8218,-2.8547,-2.8637,-2.9295,-2.9909,-3.0417,-3.0477,-3.0866,-3.1406,-3.1481,-3.1511,-3.1511,-3.1511,-3.1511,-3.1511,-3.1511,-3.1511,-3.1511,-3.1511,-3.1511,-3.1511,-3.1511,-3.1466,-3.1271,-3.0672,-3.0462,-3.0298,-2.9804,-3.0088,-3.0672,-3.1346,-3.1511,-3.1511,-3.1511,-3.1025,-3.06,-3.06,-3.014,-2.9916,-3.0423,-3.0563,-3.0806,-3.1406,-3.0913,-3.0298,-2.9744,-2.9636,-2.9636,-2.9696,-3.0163,-3.0298,-2.9804,-3.0223,-3.0298,-2.9789,-2.9726,-2.9657,-2.9607,-2.8862,-2.8197,-2.7674,-2.6749,-2.6126,-2.5816,-2.5268,-2.5242,-2.5707,-2.5674,-2.5996,-1.5798,-1.7884,0.0,0.0,-2.3291,-2.5812,-2.8417,-2.8975,-2.936,-3.0808,-3.1072,-3.1001,-3.0793,-3.0874,-3.0925,-3.0777,-3.0874,-3.0975,-3.0975,-3.0794,-3.0531,-3.014,-2.9903,-2.9617,-2.9219,-2.9005,-2.8764,-2.8407,-2.822,-2.7949,-2.7625,-2.76,-2.76,-2.76,-2.76,-2.76,-2.76,-2.76,-2.76,-2.76,-2.76,-2.76,-2.76,-2.775,-2.8109,-2.8637,-2.9295,-2.9654,-2.9846,-3.0298,-3.0597,-3.0776,-3.1286,-3.1511,-3.1511,-3.1511,-3.1511,-3.1511,-3.1511,-3.1511,-3.1511,-3.1511,-3.1511,-3.1511,-3.1511,-3.1122,-3.0702,-3.0552,-3.0163,-2.9864,-3.0223,-3.0402,-3.0672,-3.1346,-3.1511,-3.1511,-3.1511,-3.1378,-3.1289,-3.1289,-3.117,-3.0964,-3.057,-3.095,-3.1331,-3.1481,-3.0913,-3.0447,-3.0313,-2.9879,-2.9786,-3.0253,-3.0417,-3.0672,-3.1047,-3.0746,-3.0672,-3.1062,-3.0612,-3.0524,-3.1034,-2.96,-2.877,-2.8764,-2.7939,-2.7503,-2.7491,-2.6847,-2.6523,-2.6468,-2.6379,-2.6373,0.0,0.0,0.0,-2.2307,0.0,0.0,-2.8146,-2.8991,-2.9736,-3.0514,-3.0954,-3.119,-3.119,-3.119,-3.119,-3.119,-3.119,-3.119,-3.119,-3.1052,-3.0834,-3.0514,-3.0347,-3.0113,-2.9815,-2.9572,-2.928,-2.8904,-2.8661,-2.8389,-2.8014,-2.7925,-2.7865,-2.779,-2.774,-2.765,-2.76,-2.76,-2.76,-2.76,-2.76,-2.76,-2.76,-2.76,-2.7794,-2.8154,-2.8498,-2.8828,-2.9146,-2.946,-2.9774,-3.0103,-3.0447,-3.0776,-3.1017,-3.1017,-3.1212,-3.1511,-3.1511,-3.1511,-3.1511,-3.1511,-3.1511,-3.1451,-3.1122,-3.0791,-3.0372,-2.9759,-2.9579,-2.9579,-2.9594,-3.0043,-3.0597,-3.0956,-3.1271,-3.1511,-3.1511,-3.1511,-3.1511,-3.1511,-3.1511,-3.1378,-3.104,-3.1289,-3.1511,-3.1511,-3.1197,-3.0972,-3.0972,-3.0688,-3.0642,-3.0943,-3.0972,-3.1122,-3.1466,-3.1182,-3.1122,-3.1481,-3.1167,-3.1137,-3.1496,-3.0624,-3.0102,-3.0016,-2.9373,-2.8914,-2.861,-2.7749,-2.7196,-2.6939,-2.6658,-2.6499,0.0,0.0,0.0,0.0,-2.5981,0.0,-2.7739,-2.8787,-2.9768,-3.0057,-3.0683,-3.119,-3.119,-3.119,-3.119,-3.119,-3.119,-3.119,-3.119,-3.1095,-3.0975,-3.0794,-3.0692,-3.0518,-3.0215,-2.9933,-2.9589,-2.914,-2.884,-2.8559,-2.8217,-2.8035,-2.7907,-2.7729,-2.7567,-2.7444,-2.7255,-2.7255,-2.7255,-2.7255,-2.7375,-2.748,-2.76,-2.76,-2.76,-2.76,-2.76,-2.7914,-2.8427,-2.8547,-2.8921,-2.9457,-2.9562,-2.9894,-3.0342,-3.0342,-3.0717,-3.1182,-3.1286,-3.1331,-3.1346,-3.1466,-3.1511,-3.1406,-3.0823,-3.0597,-3.0283,-2.922,-2.925,-2.9517,-2.9041,-2.9714,-3.0537,-3.0657,-3.1092,-3.1511,-3.1511,-3.1511,-3.1511,-3.1511,-3.1511,-3.1511,-3.1511,-3.1511,-3.1511,-3.1511,-3.1511,-3.1511,-3.1511,-3.1511,-3.1511,-3.1511,-3.1511,-3.1511,-3.1511,-3.1511,-3.1511,-3.1511,-3.1511,-3.1511,-3.1511,-3.1511,-3.1351,-3.0999,-3.0524,-2.9979,-2.9247,-2.8228,-2.7517,-2.7129,-2.6726,-2.6499,0.0,0.0,0.0,0.0,0.0,0.0,0.0,0.0,-2.8483,0.0,-3.0683,-3.119,-3.119,-3.119,-3.119,-3.119,-3.119,-3.119,-3.119,-3.119,-3.1151,-3.1131,-3.1112,-3.0839,-3.0176,-2.9881,-2.9304,-2.8321,-2.7997,-2.7708,-2.738,-2.717,-2.6929,-2.661,-2.6443,-2.6167,-2.5869,-2.5869,-2.5869,-2.5869,-2.6452,-2.7046,-2.76,-2.76,-2.76,-2.76,-2.76,-2.7645,-2.7779,-2.8353,-2.8652,-2.8786,-2.9355,-2.9651,-2.9726,-2.9726,-2.9786,-2.9924,-3.0447,-3.0642,-3.0746,-3.1316,-3.1511,-3.1481,-3.1391,-3.0943,-3.0462,-3.0298,-2.9924,-2.9711,-3.0133,-3.0372,-3.0657,-3.1227,-3.1436,-3.1511,-3.1511,-3.1511,-3.1511,-3.1511,-3.1511,-3.1511,-3.1511,-3.1511,-3.1511,-3.1511,-3.1511,-3.1511,-3.1511,-3.1511,-3.1511,-3.1511,-3.1511,-3.1511,-3.1511,-3.1511,-3.1511,-3.1511,-3.1511,-3.1511,-3.1511,-3.1511,-3.1351,-3.0999,-3.0553,-2.9915,-2.9117,-2.8235,-2.7523,-2.7011,-2.6658,-2.6499,-1.6509,-1.9278,-2.163,0.0,0.0,0.0,0.0,0.0,-2.7993,-2.8669,-2.9431,-3.0228,-3.1038,-3.119,-3.119,-3.119,-3.119,-3.119,-3.119,-3.119,-3.119,-3.119,-3.0835,-3.0463,-3.0123,-2.9551,-2.8941,-2.8307,-2.804,-2.7781,-2.7446,-2.7132,-2.6804,-2.6468,-2.6183,-2.5886,-2.5615,-2.5615,-2.5615,-2.5615,-2.6273,-2.6761,-2.7061,-2.742,-2.76,-2.76,-2.76,-2.76,-2.7615,-2.7929,-2.8049,-2.8079,-2.8364,-2.8723,-2.9026,-2.9026,-2.9292,-2.9651,-2.9894,-3.0223,-3.0552,-3.0823,-3.1182,-3.1436,-3.1047,-3.0746,-3.0432,-3.0088,-3.0043,-3.0163,-3.0432,-3.0791,-3.1122,-3.1436,-3.1511,-3.1511,-3.1511,-3.1511,-3.1511,-3.1511,-3.1511,-3.1511,-3.1511,-3.1511,-3.1511,-3.1511,-3.1511,-3.1511,-3.1511,-3.1511,-3.1511,-3.1511,-3.1511,-3.1511,-3.1511,-3.1511,-3.1511,-3.1511,-3.1511,-3.1511,-3.1511,-3.1511,-3.1351,-3.1058,-3.0553,-2.9931,-2.9198,-2.8208,-2.753,-2.7087,-2.6692,-2.6499,-1.705,-1.9176,-2.075,-2.2412,0.0,0.0,0.0,0.0,-2.73,0.0,-2.8146,-2.9076,-3.0395,-3.0784,-3.092,-3.092,-3.1072,-3.1123,-3.0954,-3.092,-3.0852,-3.0649,-3.0159,-2.9736,-2.9531,-2.8935,-2.8385,-2.8003,-2.7781,-2.7514,-2.7218,-2.6814,-2.6393,-2.5985,-2.5678,-2.5387,-2.5091,-2.5091,-2.5181,-2.5337,-2.6033,-2.6437,-2.6617,-2.73,-2.76,-2.76,-2.76,-2.76,-2.76,-2.76,-2.76,-2.76,-2.76,-2.7914,-2.8338,-2.8338,-2.8678,-2.9127,-2.9292,-2.9639,-3.0073,-3.0387,-3.0851,-3.1182,-3.0838,-3.0761,-3.0672,-3.0208,-3.0417,-3.0761,-3.0761,-3.1122,-3.1511,-3.1511,-3.1511,-3.1511,-3.1511,-3.1511,-3.1511,-3.1511,-3.1511,-3.1511,-3.1511,-3.1511,-3.1511,-3.1511,-3.1511,-3.1511,-3.1511,-3.1511,-3.1511,-3.1511,-3.1511,-3.1511,-3.1511,-3.1511,-3.1511,-3.1511,-3.1511,-3.1511,-3.1511,-3.1511,-3.1366,-3.1073,-3.0569,-2.9934,-2.9261,-2.8228,-2.753,-2.7142,-2.6692,-2.6499,-1.5334,-1.6847,0.0,-2.075,0.0,0.0,0.0,0.0,0.0,0.0,-2.7351,-2.8111,-2.8959,-2.9685,-3.0176,-3.0176,-3.0734,-3.0954,-3.026,-3.0176,-2.9905,-2.9196,-2.9077,-2.8755,-2.7993,-2.7874,-2.757,-2.6843,-2.6605,-2.6361,-2.611,-2.5707,-2.5174,-2.4518,-2.4317,-2.4037,-2.3699,-2.3699,-2.4007,-2.4664,-2.5322,-2.5989,-2.6617,-2.73,-2.76,-2.76,-2.76,-2.76,-2.76,-2.76,-2.76,-2.76,-2.76,-2.7615,-2.7645,-2.7645,-2.766,-2.7794,-2.8427,-2.8667,-2.8906,-3.0118,-3.0522,-3.0672,-3.1271,-3.1451,-3.1451,-3.1406,-3.1421,-3.1451,-3.1451,-3.1481,-3.1511,-3.1511,-3.1511,-3.1511,-3.1511,-3.1511,-3.1511,-3.1511,-3.1511,-3.1511,-3.1511,-3.1511,-3.1511,-3.1511,-3.1511,-3.1511,-3.1511,-3.1511,-3.1511,-3.1511,-3.1511,-3.1511,-3.1511,-3.1511,-3.1511,-3.1511,-3.1511,-3.1511,-3.1511,-3.1511,-3.1351,-3.0999,-3.0554,-2.9917,-2.9099,-2.8235,-2.7523,-2.7011,-2.6671,-2.6499,-1.4351,-1.5629,0.0,0.0,0.0,0.0,0.0,0.0,-2.4526,-2.5744,-2.6201,-2.6607,-2.7368,-2.8553,-2.9381,-2.9381,-2.9619,-2.9704,-2.9433,-2.9381,-2.9314,-2.9027,-2.8535,-2.8111,-2.7824,-2.7367,-2.6979,-2.6708,-2.647,-2.6173,-2.5832,-2.5349,-2.4823,-2.423,-2.4,-2.3803,-2.3595,-2.3595,-2.3729,-2.3984,-2.4634,-2.5083,-2.5337,-2.6452,-2.6971,-2.6986,-2.7405,-2.76,-2.76,-2.76,-2.76,-2.76,-2.76,-2.76,-2.76,-2.76,-2.76,-2.763,-2.7884,-2.8233,-2.8682,-2.9131,-2.9834,-3.0552,-3.0806,-3.1152,-3.1511,-3.1511,-3.1511,-3.1511,-3.1511,-3.1511,-3.1511,-3.1511,-3.1511,-3.1511,-3.1511,-3.1511,-3.1511,-3.1511,-3.1511,-3.1511,-3.1511,-3.1511,-3.1511,-3.1511,-3.1511,-3.1511,-3.1511,-3.1511,-3.1511,-3.1511,-3.1511,-3.1511,-3.1511,-3.3065,-3.3558,-3.2422,-3.2886,-3.311,-3.2811,-3.2796,-3.2706,-3.2494,-3.2097,-3.1025,-2.923,-2.8208,-2.753,-2.7121,-2.6692,-2.6499,-1.327,-1.447,0.0,0.0,0.0,0.0,0.0,0.0,0.0,0.0,0.0,-2.5761,-2.6234,-2.7385,-2.8316,-2.8552,-2.8824,-2.8908,-2.8636,-2.8602,-2.8501,-2.8265,-2.7757,-2.7435,-2.7435,-2.6996,-2.6691,-2.6691,-2.6435,0.0,-2.5556,-2.5075,-2.4538,-2.3937,-2.3803,-2.3696,-2.3595,-2.3595,-2.3595,-2.361,-2.4276,-2.4605,-2.4649,-2.5764,-2.6378,-2.6617,-2.7076,-2.739,-2.76,-2.76,-2.76,-2.76,-2.76,-2.76,-2.76,-2.76,-2.76,-2.76,-2.76,-2.7899,-2.8293,-2.8532,-2.9325,-3.0238,-3.0447,-3.0957,-3.1511,-3.1511,-3.1511,-3.1511,-3.1511,-3.1511,-3.1511,-3.1511,-3.1511,-3.1511,-3.1511,-3.1511,-3.1511,-3.1511,-3.1511,-3.1511,-3.1511,-3.1511,-3.1511,-3.1511,-3.1511,-3.1511,-3.1511,-3.1511,-3.1511,-3.1511,-3.1511,-3.1869,-3.2766,-3.3902,-3.4201,-3.3319,-3.3724,-3.3829,-3.3499,-3.3499,-3.3469,-3.336,-3.316,-3.219,-3.0543,-2.9094,-2.8067,-2.7464,-2.7109,-2.6867,0.0,0.0,0.0,0.0,0.0,0.0,0.0,0.0,0.0,0.0,0.0,0.0,-2.5558,-2.6167,-2.6894,-2.7621,-2.8416,-2.8653,-2.7874,-2.7773,-2.7503,-2.6776,-2.6691,-2.6691,-2.6691,-2.6691,-2.6691,-2.6691,-2.6383,-2.5921,-2.524,-2.4799,-2.4266,-2.3616,-2.3595,-2.3595,-2.3595,-2.3595,-2.3595,-2.361,-2.4261,-2.4575,-2.459,-2.5247,-2.5944,-2.6557,-2.6572,-2.6986,-2.76,-2.76,-2.76,-2.76,-2.76,-2.76,-2.76,-2.76,-2.76,-2.76,-2.76,-2.76,-2.7705,-2.8353,-2.9026,-2.9726,-3.0298,-3.0943,-3.1511,-3.1511,-3.1511,-3.1511,-3.1511,-3.1511,-3.1511,-3.1511,-3.1511,-3.1511,-3.1511,-3.1511,-3.1511,-3.1511,-3.1511,-3.1511,-3.1511,-3.1511,-3.1511,-3.1511,-3.1511,-3.1511,-3.1511,-3.1511,-3.1511,-3.1511,-3.1511,-3.2572,-3.522,-3.3857,-3.3259,-3.4158,-3.3799,-3.3559,-3.3559,-3.3559,-3.3559,-3.3559,-3.3559,-3.3375,-3.302,-3.0912,-2.9255,-2.8092,-2.7919,-2.7621,-1.2077,0.0,0.0,0.0,0.0,0.0,0.0,0.0,0.0,0.0,0.0,0.0,0.0,-2.5406,-2.5981,-2.6167,-2.6843,-2.7249,-2.7046,-2.6996,-2.6928,-2.6725,-2.6691,-2.6691,-2.6691,-2.6691,-2.6691,0.0,-2.6383,-2.5921,-2.524,-2.4364,-2.3788,-2.3595,-2.3595,-2.3595,-2.3595,-2.3595,-2.3595,-2.3595,-2.3789,-2.3879,-2.3909,-2.456,-2.5232,-2.5899,-2.6378,-2.6986,-2.76,-2.76,-2.76,-2.76,-2.76,-2.76,-2.76,-2.76,-2.76,-2.76,-2.76,-2.76,-2.763,-2.7824,-2.8663,-2.9636,-2.9789,-3.0627,-3.1511,-3.1511,-3.1511,-3.1511,-3.1511,-3.1511,-3.1511,-3.1511,-3.1511,-3.1511,-3.1511,-3.1511,-3.1511,-3.1511,-3.1511,-3.1511,-3.1511,-3.1511,-3.1511,-3.1511,-3.1511,-3.1511,-3.1511,-3.1511,-3.1511,-3.1511,-3.1511,-3.2183,-3.3903,-3.4487,-3.4666,-3.4412,-3.4741,-3.4951,-3.4951,-3.4951,-3.4951,-3.4951,-3.4951,-3.4601,-3.3858,-3.2309,-3.1133,-3.029,-2.9188,-2.818,-1.3007,-1.3447,-1.3802,0.0,0.0,0.0,-1.6194,-1.7141,0.0,0.0,0.0,0.0,0.0,0.0,-2.478,-2.5084,-2.5506,-2.5997,-2.6607,-2.6691,-2.6691,-2.6691,-2.6691,-2.6691,-2.6691,-2.6691,-2.6691,-2.6691,-2.6383,-2.583,-2.5001,-2.409,-2.3595,-2.3595,-2.3595,-2.3595,-2.3595,-2.3595,-2.3595,-2.3595,-2.3595,-2.3595,-2.361,-2.4014,-2.4694,-2.563,-2.6019,-2.6707,-2.76,-2.76,-2.76,-2.76,-2.76,-2.76,-2.76,-2.76,-2.76,-2.76,-2.76,-2.76,-2.76,-2.76,-2.8513,-2.9606,-2.9606,-3.0492,-3.1511,-3.1511,-3.1511,-3.1511,-3.1511,-3.1511,-3.1511,-3.1511,-3.1511,-3.1511,-3.1511,-3.1511,-3.1511,-3.1511,-3.1511,-3.1511,-3.1511,-3.1511,-3.1511,-3.1511,-3.1511,-3.1511,-3.1511,-3.1511,-3.1511,-3.1511,-3.1511,-3.2034,-3.338,-3.4397,-3.4951,-3.4906,-3.528,-3.5504,-3.5504,-3.5504,-3.5504,-3.5504,-3.5504,-3.523,-3.4731,-3.3443,-3.2315,-3.1294,-2.9961,-2.8922,-1.4537,-1.5172,-1.546,-1.4892,-1.5112,0.0,-1.4757,-1.6076,-1.7479,0.0,0.0,0.0,0.0,0.0,0.0,-2.4034,-2.4203,-2.4778,-2.6251,-2.6454,-2.6454,-2.6454,-2.6454,-2.6454,-2.6454,-2.6454,-2.6454,-2.6454,-2.6164,-2.5568,-2.4565,-2.397,-2.3653,-2.3616,-2.3595,-2.3595,-2.3595,-2.3595,-2.3595,-2.3595,-2.3595,-2.3595,-2.3595,-2.3595,-2.4298,-2.5495,-2.557,-2.6318,-2.7495,-2.757,-2.76,-2.76,-2.76,-2.76,-2.76,-2.76,-2.76,-2.76,-2.76,-2.76,-2.76,-2.76,-2.8513,-2.9606,-2.9606,-3.0492,-3.1511,-3.1511,-3.1511,-3.1511,-3.1511,-3.1511,-3.1511,-3.1511,-3.1511,-3.1511,-3.1511,-3.1511,-3.1511,-3.1511,-3.1511,-3.1511,-3.1511,-3.1511,-3.1511,-3.1511,-3.1511,-3.1511,-3.1511,-3.1511,-3.1511,-3.1511,-3.1511,-3.1974,-3.3185,-3.3933,-3.4637,-3.534,-3.5459,-3.5504,-3.5504,-3.5504,-3.5504,-3.5504,-3.5504,-3.5504,-3.5504,-3.4363,-3.314,-3.1764,-3.0653,-2.9962,-1.6062,-1.5944,-1.5697,-1.6164,0.0,0.0,-1.5274,-1.5264,-1.5484,0.0,0.0,0.0,0.0,0.0,0.0,-2.1817,-2.2344,-2.3241,-2.4728,-2.4931,-2.4931,-2.4931,-2.4931,-2.4931,-2.4931,-2.4931,-2.4931,-2.4931,-2.4826,-2.4531,-2.3989,-2.3917,-2.3861,-2.376,-2.3674,-2.3595,-2.3595,-2.3595,-2.3595,-2.3595,-2.3595,-2.3595,-2.3595,-2.3595,-2.4044,-2.4829,-2.5375,-2.6048,-2.6851,-2.7375,-2.76,-2.76,-2.76,-2.76,-2.76,-2.76,-2.76,-2.76,-2.76,-2.76,-2.76,-2.76,-2.8513,-2.9606,-2.9606,-3.0492,-3.1511,-3.1511,-3.1511,-3.1511,-3.1511,-3.1511,-3.1511,-3.1511,-3.1511,-3.1511,-3.1511,-3.1511,-3.1511,-3.1511,-3.1511,-3.1511,-3.1511,-3.1511,-3.1511,-3.1511,-3.1511,-3.1511,-3.1511,-3.1511,-3.1511,-3.1511,-3.1511,-3.1615,-3.1869,-3.3932,-3.5085,-3.4728,-3.519,-3.5504,-3.5504,-3.5504,-3.5504,-3.5504,-3.5504,-3.5504,-3.5504,-3.4949,-3.4268,-3.3485,-3.2723,-3.1594,-1.8161,-1.7811,-1.7253,-1.7253,0.0,0.0,0.0,0.0,-1.5697,-1.6079,-1.7033,0.0,0.0,0.0,0.0,-2.0056,-2.0657,-2.1282,-2.1647,-2.3001,-2.4085,-2.4457,-2.4491,-2.4491,-2.4491,-2.4491,-2.446,-2.4351,-2.4149,-2.3882,-2.3504,-2.3266,-2.3239,-2.3445,-2.3272,-2.3295,-2.3595,-2.3595,-2.3595,-2.3595,-2.3595,-2.3595,-2.3595,-2.3595,-2.3984,-2.4619,-2.4948,-2.5472,-2.6123,-2.6452,-2.6806,-2.7136,-2.7465,-2.76,-2.76,-2.76,-2.76,-2.76,-2.76,-2.76,-2.76,-2.76,-2.8513,-2.9606,-2.9606,-3.0492,-3.1511,-3.1511,-3.1511,-3.1511,-3.1511,-3.1511,-3.1511,-3.1511,-3.1511,-3.1511,-3.1511,-3.1511,-3.1511,-3.1511,-3.1511,-3.1511,-3.1511,-3.1511,-3.1511,-3.1511,-3.1511,-3.1511,-3.1511,-3.1511,-3.1511,-3.1511,-3.1511,-3.1511,-3.1511,-3.2721,-3.3664,-3.3963,-3.4307,-3.4651,-3.4981,-3.4996,-3.516,-3.5489,-3.5504,-3.5504,-3.5504,-3.5294,-3.4887,-3.4279,-3.3679,-3.2687,-2.0056,-1.9575,-1.8792,0.0,0.0,-1.6384,0.0,0.0,0.0,0.0,0.0,0.0,0.0,0.0,0.0,0.0,0.0,0.0,0.0,-2.0581,0.0,-2.3509,-2.3628,-2.3695,-2.3848,-2.3848,-2.3855,-2.3822,-2.3519,-2.3243,-2.3066,-2.2608,-2.254,-2.2908,-2.2792,-2.2942,-2.3415,-2.3535,-2.3595,-2.3595,-2.3595,-2.3595,-2.3595,-2.3595,-2.3909,-2.441,-2.4545,-2.4903,-2.5435,-2.5555,-2.6004,-2.6632,-2.721,-2.748,-2.76,-2.76,-2.76,-2.76,-2.76,-2.76,-2.76,-2.76,-2.8513,-2.9651,-2.9879,-3.0687,-3.1511,-3.1511,-3.1511,-3.1511,-3.1511,-3.1511,-3.1511,-3.1511,-3.1511,-3.1511,-3.1511,-3.1511,-3.1511,-3.1511,-3.1511,-3.1511,-3.1511,-3.1511,-3.1511,-3.1511,-3.1511,-3.1511,-3.1511,-3.1511,-3.1511,-3.1511,-3.1511,-3.1511,-3.1511,-3.1511,-3.2019,-3.323,-3.3425,-3.3724,-3.4294,-3.4444,-3.4833,-3.5489,-3.5504,-3.5504,-3.5504,-3.5504,-3.5246,-3.4743,-3.424,-3.3555,0.0,0.0,0.0,0.0,-1.8217,0.0,0.0,0.0,-1.5697,-1.5612,0.0,0.0,0.0,0.0,0.0,0.0,0.0,0.0,-1.6959,-1.723,-1.8228,-2.0268,-2.0521,-2.0792,-2.1512,-2.1563,-2.1809,-2.2385,-2.2178,-2.2155,-2.2459,-2.254,-2.2484,-2.2309,-2.2561,-2.2733,-2.2808,-2.3325,-2.3595,-2.3595,-2.3595,-2.3595,-2.3595,-2.3595,-2.364,-2.3744,-2.4335,-2.4649,-2.4769,-2.5337,-2.6004,-2.6602,-2.6677,-2.7091,-2.76,-2.76,-2.76,-2.76,-2.76,-2.76,-2.76,-2.76,-2.8513,-2.9804,-3.0928,-3.1391,-3.1511,-3.1511,-3.1511,-3.1511,-3.1511,-3.1511,-3.1511,-3.1511,-3.1511,-3.1511,-3.1511,-3.1511,-3.1511,-3.1511,-3.1511,-3.1511,-3.1511,-3.1511,-3.1511,-3.1511,-3.1511,-3.1511,-3.1511,-3.1511,-3.1511,-3.1511,-3.1511,-3.1511,-3.1511,-3.1511,-3.1809,-3.2587,-3.317,-3.3529,-3.3604,-3.4158,-3.4833,-3.5489,-3.5504,-3.5504,-3.5504,-3.5504,-3.5472,-3.5392,-3.4968,-3.4423,0.0,0.0,0.0,0.0,0.0,0.0,-1.68,0.0,-1.6762,0.0,0.0,0.0,0.0,0.0,0.0,0.0,-1.6417,0.0,0.0,0.0,-1.6881,0.0,0.0,0.0,-2.0433,-2.0111,-2.0149,-2.0857,-2.0824,-2.0964,-2.1389,-2.1584,-2.1703,-2.1783,-2.2015,-2.2313,-2.2703,-2.3295,-2.3595,-2.3595,-2.3595,-2.3595,-2.3595,-2.3595,-2.3595,-2.361,-2.3909,-2.4007,-2.4036,-2.4328,-2.5061,-2.6019,-2.6019,-2.6686,-2.76,-2.76,-2.76,-2.76,-2.76,-2.76,-2.766,-2.8064,-2.8801,-2.9786,-3.0657,-3.1182,-3.1511,-3.1511,-3.1511,-3.1511,-3.1511,-3.1511,-3.1511,-3.1511,-3.1511,-3.1511,-3.1511,-3.1511,-3.1511,-3.1511,-3.1511,-3.1511,-3.1511,-3.1511,-3.1511,-3.1511,-3.1511,-3.1511,-3.1511,-3.1511,-3.1511,-3.1511,-3.1511,-3.1511,-3.1511,-3.1511,-3.163,-3.1899,-3.2557,-3.2931,-3.2931,-3.3918,-3.4638,-3.4906,-3.5295,-3.5504,-3.5504,-3.5504,-3.5295,-3.4921,-3.5035,-3.4806,-2.2377,0.0,0.0,0.0,0.0,0.0,0.0,0.0,0.0,0.0,0.0,0.0,0.0,0.0,0.0,0.0,0.0,-1.5876,0.0,0.0,0.0,0.0,0.0,0.0,0.0,-1.9029,-1.8983,-1.9934,-1.9811,-1.9987,-2.0657,-2.0888,-2.1067,-2.121,-2.1519,-2.1919,-2.2418,-2.3206,-2.3595,-2.3595,-2.3595,-2.3595,-2.3595,-2.3595,-2.3595,-2.3595,-2.3595,-2.3595,-2.3595,-2.3595,-2.4388,-2.5615,-2.5615,-2.6422,-2.76,-2.76,-2.76,-2.76,-2.76,-2.76,-2.7705,-2.8368,-2.8921,-2.946,-3.0253,-3.0823,-3.1256,-3.1451,-3.1511,-3.1511,-3.1511,-3.1511,-3.1511,-3.1511,-3.1511,-3.1511,-3.1511,-3.1511,-3.1511,-3.1511,-3.1511,-3.1511,-3.1511,-3.1511,-3.1511,-3.1511,-3.1511,-3.1511,-3.1511,-3.1511,-3.1511,-3.1511,-3.1511,-3.1511,-3.1511,-3.1511,-3.1511,-3.1511,-3.1959,-3.2378,-3.2766,-3.3709,-3.4414,-3.4788,-3.525,-3.5504,-3.5504,-3.5504,-3.516,-3.4518,-3.4852,-3.4747,0.0,0.0,0.0,-2.0002,0.0,0.0,0.0,0.0,-1.7783,0.0,0.0,0.0,0.0,0.0,0.0,0.0,0.0,0.0,0.0,0.0,0.0,0.0,0.0,0.0,0.0,-1.8268,-1.8442,0.0,-1.935,-1.945,-2.064,-2.0888,-2.0861,-2.0542,-2.1277,-2.171,-2.1724,-2.2966,-2.3595,-2.3595,-2.3595,-2.3595,-2.3595,-2.3595,-2.3595,-2.3595,-2.3595,-2.3595,-2.3595,-2.3595,-2.4388,-2.5615,-2.5615,-2.6422,-2.76,-2.76,-2.76,-2.76,-2.76,-2.76,-2.7705,-2.8368,-2.8607,-2.8861,-3.0118,-3.0522,-3.0672,-3.1316,-3.1511,-3.1511,-3.1511,-3.1511,-3.1511,-3.1511,-3.1511,-3.1511,-3.1511,-3.1511,-3.1511,-3.1511,-3.1511,-3.1511,-3.1511,-3.1511,-3.1511,-3.1511,-3.1511,-3.1511,-3.1511,-3.1511,-3.1511,-3.1511,-3.1511,-3.1511,-3.1511,-3.1511,-3.1511,-3.1511,-3.1525,-3.2108,-3.341,-3.3499,-3.4143,-3.5444,-3.5489,-3.5504,-3.5504,-3.5504,-3.516,-3.4503,-3.4533,-3.4173,0.0,0.0,-2.1519,-2.1519,0.0,0.0,0.0,0.0,0.0,0.0,0.0,0.0,0.0,0.0,0.0,0.0,0.0,0.0,0.0,0.0,0.0,0.0,0.0,0.0,0.0,0.0,0.0,0.0,-1.8307,0.0,-1.9912,-2.0162,-2.0337,-2.0495,-2.0837,-2.1261,-2.1695,-2.2583,-2.3191,-2.3595,-2.3595,-2.3595,-2.3595,-2.3595,-2.3595,-2.3595,-2.3595,-2.3595,-2.3595,-2.3595,-2.4388,-2.5615,-2.5615,-2.6422,-2.76,-2.76,-2.76,-2.76,-2.76,-2.76,-2.763,-2.7869,-2.8543,-2.9325,-2.9759,-3.0492,-3.1212,-3.1436,-3.1511,-3.1511,-3.1511,-3.1511,-3.1511,-3.1511,-3.1511,-3.1511,-3.1511,-3.1511,-3.1511,-3.1511,-3.1511,-3.1511,-3.1511,-3.1511,-3.1511,-3.1511,-3.1511,-3.1511,-3.1511,-3.1511,-3.1511,-3.1511,-3.1511,-3.1511,-3.1511,-3.1511,-3.1511,-3.1511,-3.1914,-3.2377,-3.2826,-3.3679,-3.4399,-3.4816,-3.5265,-3.5504,-3.5504,-3.5504,-3.4936,-3.3829,-3.3829,-3.3709,-2.4628,-2.3613,0.0,-2.2699,-2.1552,0.0,-1.9456,0.0,-1.9879,0.0,0.0,0.0,0.0,0.0,0.0,0.0,0.0,0.0,0.0,-1.3625,0.0,0.0,0.0,0.0,0.0,0.0,-1.6722,-1.7715,-1.78,0.0,0.0,-1.9646,-1.9957,-2.0105,-2.0488,-2.1017,-2.168,-2.2358,-2.3002,-2.3595,-2.3595,-2.3595,-2.3595,-2.3595,-2.3595,-2.3595,-2.3595,-2.3595,-2.3595,-2.3595,-2.4388,-2.5615,-2.5615,-2.6422,-2.76,-2.76,-2.76,-2.76,-2.76,-2.76,-2.7645,-2.7884,-2.8558,-2.9325,-2.9774,-3.0492,-3.1182,-3.1436,-3.1511,-3.1511,-3.1511,-3.1511,-3.1511,-3.1511,-3.1511,-3.1511,-3.1511,-3.1511,-3.1511,-3.1511,-3.1511,-3.1511,-3.1511,-3.1511,-3.1511,-3.1511,-3.1511,-3.1511,-3.1511,-3.2333,-3.2736,-3.2243,-3.2198,-3.2019,-3.154,-3.1511,-3.163,-3.1944,-3.2288,-3.2721,-3.3185,-3.4054,-3.4623,-3.4846,-3.528,-3.5504,-3.5504,-3.5504,-3.4816,-3.3499,-3.3499,-3.3245]},{"header":{"parameterUnit":"m.s-1","parameterCategory":1,"la1":30.6,"la2":29.2853,"lo1":-89.7004,"lo2":-87.6739,"dy":0.0162,"dx":0.0183,"nx":112,"ny":82,"refTime":"2026-04-23T12:00:00:Z","depth":0,"parameterNumber":3,"parameterNumberName":"V-component_of_WINDS"},"data":[0.0,0.0,0.0,0.0,0.0,0.0,0.0,0.0,0.0,0.0,0.0,0.0,0.0,0.0,0.0,0.0,0.0,0.0,0.0,0.0,0.0,0.0,0.0,0.0,0.0,0.0,0.0,0.0,0.0,0.0,0.0,0.0,0.0,0.0,0.0,0.0,0.0,0.0,0.0,0.0,0.0,0.0,0.0,0.0,0.0,0.0,0.0,0.0,0.0,0.0,0.0,0.0,0.0,0.0,0.0,0.0,0.0,0.0,0.0,0.0,0.0,0.0,0.0,0.0,0.0,0.0,0.0,0.0,0.0,0.0,0.0,0.0,0.0,0.0,0.0,0.0,0.0,0.0,0.0,0.0,0.0,0.0,0.0,0.0,0.0,0.0,0.0,0.0,0.0,0.0,-1.3148,-1.4348,-1.6304,-1.7109,-1.6045,-1.6296,-1.5688,-1.3778,0.0,0.0,0.0,0.0,0.0,0.0,0.0,0.0,0.0,0.0,0.0,0.0,0.0,0.0,0.0,0.0,0.0,0.0,0.0,0.0,0.0,0.0,0.0,0.0,0.0,0.0,0.0,0.0,0.0,0.0,0.0,0.0,0.0,0.0,0.0,0.0,0.0,0.0,0.0,0.0,0.0,0.0,0.0,0.0,0.0,0.0,0.0,0.0,0.0,0.0,0.0,0.0,0.0,0.0,0.0,0.0,0.0,0.0,0.0,0.0,0.0,0.0,0.0,0.0,0.0,0.0,0.0,0.0,0.0,0.0,0.0,0.0,0.0,0.0,0.0,0.0,0.0,0.0,0.0,0.0,0.0,0.0,0.0,0.0,0.0,0.0,0.0,0.0,0.0,0.0,0.0,0.0,0.0,0.0,0.0,0.0,0.0,0.0,0.0,0.0,0.0,0.0,0.0,0.0,-1.3161,-1.5852,-1.73,-1.7827,-1.7209,-1.676,-1.6019,-1.4915,0.0,0.0,0.0,0.0,0.0,0.0,0.0,0.0,0.0,0.0,0.0,0.0,0.0,0.0,0.0,0.0,0.0,0.0,0.0,0.0,0.0,0.0,0.0,0.0,0.0,0.0,0.0,0.0,0.0,0.0,0.0,0.0,0.0,0.0,0.0,0.0,0.0,0.0,0.0,0.0,0.0,0.0,0.0,0.0,0.0,0.0,0.0,0.0,0.0,0.0,0.0,0.0,0.0,0.0,0.0,0.0,0.0,0.0,0.0,0.0,0.0,0.0,0.0,0.0,0.0,0.0,0.0,0.0,0.0,0.0,0.0,0.0,0.0,0.0,0.0,0.0,0.0,0.0,0.0,0.0,0.0,0.0,0.0,0.0,0.0,0.0,0.0,0.0,0.0,0.0,0.0,0.0,0.0,0.0,0.0,0.0,0.0,0.0,0.0,0.0,0.0,0.0,0.0,-1.3438,-1.5157,-1.7145,-1.8392,-1.8727,-1.7852,-1.7491,-1.6642,-1.5092,-1.3423,0.0,0.0,0.0,0.0,0.0,0.0,0.0,0.0,0.0,0.0,0.0,0.0,0.0,0.0,0.0,0.0,0.0,0.0,0.0,0.0,0.0,0.0,0.0,0.0,0.0,0.0,0.0,0.0,0.0,0.0,0.0,0.0,0.0,0.0,0.0,0.0,0.0,0.0,0.0,0.0,0.0,0.0,0.0,0.0,0.0,0.0,0.0,0.0,0.0,0.0,0.0,0.0,0.0,0.0,0.0,0.0,0.0,0.0,0.0,0.0,0.0,0.0,0.0,0.0,0.0,0.0,0.0,0.0,0.0,0.0,0.0,0.0,0.0,0.0,0.0,0.0,0.0,0.0,0.0,0.0,0.0,0.0,0.0,0.0,0.0,0.0,0.0,0.0,0.0,0.0,0.0,0.0,0.0,0.0,0.0,0.0,0.0,0.0,0.0,0.0,0.0,0.0,-1.5918,-1.7416,-1.8432,-1.9559,-1.9777,-1.8622,-1.8331,-1.7311,-1.5194,-1.3477,0.0,0.0,0.0,0.0,0.0,0.0,0.0,0.0,0.0,0.0,0.0,0.0,0.0,0.0,0.0,0.0,0.0,0.0,0.0,0.0,0.0,0.0,0.0,0.0,0.0,0.0,0.0,0.0,0.0,0.0,0.0,0.0,0.0,0.0,0.0,0.0,0.0,0.0,0.0,0.0,0.0,0.0,0.0,0.0,0.0,0.0,0.0,0.0,0.0,0.0,0.0,0.0,0.0,0.0,0.0,0.0,0.0,0.0,0.0,0.0,0.0,0.0,0.0,0.0,0.0,0.0,0.0,0.0,0.0,0.0,0.0,0.0,0.0,0.0,0.0,0.0,0.0,0.0,0.0,0.0,0.0,0.0,0.0,0.0,0.0,0.0,0.0,0.0,0.0,0.0,0.0,0.0,0.0,0.0,0.0,0.0,0.0,0.0,0.0,0.0,0.0,0.0,-1.72,-1.9128,-1.9712,-2.0838,-2.1069,-1.9883,-1.9205,-1.7898,-1.5697,-1.3929,0.0,0.0,0.0,0.0,0.0,0.0,0.0,0.0,0.0,0.0,0.0,0.0,0.0,0.0,0.0,0.0,0.0,0.0,0.0,0.0,0.0,0.0,0.0,0.0,0.0,0.0,0.0,0.0,0.0,0.0,0.0,0.0,0.0,0.0,0.0,0.0,0.0,0.0,0.0,0.0,0.0,0.0,0.0,0.0,0.0,0.0,0.0,0.0,0.0,0.0,0.0,0.0,0.0,0.0,0.0,0.0,0.0,0.0,0.0,0.0,0.0,0.0,0.0,0.0,0.0,0.0,0.0,0.0,0.0,0.0,0.0,0.0,0.0,0.0,0.0,0.0,0.0,0.0,0.0,0.0,0.0,0.0,0.0,0.0,0.0,0.0,0.0,0.0,0.0,0.0,0.0,0.0,0.0,0.0,0.0,0.0,0.0,0.0,0.0,0.0,0.0,0.0,-1.7929,-1.9757,0.0,-2.1468,-2.1708,-2.0508,-1.945,-1.7839,-1.5497,0.0,0.0,0.0,0.0,0.0,0.0,0.0,0.0,0.0,0.0,0.0,0.0,0.0,0.0,0.0,0.0,0.0,0.0,0.0,0.0,0.0,0.0,0.0,0.0,0.0,0.0,0.0,0.0,0.0,0.0,0.0,0.0,0.0,0.0,0.0,0.0,0.0,0.0,0.0,0.0,0.0,0.0,0.0,0.0,0.0,0.0,0.0,0.0,0.0,0.0,0.0,0.0,0.0,0.0,0.0,0.0,0.0,0.0,0.0,0.0,0.0,0.0,0.0,0.0,0.0,0.0,0.0,0.0,0.0,0.0,0.0,0.0,0.0,0.0,0.0,0.0,0.0,0.0,0.0,0.0,0.0,0.0,0.0,0.0,0.0,0.0,0.0,0.0,0.0,0.0,0.0,0.0,0.0,0.0,0.0,0.0,0.0,0.0,0.0,0.0,0.0,0.0,-1.6356,-1.8856,-2.0639,0.0,-2.2229,-2.2352,-2.1122,-2.0035,-1.8332,-1.5827,0.0,0.0,0.0,0.0,0.0,0.0,0.0,0.0,0.0,0.0,0.0,0.0,0.0,0.0,0.0,0.0,0.0,0.0,0.0,0.0,0.0,0.0,0.0,0.0,0.0,0.0,0.0,0.0,0.0,0.0,0.0,0.0,0.0,0.0,0.0,0.0,0.0,0.0,0.0,0.0,0.0,0.0,0.0,0.0,0.0,0.0,0.0,0.0,0.0,0.0,0.0,0.0,0.0,0.0,0.0,0.0,0.0,0.0,0.0,0.0,0.0,0.0,0.0,0.0,0.0,0.0,0.0,0.0,0.0,0.0,0.0,0.0,0.0,0.0,0.0,0.0,0.0,0.0,0.0,0.0,0.0,0.0,0.0,0.0,0.0,0.0,0.0,0.0,0.0,0.0,0.0,0.0,0.0,0.0,0.0,0.0,0.0,0.0,0.0,0.0,0.0,0.0,-1.737,-2.0047,-2.1961,-2.2634,-2.3236,-2.3082,-2.1815,-2.1088,-1.9565,0.0,0.0,0.0,0.0,0.0,0.0,0.0,0.0,0.0,0.0,0.0,0.0,0.0,0.0,0.0,0.0,0.0,0.0,0.0,0.0,0.0,0.0,0.0,0.0,0.0,0.0,0.0,0.0,0.0,0.0,0.0,0.0,0.0,0.0,0.0,0.0,0.0,0.0,0.0,0.0,0.0,0.0,0.0,0.0,0.0,0.0,0.0,0.0,0.0,0.0,0.0,0.0,0.0,0.0,0.0,0.0,0.0,0.0,0.0,0.0,0.0,0.0,0.0,0.0,0.0,0.0,0.0,0.0,0.0,0.0,0.0,0.0,0.0,0.0,0.0,0.0,0.0,0.0,0.0,0.0,0.0,0.0,0.0,0.0,0.0,0.0,0.0,0.0,0.0,0.0,0.0,0.0,0.0,0.0,0.0,0.0,0.0,0.0,0.0,0.0,0.0,0.0,0.0,-1.7997,-2.0319,-2.1961,-2.2634,-2.3236,-2.308,-2.1814,-2.1081,-1.9558,-1.6869,0.0,0.0,0.0,0.0,0.0,0.0,0.0,0.0,0.0,0.0,0.0,0.0,0.0,0.0,0.0,0.0,0.0,0.0,0.0,0.0,0.0,0.0,0.0,0.0,0.0,0.0,0.0,0.0,0.0,0.0,0.0,0.0,0.0,0.0,0.0,0.0,0.0,0.0,0.0,0.0,0.0,0.0,0.0,0.0,0.0,0.0,0.0,0.0,0.0,0.0,0.0,0.0,0.0,0.0,0.0,0.0,0.0,0.0,0.0,0.0,0.0,0.0,0.0,0.0,0.0,0.0,0.0,0.0,0.0,0.0,0.0,0.0,0.0,0.0,0.0,0.0,0.0,0.0,0.0,0.0,0.0,0.0,0.0,0.0,0.0,0.0,0.0,0.0,0.0,0.0,0.0,0.0,0.0,0.0,0.0,0.0,0.0,0.0,0.0,0.0,0.0,0.0,-1.8642,-2.0625,-2.2059,-2.2957,-2.337,-2.3191,-2.2194,-2.1479,-2.0083,-1.7651,0.0,0.0,0.0,0.0,0.0,0.0,0.0,0.0,0.0,0.0,0.0,0.0,0.0,0.0,0.0,0.0,0.0,0.0,0.0,0.0,0.0,0.0,0.0,0.0,0.0,0.0,0.0,0.0,0.0,0.0,0.0,0.0,0.0,0.0,0.0,0.0,0.0,0.0,0.0,0.0,0.0,0.0,0.0,0.0,0.0,0.0,0.0,0.0,0.0,0.0,0.0,0.0,0.0,0.0,0.0,0.0,0.0,0.0,0.0,0.0,0.0,0.0,0.0,0.0,0.0,0.0,0.0,0.0,0.0,0.0,0.0,0.0,0.0,0.0,0.0,0.0,0.0,0.0,0.0,0.0,0.0,0.0,0.0,0.0,0.0,0.0,0.0,0.0,0.0,0.0,0.0,0.0,0.0,0.0,0.0,0.0,0.0,0.0,0.0,0.0,0.0,0.0,-1.9199,-2.0872,-2.2183,-2.346,-2.3595,-2.3355,-2.2748,-2.2083,-2.0842,-1.8823,0.0,0.0,0.0,0.0,0.0,0.0,0.0,0.0,0.0,0.0,0.0,0.0,0.0,0.0,0.0,0.0,0.0,0.0,0.0,0.0,0.0,0.0,0.0,0.0,0.0,0.0,0.0,0.0,0.0,0.0,0.0,0.0,0.0,0.0,0.0,0.0,0.0,0.0,0.0,0.0,0.0,0.0,0.0,0.0,0.0,0.0,0.0,0.0,0.0,0.0,0.0,0.0,0.0,0.0,0.0,0.0,0.0,0.0,0.0,0.0,-1.9498,0.0,0.0,0.0,0.0,0.0,0.0,0.0,0.0,0.0,0.0,0.0,0.0,0.0,0.0,0.0,0.0,0.0,0.0,0.0,0.0,0.0,0.0,0.0,0.0,0.0,0.0,0.0,0.0,0.0,0.0,0.0,0.0,0.0,0.0,0.0,0.0,0.0,0.0,0.0,0.0,0.0,-1.9258,-2.0861,-2.2179,-2.3454,-2.3595,-2.3355,-2.2748,-2.2099,-2.0839,-1.8841,-1.6743,0.0,0.0,0.0,0.0,0.0,0.0,0.0,0.0,0.0,0.0,0.0,0.0,0.0,0.0,0.0,0.0,0.0,0.0,0.0,0.0,0.0,0.0,0.0,0.0,0.0,0.0,0.0,0.0,0.0,0.0,0.0,0.0,0.0,0.0,0.0,0.0,0.0,0.0,0.0,0.0,0.0,0.0,0.0,0.0,0.0,0.0,0.0,0.0,0.0,0.0,0.0,0.0,0.0,0.0,0.0,0.0,0.0,0.0,0.0,0.0,-2.156,0.0,0.0,0.0,0.0,0.0,0.0,0.0,0.0,0.0,0.0,0.0,0.0,0.0,0.0,0.0,0.0,0.0,0.0,0.0,0.0,0.0,0.0,0.0,0.0,0.0,0.0,0.0,0.0,0.0,0.0,0.0,0.0,0.0,0.0,0.0,0.0,0.0,0.0,0.0,0.0,-1.9288,-2.0871,-2.2183,-2.3454,-2.3595,-2.3475,-2.3167,-2.2248,-2.1126,-1.9765,-1.7505,0.0,0.0,0.0,0.0,0.0,0.0,0.0,0.0,0.0,0.0,0.0,0.0,0.0,0.0,0.0,0.0,0.0,0.0,0.0,0.0,0.0,0.0,0.0,0.0,0.0,0.0,0.0,0.0,0.0,0.0,0.0,0.0,0.0,0.0,0.0,0.0,0.0,0.0,0.0,0.0,0.0,0.0,0.0,0.0,0.0,0.0,0.0,0.0,0.0,0.0,0.0,0.0,0.0,-2.4358,-2.5106,-2.6303,-2.6408,-2.6826,-2.7365,-2.5824,-2.4822,-2.4238,-2.3631,0.0,0.0,0.0,0.0,0.0,0.0,0.0,0.0,0.0,0.0,0.0,0.0,0.0,0.0,0.0,0.0,0.0,0.0,0.0,0.0,0.0,0.0,0.0,0.0,-2.0453,-1.9768,0.0,0.0,0.0,0.0,0.0,0.0,0.0,0.0,0.0,0.0,0.0,0.0,-1.9465,-2.1039,-2.2313,-2.349,-2.3595,-2.3595,-2.3595,-2.2532,-2.1545,-2.0748,-1.8504,-1.6802,0.0,0.0,0.0,0.0,0.0,0.0,0.0,0.0,0.0,0.0,0.0,0.0,0.0,0.0,0.0,0.0,0.0,0.0,0.0,0.0,0.0,0.0,0.0,0.0,0.0,0.0,0.0,0.0,0.0,0.0,0.0,0.0,-0.989,-1.0598,0.0,0.0,0.0,0.0,0.0,0.0,0.0,0.0,0.0,0.0,0.0,0.0,0.0,-2.1575,-2.2936,-2.4208,-2.5285,-2.6213,-2.738,-2.8338,-2.9097,-2.9624,-3.0238,-3.0868,-3.1182,0.0,-2.7016,-2.6372,0.0,0.0,0.0,0.0,0.0,0.0,0.0,0.0,0.0,0.0,0.0,0.0,0.0,0.0,0.0,0.0,0.0,0.0,0.0,0.0,0.0,0.0,-2.3236,-2.3812,-2.3498,-2.2847,0.0,-2.0486,-1.8882,-1.7459,-1.6712,0.0,0.0,0.0,0.0,0.0,0.0,0.0,-2.0285,-2.1754,-2.2826,-2.3535,-2.3595,-2.3595,-2.3595,-2.2972,-2.2024,-2.0778,-1.9824,-1.8255,-1.5903,-1.5544,0.0,0.0,0.0,0.0,0.0,0.0,0.0,0.0,0.0,0.0,0.0,0.0,0.0,0.0,0.0,0.0,0.0,0.0,0.0,0.0,0.0,0.0,0.0,0.0,0.0,0.0,0.0,0.0,0.0,-1.0309,-1.1771,-1.2407,-1.281,-1.3166,0.0,0.0,0.0,0.0,0.0,0.0,0.0,0.0,0.0,-2.141,-2.2661,-2.4148,-2.5833,-2.6797,-2.7993,-2.9343,-2.9941,-3.0791,-3.1794,-3.2063,-3.2347,-3.2647,-3.2946,-3.2243,-3.0819,-2.937,-2.8023,-2.6707,0.0,0.0,0.0,0.0,-2.4433,-2.5024,-2.5024,-2.5219,0.0,-2.4657,0.0,0.0,0.0,0.0,0.0,0.0,0.0,0.0,0.0,0.0,-2.4807,-2.5083,-2.4956,-2.4657,-2.4388,-2.334,-2.1859,0.0,-1.8835,-1.7968,-1.6667,0.0,0.0,0.0,0.0,-1.9005,-2.0996,-2.2099,-2.293,-2.3556,-2.3595,-2.3595,-2.3595,-2.3062,-2.2298,-2.1321,-2.0273,-1.9019,-1.7475,-1.6368,-1.5079,0.0,0.0,0.0,0.0,0.0,0.0,0.0,0.0,0.0,0.0,0.0,0.0,0.0,0.0,0.0,0.0,0.0,0.0,0.0,0.0,0.0,0.0,0.0,0.0,0.0,0.0,0.0,0.0,-1.2598,-1.3807,-1.447,-1.5127,-1.5605,0.0,0.0,0.0,0.0,0.0,0.0,-2.0412,-2.141,-2.2712,-2.4313,-2.5173,-2.6512,-2.8334,-2.9011,-3.0135,-3.1765,-3.1929,-3.2632,-3.3739,-3.3739,-3.3844,-3.4008,-3.4008,-3.3903,-3.3604,-3.1764,-3.0447,-2.946,-2.8113,-2.7993,-2.8528,-2.7844,-2.8008,-2.8618,-2.8618,-2.8618,-2.8528,-2.8008,-2.7186,-2.6033,-2.4245,0.0,0.0,0.0,0.0,-2.3475,-2.4769,-2.5472,-2.5899,-2.6078,-2.6108,-2.6063,-2.5899,-2.5457,-2.438,0.0,-2.0782,-1.9839,-1.867,0.0,0.0,0.0,0.0,-2.008,-2.1754,-2.2525,-2.3116,-2.3535,-2.3595,-2.3595,-2.3595,-2.3062,-2.2418,-2.1739,-2.0602,-1.957,-1.8732,-1.7162,-1.5904,-1.5065,0.0,0.0,0.0,0.0,0.0,0.0,0.0,0.0,0.0,0.0,0.0,0.0,0.0,0.0,0.0,0.0,0.0,0.0,0.0,0.0,0.0,0.0,0.0,0.0,0.0,0.0,0.0,0.0,0.0,-1.6488,-1.7145,0.0,0.0,0.0,0.0,-2.0344,-2.1126,-2.1819,-2.2508,-2.4328,-2.5689,-2.6422,-2.7709,-2.9026,-3.0342,-3.1017,-3.172,-3.2452,-3.3095,-3.3754,-3.4459,-3.4459,-3.4786,-3.54,-3.54,-3.504,-3.4354,-3.2976,-3.2377,-3.2183,-3.0836,-3.0703,-3.1227,-3.0567,-3.0746,-3.1301,-3.1301,-3.1301,-3.1301,-3.1271,-2.9971,-2.8188,-2.6811,-2.545,0.0,0.0,-2.4963,-2.4814,-2.6153,-2.6512,-2.6692,-2.7345,-2.7495,-2.733,-2.6701,-2.6512,-2.5899,0.0,-2.2443,-2.138,-2.0658,0.0,-1.9735,-2.0434,-2.113,-2.1824,-2.2553,-2.3182,-2.3565,-2.3595,-2.3595,-2.3595,-2.3595,-2.3062,-2.2418,-2.1739,-2.1051,-2.006,-1.8762,-1.7997,-1.7026,-1.5769,-1.376,0.0,0.0,0.0,0.0,0.0,0.0,0.0,0.0,0.0,0.0,0.0,0.0,0.0,0.0,0.0,0.0,0.0,0.0,0.0,0.0,0.0,0.0,0.0,0.0,0.0,0.0,0.0,0.0,-1.8508,-1.96,0.0,-2.122,-2.107,-2.156,-2.3095,-2.3827,-2.4687,-2.5788,-2.6916,-2.8023,-2.9086,-2.9579,-3.0253,-3.1122,-3.1795,-3.2497,-3.3155,-3.3814,-3.4487,-3.513,-3.513,-3.5265,-3.5504,-3.5504,-3.537,-3.51,-3.4637,-3.3933,-3.3095,-3.2617,-3.2587,-3.2766,-3.2527,-3.2587,-3.2796,-3.2796,-3.2796,-3.2632,-3.178,-3.0492,-2.9056,-2.8158,-2.7245,-2.6662,-2.735,-2.7051,-2.6737,-2.7649,-2.756,-2.73,-2.754,-2.76,-2.7525,-2.73,-2.6911,-2.6378,-2.5659,-2.4118,-2.2847,-2.2607,-2.168,-2.1201,-2.1874,-2.2189,-2.257,-2.3197,-2.346,-2.3595,-2.3595,-2.3595,-2.3595,-2.3595,-2.3062,-2.2418,-2.1739,-2.1062,-2.0303,-1.9375,-1.8281,-1.7489,-1.7041,-1.5096,-1.3537,0.0,0.0,0.0,0.0,0.0,0.0,0.0,0.0,0.0,0.0,0.0,0.0,0.0,0.0,0.0,0.0,0.0,0.0,0.0,0.0,0.0,0.0,0.0,0.0,0.0,0.0,-1.9465,-2.0591,-2.1874,-2.2847,-2.3295,-2.3535,-2.4208,-2.5501,-2.6243,-2.7096,-2.8229,-2.8876,-2.9639,-3.0477,-3.0731,-3.1152,-3.1824,-3.2512,-3.317,-3.3844,-3.4502,-3.5055,-3.5504,-3.5504,-3.5504,-3.5504,-3.5504,-3.5504,-3.5504,-3.5504,-3.4981,-3.4173,-3.4173,-3.4173,-3.4173,-3.4173,-3.4173,-3.4143,-3.3903,-3.3679,-3.332,-3.2183,-3.1092,-3.0163,-2.9714,-2.9101,-2.8678,-2.9116,-2.8757,-2.8378,-2.8816,-2.8427,-2.7944,-2.7944,-2.7764,-2.76,-2.76,-2.7255,-2.6941,-2.6941,-2.5495,-2.4208,-2.3984,-2.3251,-2.2757,-2.2972,-2.2999,-2.3155,-2.3535,-2.3595,-2.3595,-2.3595,-2.3595,-2.352,-2.331,-2.2733,-2.2089,-2.1395,-2.0737,-2.0168,-1.9723,-1.8627,-1.7938,-1.7713,-1.5788,-1.4031,-1.2472,0.0,0.0,0.0,0.0,0.0,0.0,0.0,0.0,0.0,0.0,0.0,0.0,0.0,0.0,0.0,0.0,0.0,0.0,0.0,0.0,0.0,0.0,0.0,-1.7594,-2.0064,-2.1979,-2.2703,-2.3924,-2.4709,-2.4724,-2.5322,-2.6258,-2.7555,-2.8263,-2.8936,-2.9606,-3.0193,-3.0537,-3.0537,-3.1152,-3.1824,-3.2497,-3.3155,-3.3829,-3.4518,-3.5175,-3.5504,-3.5504,-3.5504,-3.5504,-3.5504,-3.5504,-3.5504,-3.5504,-3.5504,-3.5504,-3.5504,-3.5504,-3.5504,-3.5504,-3.5504,-3.5504,-3.5415,-3.4773,-3.4083,-3.3425,-3.2766,-3.2064,-3.1525,-3.1511,-3.1032,-3.0537,-3.0537,-3.0088,-2.9636,-2.9636,-2.9131,-2.8622,-2.8607,-2.8109,-2.763,-2.76,-2.76,-2.76,-2.76,-2.6542,-2.5442,-2.4784,-2.4634,-2.438,-2.3729,-2.361,0.0,-2.3595,-2.3595,-2.3595,-2.3595,-2.358,-2.3325,-2.2748,-2.2074,-2.1395,-2.0733,-2.0064,-1.9708,-1.9708,-1.9046,-1.8371,-1.7667,-1.583,-1.387,-1.1899,0.0,0.0,0.0,0.0,0.0,0.0,0.0,0.0,0.0,0.0,0.0,0.0,0.0,0.0,0.0,0.0,0.0,0.0,0.0,0.0,0.0,-1.7326,-1.8749,-1.9091,-2.1041,-2.3032,-2.4612,-2.5959,-2.6961,-2.7455,-2.8113,-2.8637,-2.9022,-2.9624,-3.0058,-3.0238,-3.0881,-3.1227,-3.1227,-3.1406,-3.1824,-3.2497,-3.3155,-3.3829,-3.4518,-3.5175,-3.5504,-3.5504,-3.5504,-3.5504,-3.5504,-3.5504,-3.5504,-3.5504,-3.5504,-3.5504,-3.5504,-3.5504,-3.5504,-3.5504,-3.5504,-3.5504,-3.5474,-3.5295,-3.4786,-3.4129,-3.344,-3.2781,-3.2123,-3.1645,-3.1376,-3.1227,-3.1227,-3.0776,-3.0253,-3.0253,-2.9789,-2.919,-2.8712,-2.8457,-2.8173,-2.7705,-2.76,-2.76,-2.76,-2.73,-2.6851,-2.6168,-2.5232,-2.4545,-2.435,-2.3924,0.0,-2.3595,-2.3595,-2.3595,-2.3595,-2.3022,-2.2679,-2.2703,-2.1635,-2.0897,-2.0703,-2.0064,-1.9708,-1.9708,-1.9046,-1.8147,-1.701,-1.6458,-1.5446,0.0,0.0,0.0,0.0,0.0,0.0,0.0,0.0,0.0,0.0,0.0,0.0,0.0,0.0,0.0,0.0,0.0,0.0,0.0,0.0,0.0,0.0,-1.9645,-2.125,-2.2054,-2.3176,-2.4537,-2.6228,-2.7375,-2.8289,-2.8951,-2.9594,-2.9968,-2.9968,-3.0567,-3.0913,-3.0913,-3.1286,-3.1511,-3.1511,-3.1511,-3.1959,-3.2916,-3.3305,-3.3978,-3.4906,-3.531,-3.5504,-3.5504,-3.5504,-3.5504,-3.5504,-3.5504,-3.5504,-3.5504,-3.5504,-3.5504,0.0,0.0,0.0,0.0,0.0,-3.5504,-3.5504,-3.5504,-3.5055,-3.4444,-3.4038,-3.3275,-3.2437,-3.2034,-3.172,-3.1511,-3.1511,-3.1212,-3.0913,-3.0913,-3.0447,-2.9804,-2.916,-2.8801,-2.8412,-2.775,-2.76,-2.76,-2.76,-2.76,0.0,-2.7091,-2.6138,-2.5247,-2.4694,-2.4365,-2.4043,-2.364,-2.3595,-2.3595,-2.3595,-2.3148,-2.282,-2.2718,-2.1999,0.0,0.0,0.0,-1.9989,-1.9708,-1.9046,0.0,0.0,0.0,0.0,0.0,0.0,0.0,0.0,-1.3119,-1.3336,0.0,0.0,0.0,0.0,0.0,0.0,0.0,0.0,0.0,0.0,0.0,0.0,0.0,0.0,0.0,0.0,-2.1669,-2.3571,-2.545,-2.5779,-2.6303,-2.757,-2.8293,-2.8966,-2.9651,-3.0253,-3.0612,-3.0612,-3.1152,-3.1511,-3.1511,0.0,0.0,0.0,0.0,-3.2138,-3.3484,-3.3499,-3.4173,-3.5504,-3.5504,-3.5504,-3.5504,-3.5504,-3.5504,-3.5504,-3.5504,-3.5504,-3.5504,-3.5504,-3.5504,-3.5504,-3.5504,-3.5504,-3.5504,-3.5504,-3.5504,-3.5504,-3.5504,0.0,0.0,-3.4533,-3.3634,-3.2617,-3.2512,-3.2034,-3.1511,-3.1511,-3.1511,-3.1511,-3.1511,-3.1047,-3.0447,-2.9771,-2.9146,-2.8502,-2.7764,-2.76,-2.76,-2.76,-2.76,-2.76,-2.76,-2.7046,-2.6198,-2.4993,-2.4829,-2.4537,-2.3701,-2.3603,-2.3595,-2.3595,0.0,0.0,-2.2849,-2.2714,-2.2139,-2.0882,-2.0808,-2.0557,-1.9947,-1.9346,-1.9001,-1.8927,-1.8416,-1.7829,-1.7151,-1.7829,-1.7818,-1.712,-1.5772,-1.5728,0.0,0.0,0.0,0.0,0.0,0.0,0.0,0.0,0.0,0.0,0.0,0.0,0.0,0.0,0.0,-2.1684,-2.331,-2.4739,-2.6198,-2.6881,-2.7525,-2.8308,-2.8981,-2.9639,-3.0268,-3.0913,-3.1316,-3.1316,-3.1436,-3.1511,-3.1511,-3.1511,-3.1511,-3.1511,-3.1511,-3.2138,-3.3484,-3.3499,-3.4173,-3.5504,0.0,0.0,-3.5504,-3.5504,-3.5504,-3.5504,-3.5504,-3.5504,-3.5504,-3.5504,-3.5504,-3.5504,-3.5504,-3.5504,-3.5504,-3.5504,-3.5504,-3.5504,-3.5504,-3.5415,-3.522,-3.4698,-3.3948,-3.32,-3.2677,-3.2034,0.0,-3.1511,-3.1511,-3.1511,-3.1511,-3.1406,-3.1017,-2.9864,-2.9517,-2.9082,-2.7854,-2.76,-2.76,-2.76,-2.76,-2.76,-2.76,-2.7046,-2.6497,-2.6243,-2.4877,-2.3814,-2.3629,-2.3592,-2.3595,-2.3595,-2.3592,-2.3552,-2.343,-2.2778,-2.2119,-2.153,-2.1515,-2.144,-2.1321,-2.1186,-2.0872,-2.0314,-2.0722,-2.0603,-1.9935,-2.0612,-2.059,-1.9888,-1.8011,-1.7259,0.0,0.0,0.0,0.0,0.0,0.0,0.0,0.0,0.0,0.0,0.0,-1.6562,-1.9208,0.0,-2.1455,-2.3774,-2.4971,-2.5959,-2.6971,-2.739,-2.7974,-2.8966,-2.9412,-2.9968,-3.0898,-3.1301,-3.1511,-3.1511,-3.1511,-3.1511,-3.1511,-3.1511,-3.1511,-3.1511,-3.1824,-3.2467,-3.3484,-3.3829,-3.4502,-3.5504,-3.5504,-3.5504,-3.5504,-3.5504,-3.5504,-3.5504,-3.5504,-3.5504,-3.5504,-3.5504,-3.5504,-3.5504,-3.5504,-3.5504,-3.5504,-3.5504,-3.5504,-3.5504,-3.5504,-3.5504,-3.5444,-3.51,-3.4307,-3.344,-3.3095,-3.2288,-3.1511,-3.1511,-3.1511,-3.1511,-3.1511,-3.1511,-3.1182,-2.9894,-2.9606,-2.9232,-2.7884,-2.76,-2.76,-2.76,-2.76,-2.76,-2.76,-2.733,-2.7001,-2.6632,-2.6033,-2.5125,-2.3775,-2.3615,-2.3606,-2.3588,-2.3603,-2.3592,-2.3592,-2.2923,-2.241,-2.2209,-2.1874,-2.1695,-2.1695,-2.1695,-2.1545,-2.1216,-2.153,-2.1549,-2.1201,-2.154,-2.1532,-2.1177,-2.0177,-1.9337,0.0,0.0,0.0,0.0,0.0,0.0,0.0,0.0,-1.522,-1.7741,-1.8265,-1.9059,-2.1605,-2.2523,-2.3526,-2.548,-2.6243,-2.6811,-2.751,-2.76,-2.8049,-2.9277,-2.9532,-3.0103,-3.1376,-3.1511,-3.1511,-3.1511,-3.1511,-3.1511,-3.1511,-3.1511,-3.157,-3.169,-3.2213,-3.2886,-3.3679,-3.4234,-3.4848,-3.5504,-3.5504,-3.5504,-3.5504,-3.5504,-3.5504,-3.5504,-3.5504,-3.5504,-3.5504,-3.5504,-3.5504,-3.5504,-3.5504,-3.5504,-3.5504,-3.5504,-3.5504,-3.5504,-3.5504,-3.5504,-3.5504,-3.5504,-3.4592,-3.3499,-3.3499,-3.2572,-3.1511,-3.1511,-3.1511,-3.1511,-3.1511,-3.1511,-3.1182,-2.9894,-2.9606,-2.9232,-2.7884,-2.76,-2.76,-2.76,-2.76,-2.76,-2.76,-2.76,-2.742,-2.6881,-2.7252,-2.6814,-2.466,-2.3916,-2.3599,-2.3606,-2.3596,-2.3595,-2.3595,-2.3152,-2.2882,-2.2882,-2.2353,-2.2069,-2.2069,-2.2069,-2.2069,-2.2069,-2.2069,-2.2069,-2.2069,-2.2069,-2.2017,-2.1893,-2.1899,-2.1254,-1.212,-1.2729,-1.3719,-1.3795,-1.4419,-1.5266,0.0,0.0,-1.7602,-1.976,-2.0269,-2.0972,-2.3011,-2.3445,-2.4148,-2.6153,-2.6542,-2.6811,-2.751,-2.76,-2.7884,-2.8622,-2.922,-3.0103,-3.1376,-3.1511,-3.1511,-3.1511,-3.1511,-3.1511,-3.1511,-3.1511,-3.1765,-3.2363,-3.2452,-3.311,-3.4384,-3.4474,-3.4848,-3.5504,-3.5504,-3.5504,-3.5504,-3.5504,-3.5504,-3.5504,-3.5504,-3.5504,-3.5504,-3.5504,-3.5504,-3.5504,-3.5504,-3.5504,-3.5504,-3.5504,-3.5504,-3.5504,-3.5504,-3.5504,-3.5504,-3.5504,-3.4592,-3.3499,-3.3499,-3.2572,-3.1511,-3.1511,-3.1511,-3.1511,-3.1511,-3.1511,-3.1182,-2.9894,-2.9606,-2.9232,-2.7884,-2.76,-2.76,-2.76,-2.76,-2.76,-2.76,-2.76,-2.757,-2.7495,-2.7554,-2.7488,-2.7197,-2.508,-2.3606,-2.3599,-2.3606,-2.3595,-2.3595,-2.3535,-2.349,-2.349,-2.343,-2.3385,-2.3385,-2.3385,-2.3385,-2.3385,-2.3385,-2.3385,-2.3385,-2.3385,-2.3108,-2.259,-2.2589,-2.2194,-1.378,-1.4055,-1.4675,0.0,-1.606,-1.6711,-1.7722,-1.8366,-1.9261,-2.1067,-2.1648,-2.2458,-2.4418,-2.4762,-2.5285,0.0,-2.718,-2.7285,-2.7555,-2.76,-2.7854,-2.8517,-2.8846,-2.952,-3.0778,-3.0913,-3.1077,-3.1466,-3.1511,-3.1511,-3.1511,-3.1511,-3.1809,-3.2497,-3.2886,-3.3529,-3.4503,-3.4876,-3.522,-3.5504,-3.5504,-3.5504,-3.5504,-3.5504,-3.5504,-3.5504,-3.5504,-3.5504,-3.5504,-3.5504,-3.5504,-3.5504,-3.5504,-3.5504,-3.5504,-3.5504,-3.5504,-3.5504,-3.5504,-3.5504,-3.5444,-3.504,-3.4262,-3.3425,-3.3036,-3.2243,-3.1511,-3.1511,-3.1511,-3.1511,-3.1511,-3.1212,-3.0717,-2.9804,-2.928,-2.8742,-2.7809,-2.76,-2.76,-2.76,-2.76,-2.76,-2.76,-2.76,-2.76,-2.76,-2.761,-2.7323,-2.6531,-2.5715,-2.4768,-2.3703,-2.3604,-2.3595,-2.3595,-2.3595,-2.3595,-2.3595,-2.3595,-2.3595,-2.3595,-2.3595,-2.3595,-2.3595,-2.3595,-2.3595,-2.3595,-2.3595,-2.3477,-2.322,-2.322,-2.3062,-1.5035,-1.5236,0.0,-1.6714,-1.7308,-1.7878,-1.896,-1.9648,-2.047,-2.1896,-2.2546,-2.3366,-2.5015,-2.5472,-2.5974,-2.7151,-2.748,-2.76,-2.76,-2.76,-2.7779,-2.8263,-2.8308,-2.8757,-2.9879,-3.0298,-3.0717,-3.1182,-3.1406,-3.1511,-3.1511,-3.1511,-3.1884,-3.2766,-3.3245,-3.3903,-3.4788,-3.525,-3.5504,-3.5504,-3.5504,-3.5504,-3.5504,-3.5504,-3.5504,-3.5504,-3.5504,-3.5504,-3.5504,-3.5504,-3.5504,-3.5504,-3.5504,-3.5504,-3.5504,-3.5504,-3.5504,-3.5504,-3.5504,-3.5385,-3.513,-3.4668,-3.3903,-3.314,-3.2662,-3.2034,-3.1511,-3.1511,-3.1511,-3.1466,-3.1271,-3.0853,-3.0298,-2.9505,-2.8951,-2.8412,-2.775,-2.76,-2.76,-2.76,-2.76,-2.76,-2.76,-2.76,-2.76,-2.76,-2.7435,-2.6986,-2.6004,-2.592,-2.5349,-2.3781,-2.3595,-2.3595,-2.3595,-2.3595,-2.3595,-2.3595,-2.3595,-2.3595,-2.3595,-2.3595,-2.3595,-2.3595,-2.3595,-2.3595,-2.3595,-2.3595,-2.3595,-2.3595,-2.3595,-2.3595,-1.5399,-1.6057,-1.6619,-1.7318,-1.808,-1.8923,-1.9934,-2.0561,-2.1251,-2.2272,-2.2905,-2.3533,-2.4372,-2.5126,-2.5839,-2.6512,-2.718,-2.76,-2.76,-2.76,-2.76,-2.763,-2.763,-2.7899,-2.8592,-2.9774,-3.0507,-3.0537,-3.1122,-3.1511,-3.1511,-3.1511,-3.2093,-3.3425,-3.3484,-3.4128,-3.5459,-3.5489,-3.5504,-3.5504,-3.5504,-3.5504,-3.5504,-3.5504,-3.5504,-3.5504,-3.5504,-3.5504,-3.5504,-3.5504,-3.5504,-3.5504,-3.5504,-3.5504,-3.5504,-3.5504,-3.5504,-3.5504,-3.5504,-3.507,-3.4533,-3.4518,-3.3604,-3.2542,-3.2527,-3.2034,-3.1511,-3.1511,-3.1511,-3.1346,-3.0717,-3.0522,-3.0178,-2.8936,-2.8607,-2.8412,-2.775,-2.76,-2.76,-2.76,-2.76,-2.76,-2.76,-2.76,-2.76,-2.76,-2.7061,-2.6626,-2.6557,-2.5678,-2.4679,-2.3684,-2.3595,-2.3595,-2.3595,-2.3595,-2.3595,-2.3595,-2.3595,-2.3595,-2.3595,-2.3595,-2.3595,-2.3595,-2.3595,-2.3595,-2.3595,-2.3595,-2.3595,-2.3595,-2.3595,-2.3595,-1.6045,0.0,-1.7313,-1.8253,-1.869,-1.9126,-1.9996,-2.0543,-2.1066,-2.1762,-2.207,-2.2643,-2.398,-2.4268,-2.4777,-2.6333,-2.6806,-2.7091,-2.754,-2.76,-2.76,-2.76,-2.76,0.0,-2.8532,0.0,0.0,-3.0477,-3.1122,-3.1511,-3.1511,-3.1511,-3.1914,-3.2826,-3.326,-3.3918,-3.4816,-3.528,-3.5504,-3.5504,-3.5504,-3.5504,-3.5504,-3.5504,-3.5504,-3.5504,-3.5504,-3.5504,-3.5504,-3.5504,-3.5504,-3.5459,-3.4996,-3.4848,-3.4771,-3.4337,-3.4173,-3.4233,-3.4666,-3.4382,-3.3754,-3.332,-3.2871,-3.2437,-3.1974,-3.1675,-3.1511,-3.1511,-3.1182,-3.0763,-3.0567,-2.9879,-2.9131,-2.8697,-2.8248,-2.7884,-2.7645,-2.76,-2.76,-2.76,-2.76,-2.76,-2.76,-2.76,-2.73,-2.6408,-2.6078,-2.5779,-2.5322,-2.4575,-2.3946,-2.3625,-2.3595,-2.3595,-2.3595,-2.3595,-2.3595,-2.3595,-2.3595,-2.3595,-2.3595,-2.3595,-2.3595,-2.3595,-2.3595,-2.3595,-2.3595,-2.3595,-2.3595,-2.3595,-2.3595,-2.3595,-1.6889,-1.7677,-1.8367,-1.887,-1.9296,-1.9699,-2.0055,-2.0267,-2.0516,-2.1036,-2.1215,-2.1607,-2.2767,-2.3319,-2.4103,-2.5644,-2.6288,-2.6811,-2.751,-2.76,-2.76,-2.76,-2.7809,-2.8139,0.0,0.0,0.0,-3.0477,-3.1122,-3.1511,-3.1511,-3.1511,-3.1809,-3.2497,-3.2916,-3.3574,-3.4503,-3.4921,-3.5265,-3.5504,-3.5504,-3.5504,-3.5504,-3.5504,-3.5504,-3.5504,-3.5504,-3.5504,-3.5504,-3.5504,-3.5355,-3.51,-3.4683,-3.4354,-3.4099,-3.3649,-3.335,-3.3245,-3.3903,-3.3694,-3.308,-3.2647,-3.2333,-3.2049,-3.163,-3.1511,-3.1511,-3.1511,-3.1182,-3.0761,-3.0298,-2.9564,-2.8831,-2.8353,-2.7914,-2.76,-2.76,-2.76,-2.76,-2.76,-2.76,-2.76,-2.76,-2.76,-2.7151,-2.5809,-2.5615,-2.5262,-2.435,-2.3879,-2.3595,-2.3595,-2.3595,-2.3595,-2.3595,-2.3595,-2.3595,-2.3595,-2.3595,-2.3595,-2.3595,-2.3595,-2.3595,-2.3595,-2.3595,-2.3595,-2.3595,-2.3595,-2.3595,-2.3595,-2.3595,-2.3595,-1.799,-1.907,-1.9761,-1.9221,-1.9899,-2.0567,-2.0053,-1.9747,-1.9699,-2.0094,-2.0274,-2.0492,0.0,0.0,-2.3699,-2.4425,-2.5674,-2.6767,-2.745,-2.757,-2.76,0.0,0.0,0.0,0.0,0.0,0.0,-3.0552,0.0,-3.1511,-3.1511,-3.1511,-3.1795,-3.2437,-3.2467,-3.311,-3.4399,-3.4444,-3.4771,-3.5444,-3.5415,-3.5429,-3.5444,-3.5444,-3.5474,-3.5504,-3.5504,-3.5504,-3.5504,-3.5504,-3.5115,-3.4548,-3.4488,-3.4038,-3.3484,-3.3425,-3.3006,-3.2557,-3.3185,-3.2976,-3.2437,-3.2437,-3.2004,-3.1511,-3.1511,-3.1511,-3.1511,-3.1511,-3.1481,-3.1152,-2.9909,-2.9577,-2.9232,-2.7899,-2.76,-2.76,-2.76,-2.76,-2.76,-2.76,-2.76,-2.76,-2.76,-2.76,-2.7151,-2.5809,-2.5615,-2.5121,-2.3774,-2.3595,-2.3595,-2.3595,-2.3595,-2.3595,-2.3595,-2.3595,-2.3595,-2.3595,-2.3595,-2.3595,-2.3595,-2.3595,-2.3595,-2.3595,-2.3595,-2.3595,-2.3595,-2.3595,-2.3595,-2.3595,-2.3595,-2.3595,-1.9208,-2.0213,-2.0928,-2.0415,-2.049,-2.044,-1.9472,-1.9195,-1.9036,-1.8662,-1.8611,-1.8944,0.0,0.0,0.0,-2.3595,-2.4986,0.0,-2.6752,-2.7285,0.0,-2.8278,0.0,-2.8966,-2.9924,-3.0313,0.0,0.0,-3.1406,-3.1511,-3.1511,-3.1511,-3.1585,-3.175,-3.2228,-3.2677,-3.3021,-3.3499,-3.4083,-3.4758,-3.4247,-3.4262,-3.4741,-3.4741,-3.5026,-3.5504,-3.5504,-3.5504,-3.5504,-3.5504,-3.54,-3.5145,-3.4143,-3.3649,-3.338,-3.2392,-3.1899,-3.178,-3.1944,-3.1899,-3.175,-3.175,-3.1645,-3.1511,-3.1511,-3.1511,-3.1511,-3.1511,-3.1137,-3.0582,-2.9789,-2.922,-2.8637,-2.7809,-2.76,-2.76,-2.76,-2.76,-2.76,-2.76,-2.76,-2.76,-2.76,-2.76,-2.7151,-2.5809,-2.5615,-2.5121,-2.3774,-2.3595,-2.3595,-2.3595,-2.3595,-2.3595,-2.3595,-2.3595,-2.3595,-2.3595,-2.3595,-2.3595,-2.3595,-2.3595,-2.3595,-2.3595,-2.3595,-2.3595,-2.3595,-2.3595,-2.3595,-2.3595,-2.3595,-2.3595,-2.0037,-2.0815,-2.1355,-2.083,-2.0691,-2.0402,-1.9259,-1.8632,-1.8147,-1.7661,-1.7363,0.0,-1.8281,-1.9393,0.0,0.0,0.0,0.0,-2.6164,-2.6603,-2.717,0.0,-2.8473,0.0,-3.0024,-3.0378,-3.0703,0.0,-3.1351,-3.1511,-3.1511,-3.1511,-3.1511,-3.1511,-3.1854,-3.2183,-3.2512,-3.3155,-3.3679,-3.4038,-3.3664,-3.3694,-3.4053,-3.4384,-3.4713,-3.507,0.0,-3.5504,-3.5504,-3.5504,-3.5325,-3.4981,-3.4218,-3.3574,-3.2976,-3.2213,-3.175,-3.1511,-3.1511,-3.1511,-3.1511,-3.1511,-3.1511,-3.1511,-3.1511,-3.1511,-3.1511,-3.1511,-3.1227,-3.0746,-2.9819,-2.931,-2.8786,-2.7824,-2.76,-2.76,-2.76,-2.76,-2.76,-2.76,-2.76,-2.76,-2.76,-2.76,-2.724,-2.6198,-2.6033,-2.5659,-2.4612,-2.3969,-2.3595,-2.3595,-2.3595,-2.3595,-2.3595,-2.3595,-2.3595,-2.3595,-2.3595,-2.3595,-2.3595,-2.3595,-2.3595,-2.3595,-2.3595,-2.3595,-2.3595,-2.3595,-2.3595,-2.3595,-2.3595,-2.3595,-2.0578,-2.1144,-2.1443,-2.0842,-2.0629,-2.0277,-1.9058,-1.7953,-1.7036,-1.661,0.0,-1.5927,-1.6344,-1.793,-1.9594,-2.0872,0.0,-2.3678,-2.5393,-2.5626,-2.613,-2.7488,-2.8165,-2.8771,-2.9463,-3.0055,-3.0372,-3.0372,-3.0881,-3.1248,-3.1409,-3.1409,-3.1438,-3.1438,-3.1453,-3.1751,-3.2437,-3.296,-3.3245,-3.3365,-3.3275,-3.332,-3.3514,-3.4114,-3.4474,-3.4683,-3.525,-3.5504,-3.5504,-3.5504,-3.516,-3.4638,-3.4533,-3.3724,-3.2632,-3.2512,-3.2064,-3.1511,-3.1511,-3.1511,-3.1511,-3.1511,-3.1511,-3.1511,-3.1511,-3.1511,-3.1511,-3.1511,-3.1436,-3.1092,-2.9909,-2.9547,-2.9157,-2.7899,-2.76,-2.76,-2.76,-2.76,-2.76,-2.76,-2.76,-2.76,-2.76,-2.76,-2.7375,-2.6692,-2.6587,-2.6363,-2.5689,-2.4582,-2.3864,-2.3864,-2.3789,-2.3729,-2.3729,-2.3655,-2.3595,-2.3595,-2.3595,-2.3595,-2.3595,-2.3595,-2.3595,-2.3595,-2.3595,-2.3595,-2.3595,-2.3595,-2.3595,-2.3595,-2.3595,-2.3595,-2.0792,-2.1433,-2.1933,-2.0943,-2.0327,-1.9547,-1.8039,-1.6798,0.0,0.0,-1.4197,-1.4423,-1.4893,-1.6367,-1.7928,-1.9217,-2.0848,-2.2384,-2.3535,-2.4301,-2.5353,0.0,-2.7388,-2.7875,-2.899,-2.9199,0.0,0.0,0.0,-2.9872,-3.0881,-3.1043,-3.1087,-3.1087,-3.1146,-3.1457,-3.2077,-3.1827,-3.202,-3.2677,-3.2108,-3.2437,-3.3499,-3.3619,-3.4277,-3.5325,-3.5444,0.0,-3.5504,-3.5504,-3.5429,-3.5265,-3.4728,-3.4008,-3.326,-3.2706,-3.2064,-3.1511,-3.1511,-3.1511,-3.1511,-3.1511,-3.1511,-3.1511,-3.1511,-3.1511,-3.1511,-3.1511,-3.1092,-3.0507,-2.9774,-2.9175,-2.8562,-2.7794,-2.76,-2.76,-2.76,-2.76,-2.76,-2.76,-2.76,-2.76,-2.76,-2.76,-2.7375,-2.6692,-2.6587,-2.6363,-2.5689,-2.5405,-2.5255,-2.5255,-2.4754,-2.4425,-2.4425,-2.3924,-2.3595,-2.3595,-2.3595,-2.3595,-2.3595,-2.3595,-2.3595,-2.3595,-2.3595,-2.3595,-2.3595,-2.3595,-2.3595,-2.3595,-2.3595,-2.3595,-2.0679,-2.1081,-2.1358,-2.083,-2.0024,-1.9045,-1.7712,0.0,0.0,0.0,-1.3165,-1.311,-1.3757,-1.4985,0.0,-1.7861,-1.9149,-2.0485,-2.2088,-2.2791,0.0,-2.6065,-2.6565,-2.7186,0.0,0.0,0.0,0.0,0.0,-2.8967,-3.007,-3.0448,-3.0643,-3.0658,-3.0687,-3.0833,-3.1095,-3.1057,-3.1367,-3.1974,-3.2004,-3.2348,-3.3006,-3.3694,-3.4352,-3.4996,-3.5355,-3.5504,-3.5504,-3.5504,-3.5504,-3.5474,-3.5145,-3.4397,-3.3455,-3.314,-3.2392,-3.1511,-3.1511,-3.1511,-3.1511,-3.1511,-3.1511,-3.1511,-3.1511,-3.1511,-3.1511,-3.1511,-3.1017,-3.0357,-2.9771,-2.9086,-2.8427,-2.7764,-2.76,-2.76,-2.76,-2.76,-2.76,-2.76,-2.76,-2.76,-2.76,-2.76,-2.748,-2.718,-2.7121,-2.7001,-2.6677,-2.6632,-2.6363,-2.5674,-2.5307,-2.4978,-2.4634,-2.4306,-2.3984,-2.3625,-2.3595,-2.3595,-2.3595,-2.3595,-2.3595,-2.3595,-2.3595,-2.3595,-2.3595,-2.3595,-2.3595,-2.3595,-2.3595,-2.3595,-2.0377,-2.0591,-2.0629,-2.0402,-1.9572,-1.8506,-1.73,-1.5751,0.0,0.0,-1.2327,-1.1926,-1.2593,0.0,-1.4899,0.0,-1.7312,-1.857,-2.061,-2.1327,-2.251,0.0,-2.5643,0.0,-2.7571,0.0,0.0,0.0,0.0,0.0,-2.9393,-2.9839,-3.0054,-3.0086,-3.0054,-3.0054,-3.0086,-3.0434,-3.0822,-3.1292,-3.1842,-3.2243,-3.2541,-3.3597,-3.4222,-3.4503,-3.5038,-3.5261,-3.5261,-3.5309,-3.5341,-3.5344,-3.5275,-3.4515,-3.3484,-3.3335,-3.2542,-3.1511,-3.1511,-3.1511,-3.1511,-3.1511,-3.1511,-3.1511,-3.1511,-3.1511,-3.1511,-3.1511,-3.0913,-3.0193,-2.9726,-2.8981,-2.8248,-2.772,-2.76,-2.76,-2.76,-2.76,-2.76,-2.76,-2.76,-2.76,-2.76,-2.76,-2.76,-2.76,-2.76,-2.76,-2.76,-2.76,-2.721,-2.6138,-2.5899,-2.5615,-2.5068,-2.4769,-2.438,-2.3849,-2.3684,-2.3595,-2.3595,-2.3595,-2.3595,-2.3595,-2.3595,-2.3595,-2.3595,-2.3595,-2.3595,-2.3595,-2.3595,-2.3595,-1.9874,-2.0289,-2.0453,-1.9396,-1.8707,-1.7852,-1.622,0.0,-1.3052,-1.1995,-1.1265,-1.0906,-1.1151,-1.228,-1.3429,0.0,0.0,-1.7064,0.0,-2.0029,-2.1633,-2.3882,0.0,0.0,0.0,0.0,0.0,0.0,0.0,0.0,-2.9233,-2.9261,-2.9275,-2.939,-2.9261,-2.9275,-2.939,-2.9716,-3.016,-3.0687,-3.076,-3.1387,-3.2509,-3.264,-3.3292,-3.4428,-3.4452,-3.4515,0.0,-3.4698,-3.485,-3.4909,-3.4498,-3.3988,-3.3425,-3.2826,-3.2123,-3.1511,-3.1511,-3.1511,-3.1511,-3.1511,-3.1511,-3.1511,-3.1511,-3.1511,-3.1511,-3.1511,-3.0627,-2.9681,-2.9621,-2.8663,-2.7675,-2.76,-2.76,-2.76,-2.76,-2.76,-2.76,-2.76,-2.76,-2.76,-2.76,-2.76,-2.76,-2.76,-2.76,-2.76,-2.76,-2.76,-2.754,-2.742,-2.6881,-2.6482,-2.6422,-2.5292,-2.4575,-2.4515,-2.3939,-2.3595,-2.3595,-2.3595,-2.3595,-2.3595,-2.3595,-2.3595,-2.3595,-2.3595,-2.3595,-2.3595,-2.3595,-2.3595,-1.9133,-1.9736,-1.9962,-1.9196,-1.8355,-1.735,-1.6007,0.0,-1.25,-1.1738,-1.086,-1.0373,-1.085,-1.1741,-1.2679,-1.3555,-1.4816,-1.6235,-1.7763,-1.9244,0.0,0.0,0.0,0.0,0.0,0.0,0.0,0.0,0.0,0.0,-2.798,-2.8189,-2.832,-2.8325,-2.832,-2.832,-2.8357,-2.8725,-2.9139,-2.9625,-3.0069,-3.0492,-3.1033,-3.1735,-3.2357,-3.2851,-3.3198,-3.3318,0.0,-3.3659,-3.3786,-3.3827,-3.3888,-3.3486,-3.2871,-3.2617,-3.2064,-3.1511,-3.1511,-3.1511,-3.1511,-3.1511,-3.1511,-3.1511,-3.1511,-3.1511,-3.1421,-3.1002,-3.0268,-2.9517,-2.9086,-2.8304,-2.76,-2.76,-2.76,-2.76,-2.76,-2.76,-2.76,-2.76,-2.76,-2.76,-2.76,-2.76,-2.76,-2.76,-2.76,-2.76,-2.76,-2.76,-2.76,-2.76,-2.736,-2.7046,-2.6617,-2.6108,-2.5457,-2.4649,-2.435,-2.4007,-2.3625,-2.3595,-2.3595,-2.3595,-2.3595,-2.3595,-2.3595,-2.3595,-2.3595,-2.3595,-2.3595,-2.3595,-1.8255,-1.8932,-1.9208,-1.8668,-1.7827,-1.6835,0.0,-1.3873,-1.2253,-1.1701,-1.0684,-1.0031,-1.0514,-1.13,-1.2116,0.0,-1.42,-1.5599,-1.6811,-1.8465,0.0,0.0,0.0,0.0,0.0,0.0,0.0,0.0,0.0,0.0,-2.6973,-2.7242,-2.7477,-2.7537,-2.7543,-2.7543,-2.7537,-2.7894,-2.8274,-2.8698,-2.9186,-2.952,-2.9726,-3.0575,-3.1089,-3.1268,-3.1658,-3.1801,0.0,-3.2215,-3.2426,-3.2568,-3.2789,-3.2687,-3.2333,-3.2139,-3.1782,-3.1351,-3.1292,-3.1263,-3.1234,-3.1263,-3.1322,-3.1351,-3.1395,-3.1303,-3.1107,-3.0642,-2.9924,-2.9146,-2.8472,-2.7959,-2.76,-2.76,-2.76,-2.76,-2.76,-2.76,-2.76,-2.76,-2.76,-2.76,-2.76,-2.76,-2.76,-2.76,-2.76,-2.76,-2.76,-2.76,-2.76,-2.76,-2.76,-2.7405,-2.6941,-2.6692,-2.6198,-2.5247,-2.4829,-2.4395,-2.3924,-2.3714,-2.3595,-2.3595,-2.3595,-2.3595,-2.3595,-2.3595,-2.3699,-2.3909,-2.3909,-2.3999,-1.7237,-1.7802,-1.8091,-1.7561,-1.6961,-1.6233,-1.5148,-1.3614,-1.2253,-1.1701,-1.0684,-0.9905,-0.9905,-1.0849,-1.1603,-1.1615,-1.3463,-1.5085,-1.563,-1.7626,0.0,0.0,0.0,0.0,0.0,0.0,0.0,0.0,0.0,0.0,-2.6499,-2.6499,-2.6714,-2.7196,-2.7066,-2.7066,-2.7196,-2.7423,-2.7689,-2.8006,-2.8006,-2.8359,-2.9013,-2.9026,-2.9367,-2.9923,-2.9923,-2.9923,0.0,-3.0303,-3.0732,-3.1198,-3.1094,-3.1449,-3.1913,-3.1338,-3.1073,-3.0999,-3.0836,-3.0732,-3.0642,-3.0762,-3.0896,-3.1029,-3.1073,-3.0832,-3.0507,-3.0507,-2.9594,-2.8457,-2.7779,-2.76,-2.76,-2.76,-2.76,-2.76,-2.76,-2.76,-2.76,-2.76,-2.76,-2.76,-2.76,-2.76,-2.76,-2.76,-2.76,-2.76,-2.76,-2.76,-2.76,-2.76,-2.76,-2.76,-2.7585,-2.6986,-2.6587,-2.6572,-2.5322,-2.4605,-2.459,-2.3947,-2.3595,-2.3595,-2.3595,-2.3595,-2.3595,-2.3595,-2.3954,-2.459,-2.459,-2.4948,-1.6103,-1.6635,-1.6923,-1.6371,-1.5827,-1.5103,-1.398,-1.2768,-1.1688,-1.1096,-1.0408,-0.9905,-0.9905,-1.0822,-1.1603,-1.1603,-1.3451,0.0,0.0,0.0,0.0,0.0,0.0,0.0,0.0,0.0,0.0,0.0,0.0,0.0,-2.6499,-2.6499,-2.6555,-2.6714,-2.6692,-2.6692,-2.6714,-2.6794,-2.6863,-2.6952,-2.6952,-2.7088,-2.7314,-2.7665,-2.7934,-2.8136,-2.8533,-2.8664,-2.87,-2.9093,-2.9275,-2.9396,-2.9912,-3.0428,-3.08,-3.0626,-3.0553,-3.0494,-3.0206,-2.9856,-2.9549,-2.9811,-3.0178,-3.0524,-3.0568,-3.0412,-2.9992,-2.8897,-2.7976,-2.7261,-2.7041,-2.6982,-2.6982,-2.6982,-2.6982,-2.6982,-2.6982,-2.6982,-2.6982,-2.6982,-2.7104,-2.7222,-2.731,-2.7412,-2.7488,-2.76,-2.76,-2.76,-2.76,-2.76,-2.76,-2.76,-2.76,-2.76,-2.76,-2.7405,-2.7091,-2.6641,-2.6198,-2.5764,-2.5292,-2.5091,-2.4762,-2.4291,-2.4724,-2.4747,-2.4276,-2.4747,-2.5091,-2.5277,-2.5277,-2.5644,-1.4312,-1.4845,-1.5171,-1.4833,-1.435,-1.376,-1.3065,-1.2049,-1.1161,-1.0769,-1.0269,-0.9905,-0.9905,-1.0822,-1.1603,-1.1603,-1.3451,-1.5198,0.0,0.0,0.0,0.0,0.0,0.0,0.0,0.0,0.0,0.0,0.0,0.0,-2.6499,-2.6499,-2.6499,-2.6499,-2.6499,-2.6499,-2.6499,-2.6499,-2.6499,-2.6499,-2.6499,-2.6499,-2.6499,-2.6851,-2.7002,-2.7027,-2.7331,-2.7494,0.0,-2.7802,-2.798,-2.8082,-2.8778,-2.9393,-2.9917,-2.9884,-2.987,-2.9872,-2.9453,-2.8998,-2.8666,-2.9016,-2.9439,-2.9813,-2.9631,-2.9432,-2.8956,-2.7309,-2.6529,-2.6203,-2.6203,-2.6203,-2.6203,-2.6203,-2.6203,-2.6203,-2.6203,-2.6203,-2.6203,-2.6203,-2.6404,-2.663,-2.6893,-2.7089,-2.7295,-2.7575,-2.76,-2.76,-2.76,-2.76,-2.76,-2.76,-2.76,-2.76,-2.76,-2.76,-2.742,-2.7001,-2.6746,-2.6408,-2.5989,-2.5734,-2.5397,-2.4993,-2.5382,-2.5382,-2.4978,-2.5659,-2.5974,-2.5989,-2.6243,-2.6572,0.0,-1.2685,-1.3148,-1.3185,-1.2801,-1.2388,-1.235,-1.1497,0.0,-1.0643,-1.0244,-0.9905,-0.9956,-1.086,-1.1628,-1.1688,-1.3539,-1.5173,0.0,-1.7842,0.0,0.0,0.0,0.0,0.0,0.0,0.0,0.0,0.0,0.0,-2.6499,-2.6499,-2.6499,-2.6499,-2.6499,-2.6499,-2.6499,-2.6499,-2.6499,-2.6499,-2.6499,-2.6499,-2.6499,-2.6499,-2.6499,0.0,-2.6499,-2.6499,-2.6499,-2.6624,-2.6871,-2.7196,-2.7729,-2.8449,-2.917,-2.9053,-2.9071,-2.9107,-2.8597,-2.8189,-2.7941,-2.832,-2.8688,-2.8911,-2.8432,-2.8124,-2.7554,-2.5883,-2.5384,-2.5342,-2.5342,-2.5342,-2.5342,-2.5342,-2.5342,-2.5342,-2.5342,-2.5342,-2.5342,-2.5342,-2.5577,-2.589,-2.6363,-2.6654,-2.6993,-2.7458,-2.7549,-2.7549,-2.7549,-2.7549,-2.7549,-2.7549,-2.7549,-2.7575,-2.7575,-2.76,-2.76,-2.76,-2.7031,-2.6662,-2.6662,-2.6078,-2.5734,-2.5674,-2.5674,-2.5704,-2.5749,-2.6363,-2.6662,-2.6701,-2.7315,-2.76,-1.0682,0.0,-1.2689,-1.3098,-1.2801,-1.2287,0.0,-1.1209,-1.0582,-1.0168,0.0,-1.0031,-1.0444,-1.1111,-1.1864,-1.2689,-1.4337,-1.5994,-1.7413,0.0,0.0,0.0,0.0,0.0,0.0,0.0,0.0,0.0,0.0,-2.6499,-2.6499,-2.6499,-2.6499,-2.6499,-2.6499,-2.6499,-2.6499,-2.6499,-2.6499,-2.6499,-2.6499,-2.6499,-2.6499,-2.6499,-2.6499,-2.6499,-2.6499,-2.6499,-2.6499,-2.6521,-2.6589,-2.6679,-2.7074,-2.7584,-2.8065,-2.8105,-2.8091,-2.8032,-2.765,-2.7242,-2.6952,-2.765,-2.7993,-2.7998,-2.7434,-2.7155,-2.6845,-2.5711,-2.5072,-2.4709,-2.4709,-2.4709,-2.4709,-2.4709,-2.4709,-2.4709,-2.4709,-2.4709,-2.4709,-2.4709,-2.4978,-2.5314,-2.5742,-2.6082,-2.6418,-2.6841,-2.6904,-2.6904,-2.6904,-2.6904,-2.6904,-2.6904,-2.7052,-2.7196,-2.7284,-2.7473,-2.76,-2.76,-2.745,-2.736,-2.736,-2.721,-2.6896,-2.6378,-2.6363,-2.6626,-2.7136,-2.7285,-2.736,-2.7375,-2.7525,-2.76,-1.0364,-1.1109,-1.1761,-1.2312,-1.2037,-1.1548,-1.1261,0.0,0.0,0.0,0.0,-1.0356,-1.0657,-1.1598,-1.2601,-1.3471,-1.499,0.0,0.0,0.0,0.0,0.0,0.0,0.0,0.0,0.0,0.0,0.0,0.0,-2.6499,-2.6499,-2.6499,-2.6499,-2.6499,-2.6499,-2.6499,-2.6499,-2.6499,-2.6499,-2.6499,-2.6499,-2.6499,-2.6499,-2.6499,-2.6499,-2.6499,-2.6499,-2.6499,-2.6499,-2.6499,-2.6499,-2.6521,-2.6782,-2.7095,-2.7484,-2.7456,-2.7443,-2.7417,-2.7095,-2.6816,-2.6679,-2.7297,-2.743,-2.7371,-2.7131,-2.6718,-2.6164,-2.5062,-2.4516,-2.4192,-2.392,-2.3855,-2.3855,-2.3855,-2.3855,-2.3855,-2.3855,-2.3855,-2.3855,-2.3855,-2.4131,-2.4507,-2.4936,-2.5245,-2.5591,-2.6041,-2.6095,-2.6095,-2.6095,-2.6095,-2.6095,-2.6095,-2.631,-2.6563,-2.6841,-2.7111,-2.7367,-2.76,-2.76,-2.76,-2.76,-2.76,-2.742,-2.7076,-2.7061,-2.724,-2.76,-2.76,-2.76,-2.76,-2.76,-2.76,-1.0471,-1.0858,-1.1024,-1.167,-1.146,-1.1057,-1.0969,0.0,0.0,0.0,0.0,0.0,0.0,-1.2325,0.0,0.0,0.0,0.0,0.0,0.0,0.0,0.0,0.0,0.0,0.0,0.0,0.0,0.0,0.0,-2.6499,-2.6499,-2.6499,-2.6499,-2.6499,-2.6499,-2.6499,-2.6499,-2.6499,-2.6499,-2.6499,-2.6499,-2.6499,-2.6499,-2.6499,-2.6499,-2.6499,0.0,0.0,-2.6499,-2.6499,-2.6499,-2.6499,-2.6624,-2.685,-2.7074,-2.6977,-2.6998,-2.704,-2.6782,-2.6692,-2.6714,-2.7007,-2.7019,-2.6943,-2.704,-2.6585,-2.5734,-2.4551,-2.413,-2.3891,-2.3358,-2.317,-2.3108,-2.3108,-2.3108,-2.3108,-2.3108,-2.3108,-2.3108,-2.3108,-2.3348,-2.3704,-2.4147,-2.4423,-2.4766,-2.5203,-2.5259,-2.5259,-2.5259,-2.5259,-2.5259,-2.5259,-2.5522,-2.5877,-2.631,-2.6628,-2.6967,-2.7433,-2.7549,-2.76,-2.76,-2.76,-2.76,-2.76,-2.76,-2.76,-2.76,-2.76,-2.76,-2.76,-2.76,-2.76,-1.0104,-1.1045,-1.1834,-1.2659,-1.2834,-1.2697,-1.2237,0.0,0.0,0.0,0.0,0.0,0.0,-1.3433,-1.445,0.0,0.0,-2.0665,0.0,0.0,-2.4895,0.0,0.0,0.0,0.0,0.0,0.0,0.0,0.0,-2.6499,-2.6499,-2.6499,-2.6499,-2.6499,-2.6499,-2.6499,-2.6499,-2.6499,-2.6499,-2.6499,-2.6499,-2.6499,-2.6499,-2.6499,-2.6499,-2.6499,0.0,-2.6499,-2.6499,-2.6499,-2.6499,-2.6499,-2.6521,-2.6555,-2.6589,-2.6602,-2.6589,-2.6589,-2.6555,-2.6521,-2.6521,-2.6589,-2.6589,-2.6602,-2.6589,-2.6492,-2.6257,-2.5536,-2.4695,-2.3979,-2.3891,-2.3471,-2.3108,-2.3108,-2.3108,-2.3108,-2.3108,-2.3108,-2.3108,-2.3108,-2.3271,-2.3539,-2.3842,-2.4047,-2.4292,-2.4595,-2.4652,-2.4652,-2.4652,-2.4652,-2.4652,-2.4652,-2.4921,-2.5286,-2.5701,-2.6042,-2.6392,-2.6814,-2.7331,-2.76,-2.76,-2.76,-2.76,-2.76,-2.76,-2.76,-2.76,-2.76,-2.76,-2.76,-2.76,-2.76,-0.9775,-1.083,-1.1818,-1.28,-1.3367,-1.3627,-1.3375,0.0,0.0,0.0,0.0,0.0,0.0,0.0,-1.6019,-1.7978,0.0,-2.192,-2.2957,-2.4073,-2.5008,0.0,0.0,0.0,0.0,0.0,0.0,0.0,0.0,0.0,-2.6499,-2.6499,-2.6499,-2.6499,-2.6499,-2.6499,-2.6499,-2.6499,-2.6499,-2.6499,-2.6499,-2.6499,-2.6499,-2.6499,-2.6499,-2.6499,0.0,-2.6499,-2.6499,-2.6499,-2.6499,-2.6499,-2.6499,-2.6499,-2.6499,-2.6499,-2.6499,-2.6499,-2.6499,-2.6499,-2.6499,-2.6499,-2.6499,-2.6499,-2.6499,-2.6499,-2.6436,-2.6172,-2.5485,-2.4732,-2.4155,-2.3803,-2.3496,-2.3183,-2.3108,-2.3108,-2.3108,-2.3108,-2.3108,-2.3108,-2.3168,-2.3288,-2.3412,-2.3514,-2.359,-2.3708,-2.3738,-2.3738,-2.3738,-2.3738,-2.3738,-2.3738,-2.4044,-2.4421,-2.4879,-2.5161,-2.5783,-2.6791,-2.7192,-2.7437,-2.7488,-2.7549,-2.76,-2.76,-2.76,-2.76,-2.76,-2.76,-2.76,-2.76,-2.76,-2.7794,-0.934,-1.0415,-1.1456,-1.2456,0.0,-1.4125,-1.4125,-1.3846,0.0,0.0,0.0,0.0,0.0,-1.6437,0.0,-1.9874,-2.138,-2.2569,-2.3384,-2.4249,-2.5059,-2.5724,-2.6223,0.0,0.0,0.0,0.0,0.0,0.0,0.0,-2.6499,-2.6499,-2.6499,-2.6499,-2.6499,-2.6499,-2.6499,-2.6499,-2.6499,-2.6499,-2.6499,-2.6499,-2.6499,-2.6499,-2.6499,-2.6499,-2.6499,-2.6499,-2.6499,-2.6499,-2.6499,-2.6499,-2.6499,-2.6499,-2.6499,-2.6499,-2.6499,-2.6499,-2.6499,-2.6499,-2.6499,-2.6499,-2.6499,-2.6499,-2.6499,-2.6499,-2.6499,-2.6499,-2.6172,-2.5573,-2.4619,-2.428,-2.4079,-2.3609,-2.3396,-2.3253,-2.3142,-2.3097,-2.3108,-2.3108,-2.3108,-2.3108,-2.3108,-2.3108,-2.3108,-2.3108,-2.3108,-2.3108,-2.3108,-2.3108,-2.3108,-2.3108,-2.3378,-2.3734,-2.4205,-2.4509,-2.5189,-2.6447,-2.687,-2.7115,-2.7284,-2.7499,-2.76,-2.76,-2.76,-2.76,-2.76,-2.76,-2.76,-2.76,-2.7764,-2.8124,-0.8659,-0.9742,-1.0829,-1.1597,-1.2996,0.0,-1.4189,-1.4497,0.0,-1.4945,0.0,0.0,0.0,-1.8433,-1.9962,-2.1167,-2.1895,-2.2874,-2.4449,0.0,-2.5209,-2.6298,-2.6461,0.0,0.0,0.0,0.0,0.0,0.0,0.0,-2.6499,-2.6499,-2.6499,-2.6499,-2.6499,-2.6499,-2.6499,-2.6499,-2.6499,-2.6499,-2.6499,-2.6499,-2.6499,-2.6499,-2.6499,-2.6499,-2.6499,-2.6499,-2.6499,-2.6499,-2.6499,-2.6499,-2.6499,-2.6499,-2.6499,-2.6499,-2.6499,-2.6499,-2.6499,-2.6499,-2.6499,-2.6499,-2.6499,-2.6499,-2.6499,-2.6499,-2.6499,-2.6499,-2.6461,-2.6285,-2.5636,-2.5121,-2.4725,-2.4675,-2.4305,-2.3785,-2.3207,-2.3107,-2.3108,-2.3108,-2.3108,-2.3108,-2.3108,-2.3108,-2.3108,-2.3108,-2.3108,-2.3108,-2.3108,-2.3108,-2.3108,-2.3108,-2.33,-2.3599,-2.4073,-2.435,-2.4694,-2.5118,-2.6028,-2.6669,-2.6927,-2.7367,-2.76,-2.76,-2.76,-2.76,-2.76,-2.76,-2.76,-2.76,-2.8233,-2.8547,-0.88,-0.9466,-1.027,-1.1713,-1.2647,0.0,0.0,-1.4845,-1.528,-1.58,-1.635,0.0,0.0,0.0,-2.0991,-2.1418,-2.2234,-2.3145,-2.4167,-2.4305,-2.4594,-2.5347,-2.5435,-2.5435,0.0,0.0,0.0,0.0,0.0,-2.5435,-2.5435,-2.5435,-2.5435,-2.5435,-2.5435,-2.5435,-2.5435,-2.5435,-2.5435,-2.5448,-2.6172,-2.6499,-2.6499,-2.6499,-2.6499,-2.6499,-2.6499,-2.6499,-2.6499,-2.6499,-2.6499,-2.6499,-2.6499,-2.6499,-2.6499,-2.6499,-2.6499,-2.6499,-2.6499,-2.6499,-2.6499,-2.6499,-2.6499,-2.6499,-2.6499,-2.6499,-2.6499,-2.6499,-2.6499,-2.6361,-2.5749,-2.5448,-2.5222,-2.4863,-2.4637,-2.426,-2.3287,-2.3461,-2.3633,-2.3183,-2.3108,-2.3108,-2.3108,-2.3108,-2.3108,-2.3108,-2.3108,-2.3108,-2.3108,-2.3108,-2.3108,-2.3108,-2.3168,-2.3288,-2.3454,-2.3573,-2.3767,-2.4115,-2.5273,-2.6122,-2.6522,-2.7074,-2.7372,-2.7463,-2.7549,-2.76,-2.76,-2.76,-2.7809,-2.8218,-2.8472,-2.9026,-0.8918,-0.9324,-0.9869,-1.1297,0.0,0.0,-1.4048,-1.4953,-1.573,-1.6509,-1.7364,0.0,0.0,0.0,0.0,0.0,-2.2129,-2.3034,0.0,0.0,-2.3972,-2.4571,-2.4691,-2.4755,-2.4788,-2.4788,-2.4788,-2.4788,-2.4788,-2.4788,-2.4788,-2.4788,-2.4788,-2.4788,-2.4788,-2.4788,-2.4788,-2.4788,-2.4788,-2.48,-2.5586,-2.5971,-2.5984,-2.6147,-2.6223,-2.6235,-2.6411,-2.6499,-2.6499,-2.6499,-2.6499,-2.6499,-2.6499,-2.6499,-2.6499,-2.6499,-2.6499,-2.6499,-2.6499,-2.6499,-2.6499,-2.6499,-2.6499,-2.6499,-2.6499,-2.6499,-2.6499,-2.6499,-2.6499,-2.6399,-2.5996,-2.5875,-2.5774,-2.5423,-2.5197,-2.4901,-2.4309,-2.4186,-2.3978,-2.3237,-2.311,-2.317,-2.3444,-2.3427,-2.3434,-2.3609,-2.3484,-2.3384,-2.3384,-2.3221,-2.3108,-2.3108,-2.3271,-2.3308,-2.312,-2.3271,-2.343,-2.3522,-2.4481,-2.5301,-2.5933,-2.6616,-2.7063,-2.7244,-2.7473,-2.76,-2.76,-2.76,-2.7944,-2.8607,-2.8816,-2.9475,-0.8887,-0.9299,-0.9728,0.0,0.0,0.0,-1.332,-1.4797,-1.6222,-1.7047,0.0,-1.9762,-1.9714,0.0,0.0,-2.0658,-2.1488,-2.2366,0.0,0.0,0.0,-2.4197,-2.4471,-2.4626,-2.4775,-2.4775,-2.4775,-2.4775,-2.4775,-2.4775,-2.4775,-2.4775,-2.4775,-2.4775,-2.4775,-2.4775,-2.4775,-2.4775,-2.4775,-2.4775,-2.4775,-2.4775,-2.4813,-2.536,-2.5586,-2.5624,-2.6235,-2.6487,-2.6499,-2.6499,-2.6499,-2.6499,-2.6499,-2.6499,-2.6499,-2.6499,-2.6499,-2.6499,-2.6499,-2.6499,-2.6499,-2.6499,-2.6499,-2.6499,-2.6499,-2.6499,-2.6499,-2.6499,-2.6499,-2.6499,-2.6499,-2.6499,-2.6499,-2.6499,-2.6047,-2.5774,-2.6381,-2.5307,-2.4004,-2.3256,-2.3089,-2.3351,-2.416,-2.4161,-2.4192,-2.4745,-2.4356,-2.4004,-2.4004,-2.3459,-2.3108,-2.3108,-2.3653,-2.3766,-2.317,-2.3665,-2.3827,-2.3454,-2.3662,-2.4208,-2.5147,-2.6041,-2.6628,-2.6916,-2.7382,-2.76,-2.7615,-2.7615,-2.7974,-2.8637,-2.928,-2.9924,-0.8887,-0.9541,0.0,-1.1038,0.0,0.0,0.0,-1.4765,0.0,0.0,-1.8218,-1.881,-1.9086,0.0,0.0,-1.9985,-2.0583,-2.1138,-2.1275,0.0,0.0,0.0,-2.2882,-2.3219,-2.3578,-2.3597,-2.3597,-2.3597,-2.3597,-2.3597,-2.3597,-2.3597,-2.3597,-2.3597,-2.3597,-2.3597,-2.3597,-2.3597,-2.3597,-2.3597,-2.3597,-2.4023,-2.48,-2.4951,-2.5247,-2.5598,-2.5774,-2.6122,-2.6499,-2.6499,-2.6499,-2.6499,-2.6499,-2.6499,-2.6499,-2.6499,-2.6499,-2.6499,-2.6499,-2.6499,-2.6499,-2.6499,-2.6499,-2.6499,-2.6499,-2.6499,-2.6499,-2.6499,-2.6499,-2.6499,-2.6499,-2.6499,-2.6499,-2.6499,-2.6361,-2.6299,-2.647,-2.6138,-2.5286,-2.3448,-2.3086,-2.3172,-2.3405,-2.4318,-2.5033,-2.5197,-2.4854,-2.4443,-2.4054,-2.3459,-2.3258,-2.3703,-2.3891,-2.4092,-2.4274,-2.4117,-2.4123,-2.4381,-2.4109,-2.4163,-2.4694,-2.5453,-2.6281,-2.716,-2.7739,-2.8292,-2.8806,-2.8954,-2.9337,-2.9939,-3.0133,-3.0597,-0.9324,-1.001,0.0,-1.1848,-1.2631,-1.3486,-1.4825,0.0,0.0,0.0,0.0,-1.8679,-1.8826,-1.9289,0.0,-1.9375,-1.9832,-2.0193,-2.0193,-2.0484,0.0,0.0,-2.1808,-2.2192,-2.2684,-2.2775,-2.2878,-2.2939,-2.2987,-2.3047,-2.3108,-2.3108,-2.3108,-2.3108,-2.3108,-2.3108,-2.3108,-2.3108,-2.3108,-2.3108,-2.3108,-2.3459,-2.4123,-2.4362,-2.4669,-2.4971,-2.5197,-2.5598,-2.6147,-2.6147,-2.6285,-2.6499,-2.6499,-2.6499,-2.6499,-2.6499,-2.6499,-2.6499,-2.6499,-2.6499,-2.6499,-2.6499,-2.6499,-2.6499,-2.6499,-2.6499,-2.6449,-2.6223,-2.6147,-2.6097,-2.5862,-2.5996,-2.621,-2.6436,-2.6499,-2.6505,-2.6506,-2.6501,-2.6085,-2.4713,-2.4211,-2.4102,-2.4384,-2.5023,-2.5557,-2.5785,-2.5446,-2.4933,-2.4393,-2.3985,-2.391,-2.4293,-2.4506,-2.4682,-2.4775,-2.4707,-2.4682,-2.4775,-2.4506,-2.4436,-2.4706,-2.5365,-2.6167,-2.7115,-2.7863,-2.8508,-2.9098,-2.9429,-2.9909,-3.0507,-3.0507,-3.0866,-0.9862,0.0,0.0,-1.251,-1.3232,0.0,-1.6229,-1.6855,-1.7314,-1.8491,0.0,-1.894,-1.8763,-1.9145,-1.9292,-1.8817,-1.9155,-1.944,-1.944,-1.9758,0.0,0.0,-2.104,-2.1463,-2.1987,-2.2204,-2.2389,-2.2616,-2.2769,-2.2939,-2.3078,-2.3108,-2.3108,-2.3108,-2.3108,-2.3108,-2.3108,-2.3108,-2.3108,-2.3108,-2.3108,-2.3108,-2.312,-2.3678,-2.3954,-2.4029,-2.4582,-2.5096,-2.5523,-2.5573,-2.59,-2.6411,-2.6474,-2.6499,-2.6499,-2.6499,-2.6499,-2.6499,-2.6499,-2.6499,-2.6499,-2.6499,-2.6499,-2.6499,-2.6499,-2.6461,-2.6298,-2.5737,-2.5561,-2.5423,-2.5008,-2.5247,-2.5737,-2.6361,-2.6499,-2.6499,-2.6499,-2.6498,-2.6483,-2.6483,-2.597,-2.5721,-2.6389,-2.6046,-2.585,-2.6411,-2.5996,-2.5423,-2.4958,-2.4813,-2.4813,-2.4863,-2.531,-2.5423,-2.5008,-2.536,-2.5423,-2.4996,-2.4888,-2.494,-2.512,-2.5591,-2.6179,-2.69,-2.782,-2.8512,-2.8924,-2.9455,-3.0016,-3.0569,-3.0597,-3.0913,-0.9121,-1.0352,0.0,0.0,-1.3447,-1.4902,-1.6365,-1.6728,-1.7037,-1.7967,-1.8212,-1.8216,-1.8184,-1.8277,-1.8307,-1.8174,-1.8277,-1.8337,-1.8337,-1.864,-1.9031,-1.9573,-1.9933,-2.0355,-2.089,-2.1219,-2.1577,-2.2044,-2.2347,-2.2684,-2.3078,-2.3108,-2.3108,-2.3108,-2.3108,-2.3108,-2.3108,-2.3108,-2.3108,-2.3108,-2.3108,-2.3108,-2.3108,-2.3233,-2.3534,-2.4029,-2.4582,-2.4883,-2.4988,-2.5423,-2.5674,-2.5824,-2.6311,-2.6499,-2.6499,-2.6499,-2.6499,-2.6499,-2.6499,-2.6499,-2.6499,-2.6499,-2.6499,-2.6499,-2.6499,-2.6172,-2.5762,-2.5636,-2.531,-2.5059,-2.536,-2.5511,-2.5737,-2.6361,-2.6499,-2.6499,-2.6499,-2.6505,-2.6488,-2.6488,-2.6388,-2.6329,-2.6458,-2.6375,-2.6348,-2.6474,-2.5996,-2.5548,-2.5435,-2.5071,-2.4938,-2.5385,-2.5523,-2.5737,-2.6109,-2.5799,-2.5737,-2.6122,-2.5686,-2.5669,-2.6156,-2.5788,-2.6075,-2.7117,-2.7939,-2.8856,-2.9804,-3.0412,-3.0849,-3.1127,-3.1229,-3.1361,0.0,0.0,0.0,-1.2847,0.0,0.0,-1.625,-1.6738,-1.7168,-1.7617,-1.7871,-1.8008,-1.8008,-1.8008,-1.8008,-1.8008,-1.8008,-1.8008,-1.8008,-1.8245,-1.8573,-1.9021,-1.9287,-1.9649,-2.0063,-2.042,-2.0837,-2.1388,-2.1745,-2.213,-2.2635,-2.2714,-2.2818,-2.2909,-2.2969,-2.3047,-2.3108,-2.3108,-2.3108,-2.3108,-2.3108,-2.3108,-2.3108,-2.3108,-2.3271,-2.3572,-2.386,-2.4136,-2.4456,-2.472,-2.4983,-2.5259,-2.5548,-2.5824,-2.6084,-2.6084,-2.6248,-2.6499,-2.6499,-2.6499,-2.6499,-2.6499,-2.6499,-2.6449,-2.6172,-2.5837,-2.5485,-2.4971,-2.482,-2.482,-2.4833,-2.5209,-2.5674,-2.5975,-2.6298,-2.6499,-2.6499,-2.6499,-2.6499,-2.6499,-2.6499,-2.6505,-2.6511,-2.6488,-2.6499,-2.6499,-2.6235,-2.6047,-2.6047,-2.5808,-2.5711,-2.6021,-2.6047,-2.6172,-2.6461,-2.6223,-2.6172,-2.6474,-2.621,-2.6185,-2.6487,-2.6155,-2.6341,-2.7085,-2.7752,-2.8538,-2.9498,-3.0283,-3.0807,-3.1058,-3.1351,-3.1511,0.0,0.0,0.0,0.0,-1.5,0.0,-1.6056,-1.6662,-1.723,-1.7353,-1.7715,-1.8008,-1.8008,-1.8008,-1.8008,-1.8008,-1.8008,-1.8008,-1.8008,-1.8134,-1.8337,-1.864,-1.8808,-1.8977,-1.9203,-1.9532,-1.9911,-2.0357,-2.0714,-2.1132,-2.1651,-2.1854,-2.2049,-2.2304,-2.2473,-2.2623,-2.2819,-2.2819,-2.2819,-2.2819,-2.292,-2.3007,-2.3108,-2.3108,-2.3108,-2.3108,-2.3108,-2.3371,-2.3853,-2.3954,-2.4268,-2.4662,-2.475,-2.5084,-2.546,-2.546,-2.5774,-2.6223,-2.6311,-2.6348,-2.6361,-2.6461,-2.6499,-2.6411,-2.5921,-2.5674,-2.541,-2.4519,-2.4544,-2.4713,-2.4368,-2.4933,-2.5624,-2.5724,-2.6147,-2.6499,-2.6499,-2.6499,-2.6499,-2.6499,-2.6499,-2.6499,-2.6499,-2.6499,-2.6499,-2.6499,-2.6499,-2.6499,-2.6499,-2.6499,-2.6499,-2.6499,-2.6499,-2.6499,-2.6499,-2.6499,-2.6499,-2.6499,-2.6499,-2.6499,-2.6499,-2.6499,-2.6658,-2.7007,-2.7484,-2.8078,-2.8867,-2.9811,-3.0494,-3.0866,-3.1292,-3.1511,0.0,0.0,0.0,0.0,0.0,0.0,0.0,0.0,-1.6486,0.0,-1.7715,-1.8008,-1.8008,-1.8008,-1.8008,-1.8008,-1.8008,-1.8008,-1.8008,-1.8008,-1.8076,-1.811,-1.8144,-1.803,-1.7731,-1.7999,-1.8267,-1.8392,-1.8707,-1.9132,-1.9666,-1.9922,-2.0247,-2.0696,-2.094,-2.1284,-2.1707,-2.1707,-2.1707,-2.1707,-2.2196,-2.2644,-2.3108,-2.3108,-2.3108,-2.3108,-2.3108,-2.3145,-2.3258,-2.3791,-2.4042,-2.4155,-2.4632,-2.4825,-2.4888,-2.4888,-2.4938,-2.5109,-2.5548,-2.5711,-2.5799,-2.6336,-2.6499,-2.6474,-2.6399,-2.6021,-2.5561,-2.5423,-2.5109,-2.4876,-2.5285,-2.5485,-2.5724,-2.626,-2.6436,-2.6499,-2.6499,-2.6499,-2.6499,-2.6499,-2.6499,-2.6499,-2.6499,-2.6499,-2.6499,-2.6499,-2.6499,-2.6499,-2.6499,-2.6499,-2.6499,-2.6499,-2.6499,-2.6499,-2.6499,-2.6499,-2.6499,-2.6499,-2.6499,-2.6499,-2.6499,-2.6499,-2.6658,-2.7007,-2.751,-2.8203,-2.9053,-2.9884,-3.0568,-3.1073,-3.1351,-3.1511,-0.9531,-1.1102,-1.2457,0.0,0.0,0.0,0.0,0.0,-1.6202,-1.6594,-1.6992,-1.7408,-1.792,-1.8008,-1.8008,-1.8008,-1.8008,-1.8008,-1.8008,-1.8008,-1.8008,-1.8008,-1.7803,-1.7588,-1.7435,-1.7407,-1.7476,-1.7688,-1.8036,-1.8432,-1.8996,-1.9442,-1.9925,-2.0401,-2.0734,-2.1103,-2.1493,-2.1493,-2.1493,-2.1493,-2.2046,-2.2406,-2.2656,-2.2957,-2.3108,-2.3108,-2.3108,-2.3108,-2.312,-2.3384,-2.3484,-2.3509,-2.3747,-2.4048,-2.4356,-2.4356,-2.4525,-2.4825,-2.5084,-2.536,-2.5636,-2.5921,-2.6223,-2.6436,-2.6109,-2.5799,-2.5536,-2.5247,-2.5209,-2.531,-2.5536,-2.5837,-2.6172,-2.6436,-2.6499,-2.6499,-2.6499,-2.6499,-2.6499,-2.6499,-2.6499,-2.6499,-2.6499,-2.6499,-2.6499,-2.6499,-2.6499,-2.6499,-2.6499,-2.6499,-2.6499,-2.6499,-2.6499,-2.6499,-2.6499,-2.6499,-2.6499,-2.6499,-2.6499,-2.6499,-2.6499,-2.6499,-2.6658,-2.6998,-2.751,-2.8157,-2.8944,-2.9856,-3.0509,-3.0955,-3.1322,-3.1511,-0.9844,-1.1044,-1.195,-1.2939,0.0,0.0,0.0,0.0,-1.5801,0.0,-1.625,-1.6787,-1.7549,-1.7773,-1.7852,-1.7852,-1.7939,-1.7969,-1.7871,-1.7852,-1.7812,-1.7695,-1.7412,-1.7168,-1.7093,-1.6874,-1.6846,-1.6951,-1.7276,-1.7698,-1.8186,-1.8776,-1.9396,-1.9939,-2.0334,-2.0696,-2.1054,-2.1054,-2.1129,-2.1307,-2.1845,-2.2184,-2.2334,-2.2857,-2.3108,-2.3108,-2.3108,-2.3108,-2.3108,-2.3108,-2.3108,-2.3108,-2.3108,-2.3371,-2.3778,-2.3778,-2.401,-2.4387,-2.4525,-2.487,-2.5234,-2.5498,-2.5887,-2.6223,-2.5933,-2.5812,-2.5737,-2.5347,-2.5523,-2.5812,-2.5812,-2.6172,-2.6499,-2.6499,-2.6499,-2.6499,-2.6499,-2.6499,-2.6499,-2.6499,-2.6499,-2.6499,-2.6499,-2.6499,-2.6499,-2.6499,-2.6499,-2.6499,-2.6499,-2.6499,-2.6499,-2.6499,-2.6499,-2.6499,-2.6499,-2.6499,-2.6499,-2.6499,-2.6499,-2.6499,-2.6499,-2.6499,-2.6671,-2.7011,-2.7464,-2.8097,-2.8881,-2.9811,-3.0509,-3.0881,-3.1322,-3.1511,-0.8831,-0.9727,0.0,-1.195,0.0,0.0,0.0,0.0,0.0,0.0,-1.5791,-1.6271,-1.6677,-1.7139,-1.7422,-1.7422,-1.7744,-1.7871,-1.7471,-1.7422,-1.7266,-1.6814,-1.6746,-1.6602,-1.6202,-1.6174,-1.5958,-1.5537,-1.5828,-1.6194,-1.6594,-1.7177,-1.7915,-1.8771,-1.9127,-1.9508,-1.9886,-1.9886,-2.0189,-2.0742,-2.1295,-2.1807,-2.2334,-2.2857,-2.3108,-2.3108,-2.3108,-2.3108,-2.3108,-2.3108,-2.3108,-2.3108,-2.3108,-2.312,-2.3145,-2.3145,-2.3158,-2.3271,-2.3853,-2.4054,-2.4255,-2.5272,-2.5611,-2.5737,-2.6298,-2.6449,-2.6449,-2.6411,-2.6424,-2.6449,-2.6449,-2.6474,-2.6499,-2.6499,-2.6499,-2.6499,-2.6499,-2.6499,-2.6499,-2.6499,-2.6499,-2.6499,-2.6499,-2.6499,-2.6499,-2.6499,-2.6499,-2.6499,-2.6499,-2.6499,-2.6499,-2.6499,-2.6499,-2.6499,-2.6499,-2.6499,-2.6499,-2.6499,-2.6499,-2.6499,-2.6499,-2.6499,-2.6658,-2.7007,-2.7451,-2.8143,-2.9099,-2.9884,-3.0568,-3.1073,-3.1366,-3.1511,-0.8307,-0.9023,0.0,0.0,0.0,0.0,0.0,0.0,-1.416,-1.4863,-1.5165,-1.54,-1.5801,-1.6443,-1.6963,-1.6963,-1.7058,-1.7106,-1.695,-1.6963,-1.6882,-1.6716,-1.6475,-1.6271,-1.6105,-1.584,-1.5576,-1.542,-1.5787,-1.6275,-1.6775,-1.7462,-1.8201,-1.9016,-1.9305,-1.9578,-1.9798,-1.9798,-1.9911,-2.0125,-2.0717,-2.1094,-2.1307,-2.2196,-2.2581,-2.2594,-2.2945,-2.3108,-2.3108,-2.3108,-2.3108,-2.3108,-2.3108,-2.3108,-2.3108,-2.3108,-2.3108,-2.3133,-2.3346,-2.369,-2.4067,-2.4443,-2.5034,-2.5636,-2.585,-2.6197,-2.6499,-2.6499,-2.6499,-2.6499,-2.6499,-2.6499,-2.6499,-2.6499,-2.6499,-2.6499,-2.6499,-2.6499,-2.6499,-2.6499,-2.6499,-2.6499,-2.6499,-2.6499,-2.6499,-2.6499,-2.6499,-2.6499,-2.6499,-2.6499,-2.6499,-2.6499,-2.6499,-2.6499,-2.6499,-2.7806,-2.8221,-2.7266,-2.7656,-2.7783,-2.7532,-2.7519,-2.7626,-2.7875,-2.8273,-2.8616,-2.8912,-2.9856,-3.0509,-3.0925,-3.1322,-3.1511,-0.768,-0.8375,0.0,0.0,0.0,0.0,0.0,0.0,0.0,0.0,0.0,-1.4873,-1.5146,-1.5771,-1.6307,-1.6484,-1.6599,-1.6648,-1.6533,-1.6514,-1.6455,-1.6278,-1.6025,-1.588,-1.588,-1.5586,-1.541,-1.541,-1.5884,0.0,-1.7157,-1.7886,-1.8617,-1.9384,-1.9578,-1.9708,-1.9798,-1.9798,-1.9798,-1.9811,-2.0415,-2.0691,-2.0729,-2.1619,-2.2133,-2.2334,-2.2669,-2.2932,-2.3108,-2.3108,-2.3108,-2.3108,-2.3108,-2.3108,-2.3108,-2.3108,-2.3108,-2.3108,-2.3108,-2.3358,-2.374,-2.3941,-2.4607,-2.5372,-2.5548,-2.6034,-2.6499,-2.6499,-2.6499,-2.6499,-2.6499,-2.6499,-2.6499,-2.6499,-2.6499,-2.6499,-2.6499,-2.6499,-2.6499,-2.6499,-2.6499,-2.6499,-2.6499,-2.6499,-2.6499,-2.6499,-2.6499,-2.6499,-2.6499,-2.6499,-2.6499,-2.6499,-2.6499,-2.6801,-2.7555,-2.851,-2.8762,-2.802,-2.8298,-2.8386,-2.8109,-2.8109,-2.8146,-2.8304,-2.8509,-2.8668,-2.8732,-2.9736,-3.0362,-3.0569,-3.1324,-3.1737,0.0,0.0,0.0,0.0,0.0,0.0,0.0,0.0,0.0,0.0,0.0,0.0,-1.4756,-1.5107,-1.5527,-1.5987,-1.6406,-1.6543,-1.6134,-1.6075,-1.5919,-1.5459,-1.541,-1.541,-1.541,-1.541,-1.541,-1.541,-1.597,-1.6673,-1.755,-1.8267,-1.9001,-1.9773,-1.9798,-1.9798,-1.9798,-1.9798,-1.9798,-1.9811,-2.0402,-2.0666,-2.0679,-2.1232,-2.1769,-2.2284,-2.2297,-2.2594,-2.3108,-2.3108,-2.3108,-2.3108,-2.3108,-2.3108,-2.3108,-2.3108,-2.3108,-2.3108,-2.3108,-2.3108,-2.3195,-2.3791,-2.4356,-2.4888,-2.5423,-2.6021,-2.6499,-2.6499,-2.6499,-2.6499,-2.6499,-2.6499,-2.6499,-2.6499,-2.6499,-2.6499,-2.6499,-2.6499,-2.6499,-2.6499,-2.6499,-2.6499,-2.6499,-2.6499,-2.6499,-2.6499,-2.6499,-2.6499,-2.6499,-2.6499,-2.6499,-2.6499,-2.6499,-2.7392,-2.9553,-2.8473,-2.797,-2.8662,-2.836,-2.816,-2.816,-2.816,-2.816,-2.816,-2.816,-2.8317,-2.8641,-2.9592,-3.0097,-3.0125,-3.1419,-3.2198,-0.6973,0.0,0.0,0.0,0.0,0.0,0.0,0.0,0.0,0.0,0.0,0.0,0.0,-1.4668,-1.5,-1.5146,-1.5498,-1.5732,-1.5615,-1.5586,-1.5547,-1.543,-1.541,-1.541,-1.541,-1.541,-1.541,0.0,-1.597,-1.6673,-1.755,-1.878,-1.9566,-1.9798,-1.9798,-1.9798,-1.9798,-1.9798,-1.9798,-1.9798,-1.9962,-2.0037,-2.0062,-2.0654,-2.1219,-2.1732,-2.2133,-2.2594,-2.3108,-2.3108,-2.3108,-2.3108,-2.3108,-2.3108,-2.3108,-2.3108,-2.3108,-2.3108,-2.3108,-2.3108,-2.3133,-2.3296,-2.3998,-2.4813,-2.4996,-2.5699,-2.6499,-2.6499,-2.6499,-2.6499,-2.6499,-2.6499,-2.6499,-2.6499,-2.6499,-2.6499,-2.6499,-2.6499,-2.6499,-2.6499,-2.6499,-2.6499,-2.6499,-2.6499,-2.6499,-2.6499,-2.6499,-2.6499,-2.6499,-2.6499,-2.6499,-2.6499,-2.6499,-2.7065,-2.8448,-2.8938,-2.9089,-2.8875,-2.9151,-2.9327,-2.9327,-2.9327,-2.9327,-2.9327,-2.9327,-2.9227,-2.9045,-2.9412,-2.9869,-3.0422,-3.1853,-3.2489,-0.751,-0.7764,-0.7969,0.0,0.0,0.0,-0.9373,-0.9921,0.0,0.0,0.0,0.0,0.0,0.0,-1.4307,-1.4482,-1.4689,-1.4972,-1.5361,-1.541,-1.541,-1.541,-1.541,-1.541,-1.541,-1.541,-1.541,-1.541,-1.597,-1.6814,-1.7957,-1.9162,-1.9798,-1.9798,-1.9798,-1.9798,-1.9798,-1.9798,-1.9798,-1.9798,-1.9798,-1.9798,-1.9811,-2.015,-2.0767,-2.1506,-2.1832,-2.241,-2.3108,-2.3108,-2.3108,-2.3108,-2.3108,-2.3108,-2.3108,-2.3108,-2.3108,-2.3108,-2.3108,-2.3108,-2.3108,-2.3108,-2.3873,-2.4788,-2.4788,-2.5586,-2.6499,-2.6499,-2.6499,-2.6499,-2.6499,-2.6499,-2.6499,-2.6499,-2.6499,-2.6499,-2.6499,-2.6499,-2.6499,-2.6499,-2.6499,-2.6499,-2.6499,-2.6499,-2.6499,-2.6499,-2.6499,-2.6499,-2.6499,-2.6499,-2.6499,-2.6499,-2.6499,-2.6939,-2.8009,-2.8863,-2.9327,-2.9289,-2.9603,-2.9792,-2.9792,-2.9792,-2.9792,-2.9792,-2.9792,-2.9693,-2.9467,-2.9523,-3.0069,-3.1158,-3.1989,-3.2618,-0.8414,-0.876,-0.8926,-0.862,-0.8747,0.0,-0.8541,-0.9305,-1.0117,0.0,0.0,0.0,0.0,0.0,0.0,-1.3841,-1.3938,-1.427,-1.5118,-1.5273,-1.5273,-1.5273,-1.5273,-1.5273,-1.5273,-1.5273,-1.5273,-1.5273,-1.5916,-1.6963,-1.8386,-1.9281,-1.9759,-1.9773,-1.9798,-1.9798,-1.9798,-1.9798,-1.9798,-1.9798,-1.9798,-1.9798,-1.9798,-1.9798,-2.0388,-2.1393,-2.1455,-2.2083,-2.302,-2.3083,-2.3108,-2.3108,-2.3108,-2.3108,-2.3108,-2.3108,-2.3108,-2.3108,-2.3108,-2.3108,-2.3108,-2.3108,-2.3873,-2.4788,-2.4788,-2.5586,-2.6499,-2.6499,-2.6499,-2.6499,-2.6499,-2.6499,-2.6499,-2.6499,-2.6499,-2.6499,-2.6499,-2.6499,-2.6499,-2.6499,-2.6499,-2.6499,-2.6499,-2.6499,-2.6499,-2.6499,-2.6499,-2.6499,-2.6499,-2.6499,-2.6499,-2.6499,-2.6499,-2.6889,-2.7846,-2.8473,-2.9063,-2.9654,-2.9754,-2.9792,-2.9792,-2.9792,-2.9792,-2.9792,-2.9792,-2.9792,-2.9792,-2.9805,-3.05,-3.1903,-3.1951,-3.2626,-0.925,-0.9182,-0.9062,-0.9309,0.0,0.0,-0.8818,-0.8835,-0.8962,0.0,0.0,0.0,0.0,0.0,0.0,-1.2564,-1.29,-1.3418,-1.4241,-1.4358,-1.4358,-1.4358,-1.4358,-1.4358,-1.4358,-1.4358,-1.4358,-1.4358,-1.5702,-1.6859,-1.7589,-1.8813,-1.9539,-1.963,-1.9734,-1.9798,-1.9798,-1.9798,-1.9798,-1.9798,-1.9798,-1.9798,-1.9798,-1.9798,-2.0175,-2.088,-2.1292,-2.1857,-2.2481,-2.292,-2.3108,-2.3108,-2.3108,-2.3108,-2.3108,-2.3108,-2.3108,-2.3108,-2.3108,-2.3108,-2.3108,-2.3108,-2.3873,-2.4788,-2.4788,-2.5586,-2.6499,-2.6499,-2.6499,-2.6499,-2.6499,-2.6499,-2.6499,-2.6499,-2.6499,-2.6499,-2.6499,-2.6499,-2.6499,-2.6499,-2.6499,-2.6499,-2.6499,-2.6499,-2.6499,-2.6499,-2.6499,-2.6499,-2.6499,-2.6499,-2.6499,-2.6499,-2.6499,-2.6587,-2.6801,-2.8536,-2.944,-2.9076,-2.9528,-2.9792,-2.9792,-2.9792,-2.9792,-2.9792,-2.9792,-2.9792,-2.9792,-3.0114,-3.0652,-3.1362,-3.2017,-3.2645,-1.0459,-1.0283,-0.9961,-0.9961,0.0,0.0,0.0,0.0,-0.9062,-0.926,-0.9834,0.0,0.0,0.0,0.0,-1.155,-1.1956,-1.2318,-1.2467,-1.3246,-1.387,-1.4085,-1.4104,-1.4104,-1.4104,-1.4104,-1.4158,-1.4344,-1.5311,-1.6147,-1.6726,-1.7772,-1.8568,-1.9028,-1.927,-1.9547,-1.9798,-1.9798,-1.9798,-1.9798,-1.9798,-1.9798,-1.9798,-1.9798,-2.0125,-2.0704,-2.0981,-2.1421,-2.192,-2.2196,-2.2443,-2.2719,-2.2995,-2.3108,-2.3108,-2.3108,-2.3108,-2.3108,-2.3108,-2.3108,-2.3108,-2.3108,-2.3873,-2.4788,-2.4788,-2.5586,-2.6499,-2.6499,-2.6499,-2.6499,-2.6499,-2.6499,-2.6499,-2.6499,-2.6499,-2.6499,-2.6499,-2.6499,-2.6499,-2.6499,-2.6499,-2.6499,-2.6499,-2.6499,-2.6499,-2.6499,-2.6499,-2.6499,-2.6499,-2.6499,-2.6499,-2.6499,-2.6499,-2.6499,-2.6499,-2.7517,-2.8247,-2.8499,-2.8787,-2.9076,-2.9352,-2.9365,-2.9503,-2.9779,-2.9792,-2.9792,-2.9792,-3.0011,-3.0394,-3.0932,-3.1613,-3.2332,-1.155,-1.133,-1.085,0.0,0.0,-0.9435,0.0,0.0,0.0,0.0,0.0,0.0,0.0,0.0,0.0,0.0,0.0,0.0,0.0,-1.1853,0.0,-1.3539,-1.3607,-1.3646,-1.3734,-1.3734,-1.3877,-1.4278,-1.4661,-1.5167,-1.5853,-1.6729,-1.7531,-1.8263,-1.8747,-1.9208,-1.9648,-1.9748,-1.9798,-1.9798,-1.9798,-1.9798,-1.9798,-1.9798,-2.0062,-2.0528,-2.0641,-2.0943,-2.1343,-2.1443,-2.182,-2.2347,-2.2782,-2.3007,-2.3108,-2.3108,-2.3108,-2.3108,-2.3108,-2.3108,-2.3108,-2.3108,-2.3873,-2.4825,-2.5071,-2.5749,-2.6499,-2.6499,-2.6499,-2.6499,-2.6499,-2.6499,-2.6499,-2.6499,-2.6499,-2.6499,-2.6499,-2.6499,-2.6499,-2.6499,-2.6499,-2.6499,-2.6499,-2.6499,-2.6499,-2.6499,-2.6499,-2.6499,-2.6499,-2.6499,-2.6499,-2.6499,-2.6499,-2.6499,-2.6499,-2.6499,-2.6927,-2.7883,-2.8047,-2.8298,-2.8712,-2.8838,-2.9164,-2.9779,-2.9792,-2.9792,-2.9792,-2.9792,-3.0037,-3.0469,-3.1033,-3.1773,0.0,0.0,0.0,0.0,-1.0518,0.0,0.0,0.0,-0.9062,-0.9014,0.0,0.0,0.0,0.0,0.0,0.0,0.0,0.0,-0.9767,-0.9923,-1.0498,-1.1731,-1.1878,-1.2034,-1.2389,-1.2418,-1.2655,-1.3218,-1.3524,-1.4115,-1.5078,-1.6227,-1.7058,-1.7508,-1.8474,-1.9033,-1.9096,-1.9572,-1.9798,-1.9798,-1.9798,-1.9798,-1.9798,-1.9798,-1.9836,-1.9924,-2.0465,-2.0729,-2.083,-2.1307,-2.182,-2.2322,-2.2385,-2.2681,-2.3108,-2.3108,-2.3108,-2.3108,-2.3108,-2.3108,-2.3108,-2.3108,-2.3873,-2.5008,-2.6009,-2.6399,-2.6499,-2.6499,-2.6499,-2.6499,-2.6499,-2.6499,-2.6499,-2.6499,-2.6499,-2.6499,-2.6499,-2.6499,-2.6499,-2.6499,-2.6499,-2.6499,-2.6499,-2.6499,-2.6499,-2.6499,-2.6499,-2.6499,-2.6499,-2.6499,-2.6499,-2.6499,-2.6499,-2.6499,-2.6499,-2.6499,-2.6751,-2.7344,-2.7833,-2.8134,-2.8197,-2.8662,-2.9164,-2.9779,-2.9792,-2.9792,-2.9792,-2.9792,-2.983,-2.9895,-3.033,-3.0859,0.0,0.0,0.0,0.0,0.0,0.0,-0.9651,0.0,-0.9678,0.0,0.0,0.0,0.0,0.0,0.0,0.0,-0.9455,0.0,0.0,0.0,-0.9746,0.0,0.0,0.0,-1.1797,-1.1611,-1.1663,-1.2194,-1.2327,-1.2815,-1.3791,-1.4939,-1.595,-1.6753,-1.7907,-1.8682,-1.9008,-1.9547,-1.9798,-1.9798,-1.9798,-1.9798,-1.9798,-1.9798,-1.9798,-1.9811,-2.0062,-2.0189,-2.0214,-2.0413,-2.1029,-2.1832,-2.1832,-2.2343,-2.3108,-2.3108,-2.3108,-2.3108,-2.3108,-2.3108,-2.3158,-2.3496,-2.4167,-2.4938,-2.5724,-2.6223,-2.6499,-2.6499,-2.6499,-2.6499,-2.6499,-2.6499,-2.6499,-2.6499,-2.6499,-2.6499,-2.6499,-2.6499,-2.6499,-2.6499,-2.6499,-2.6499,-2.6499,-2.6499,-2.6499,-2.6499,-2.6499,-2.6499,-2.6499,-2.6499,-2.6499,-2.6499,-2.6499,-2.6499,-2.6499,-2.6499,-2.66,-2.6826,-2.7318,-2.7632,-2.7632,-2.8461,-2.9001,-2.9289,-2.9616,-2.9792,-2.9792,-2.9792,-2.9616,-2.9302,-2.9923,-3.0457,-1.2725,0.0,0.0,0.0,0.0,0.0,0.0,0.0,0.0,0.0,0.0,0.0,0.0,0.0,0.0,0.0,0.0,-0.9143,0.0,0.0,0.0,0.0,0.0,0.0,0.0,-1.0986,-1.0987,-1.1567,-1.1467,-1.1862,-1.2939,-1.4089,-1.5131,-1.6055,-1.7465,-1.8392,-1.877,-1.9472,-1.9798,-1.9798,-1.9798,-1.9798,-1.9798,-1.9798,-1.9798,-1.9798,-1.9798,-1.9798,-1.9798,-1.9798,-2.0464,-2.1493,-2.1493,-2.2171,-2.3108,-2.3108,-2.3108,-2.3108,-2.3108,-2.3108,-2.3195,-2.3803,-2.4268,-2.472,-2.5385,-2.5921,-2.6285,-2.6449,-2.6499,-2.6499,-2.6499,-2.6499,-2.6499,-2.6499,-2.6499,-2.6499,-2.6499,-2.6499,-2.6499,-2.6499,-2.6499,-2.6499,-2.6499,-2.6499,-2.6499,-2.6499,-2.6499,-2.6499,-2.6499,-2.6499,-2.6499,-2.6499,-2.6499,-2.6499,-2.6499,-2.6499,-2.6499,-2.6499,-2.6876,-2.7228,-2.7494,-2.8285,-2.8813,-2.9126,-2.9578,-2.9792,-2.9792,-2.9792,-2.9503,-2.89,-2.9505,-2.9808,0.0,0.0,0.0,-1.1606,0.0,0.0,0.0,0.0,-1.0293,0.0,0.0,0.0,0.0,0.0,0.0,0.0,0.0,0.0,0.0,0.0,0.0,0.0,0.0,0.0,0.0,-1.0547,-1.0674,0.0,-1.1172,-1.1543,-1.2929,-1.4089,-1.4949,-1.5514,-1.7268,-1.8216,-1.8229,-1.9271,-1.9798,-1.9798,-1.9798,-1.9798,-1.9798,-1.9798,-1.9798,-1.9798,-1.9798,-1.9798,-1.9798,-1.9798,-2.0464,-2.1493,-2.1493,-2.2171,-2.3108,-2.3108,-2.3108,-2.3108,-2.3108,-2.3108,-2.3195,-2.3803,-2.4004,-2.4217,-2.5272,-2.5611,-2.5737,-2.6336,-2.6499,-2.6499,-2.6499,-2.6499,-2.6499,-2.6499,-2.6499,-2.6499,-2.6499,-2.6499,-2.6499,-2.6499,-2.6499,-2.6499,-2.6499,-2.6499,-2.6499,-2.6499,-2.6499,-2.6499,-2.6499,-2.6499,-2.6499,-2.6499,-2.6499,-2.6499,-2.6499,-2.6499,-2.6499,-2.6499,-2.6512,-2.7002,-2.8034,-2.8109,-2.8649,-2.9741,-2.9779,-2.9792,-2.9792,-2.9792,-2.9503,-2.8888,-2.8913,-2.8674,0.0,0.0,-1.2455,-1.2455,0.0,0.0,0.0,0.0,0.0,0.0,0.0,0.0,0.0,0.0,0.0,0.0,0.0,0.0,0.0,0.0,0.0,0.0,0.0,0.0,0.0,0.0,0.0,0.0,-1.0596,0.0,-1.2473,-1.3663,-1.4674,-1.5479,-1.6911,-1.784,-1.8204,-1.8907,-1.9459,-1.9798,-1.9798,-1.9798,-1.9798,-1.9798,-1.9798,-1.9798,-1.9798,-1.9798,-1.9798,-1.9798,-2.0464,-2.1493,-2.1493,-2.2171,-2.3108,-2.3108,-2.3108,-2.3108,-2.3108,-2.3108,-2.3133,-2.3333,-2.3898,-2.4607,-2.4971,-2.5586,-2.6248,-2.6436,-2.6499,-2.6499,-2.6499,-2.6499,-2.6499,-2.6499,-2.6499,-2.6499,-2.6499,-2.6499,-2.6499,-2.6499,-2.6499,-2.6499,-2.6499,-2.6499,-2.6499,-2.6499,-2.6499,-2.6499,-2.6499,-2.6499,-2.6499,-2.6499,-2.6499,-2.6499,-2.6499,-2.6499,-2.6499,-2.6499,-2.6839,-2.7168,-2.7544,-2.826,-2.88,-2.9214,-2.9591,-2.9792,-2.9792,-2.9792,-2.9315,-2.8386,-2.8386,-2.8285,-1.3863,-1.3633,0.0,-1.3105,-1.2475,0.0,-1.1261,0.0,-1.1506,0.0,0.0,0.0,0.0,0.0,0.0,0.0,0.0,0.0,0.0,-0.7846,0.0,0.0,0.0,0.0,0.0,0.0,-0.963,-1.0254,-1.0303,0.0,0.0,-1.3345,-1.4433,-1.5185,-1.6628,-1.7674,-1.8191,-1.8719,-1.9259,-1.9798,-1.9798,-1.9798,-1.9798,-1.9798,-1.9798,-1.9798,-1.9798,-1.9798,-1.9798,-1.9798,-2.0464,-2.1493,-2.1493,-2.2171,-2.3108,-2.3108,-2.3108,-2.3108,-2.3108,-2.3108,-2.3145,-2.3346,-2.391,-2.4607,-2.4983,-2.5586,-2.6223,-2.6436,-2.6499,-2.6499,-2.6499,-2.6499,-2.6499,-2.6499,-2.6499,-2.6499,-2.6499,-2.6499,-2.6499,-2.6499,-2.6499,-2.6499,-2.6499,-2.6499,-2.6499,-2.6499,-2.6499,-2.6499,-2.6499,-2.719,-2.753,-2.7115,-2.7077,-2.6927,-2.6524,-2.6499,-2.66,-2.6864,-2.7153,-2.7457,-2.7846,-2.8512,-2.8988,-2.9239,-2.9603,-2.9792,-2.9792,-2.9792,-2.9214,-2.8109,-2.8109,-2.7896]}]]